<?xml version="1.0" encoding="UTF-8" standalone="no" ?>
<gpx xmlns="http://www.topografix.com/GPX/1/1" xmlns:xsi="http://www.w3.org/2001/XMLSchema-instance" xsi:schemaLocation="http://www.topografix.com/GPX/1/1 http://www.topografix.com/GPX/1/1/gpx.xsd" version="1.1" creator="VisuGPX - https://www.visugpx.com">
  <metadata>
    <name>2026 03 13 Grand Vallon Belle Plinier</name>
    <desc><![CDATA[2026 03 13 Grand Vallon Belle Plinier]]></desc>
  </metadata>
  <trk>
    <name><![CDATA[2026 03 13 Grand Vallon Belle Plinier]]></name>
    <desc><![CDATA[comment ...]]></desc>
    <extensions>
      <line xmlns="http://www.topografix.com/GPX/gpx_style/0/2">
        <color>0000FF</color>
        <opacity>1</opacity>
        <width>4</width>
      </line>
    </extensions>
    <trkseg>
      <trkpt lat="45.17207" lon="6.65103">
        <ele>1564</ele>
        <time>2026-03-13T08:23:45Z</time>
      </trkpt>
      <trkpt lat="45.17206" lon="6.65103">
        <ele>1568</ele>
        <time>2026-03-13T08:24:15Z</time>
      </trkpt>
      <trkpt lat="45.17205" lon="6.65103">
        <ele>1568</ele>
        <time>2026-03-13T08:24:45Z</time>
      </trkpt>
      <trkpt lat="45.17206" lon="6.65108">
        <ele>1560</ele>
        <time>2026-03-13T08:25:23Z</time>
      </trkpt>
      <trkpt lat="45.17208" lon="6.65112">
        <ele>1559</ele>
        <time>2026-03-13T08:25:27Z</time>
      </trkpt>
      <trkpt lat="45.17211" lon="6.65118">
        <ele>1558</ele>
        <time>2026-03-13T08:25:31Z</time>
      </trkpt>
      <trkpt lat="45.17215" lon="6.65124">
        <ele>1557</ele>
        <time>2026-03-13T08:25:37Z</time>
      </trkpt>
      <trkpt lat="45.17227" lon="6.65131">
        <ele>1554</ele>
        <time>2026-03-13T08:25:49Z</time>
      </trkpt>
      <trkpt lat="45.17239" lon="6.65135">
        <ele>1554</ele>
        <time>2026-03-13T08:25:59Z</time>
      </trkpt>
      <trkpt lat="45.17246" lon="6.65138">
        <ele>1553</ele>
        <time>2026-03-13T08:26:13Z</time>
      </trkpt>
      <trkpt lat="45.1725" lon="6.65141">
        <ele>1553</ele>
        <time>2026-03-13T08:26:17Z</time>
      </trkpt>
      <trkpt lat="45.17251" lon="6.65142">
        <ele>1552</ele>
        <time>2026-03-13T08:26:19Z</time>
      </trkpt>
      <trkpt lat="45.17254" lon="6.65146">
        <ele>1553</ele>
        <time>2026-03-13T08:26:23Z</time>
      </trkpt>
      <trkpt lat="45.17255" lon="6.6516">
        <ele>1554</ele>
        <time>2026-03-13T08:26:33Z</time>
      </trkpt>
      <trkpt lat="45.17255" lon="6.65166">
        <ele>1554</ele>
        <time>2026-03-13T08:26:37Z</time>
      </trkpt>
      <trkpt lat="45.17255" lon="6.6517">
        <ele>1553</ele>
        <time>2026-03-13T08:26:39Z</time>
      </trkpt>
      <trkpt lat="45.17256" lon="6.65173">
        <ele>1553</ele>
        <time>2026-03-13T08:26:41Z</time>
      </trkpt>
      <trkpt lat="45.17265" lon="6.65186">
        <ele>1552</ele>
        <time>2026-03-13T08:26:51Z</time>
      </trkpt>
      <trkpt lat="45.17275" lon="6.65196">
        <ele>1550</ele>
        <time>2026-03-13T08:27:01Z</time>
      </trkpt>
      <trkpt lat="45.17279" lon="6.652">
        <ele>1549</ele>
        <time>2026-03-13T08:27:05Z</time>
      </trkpt>
      <trkpt lat="45.17281" lon="6.65202">
        <ele>1549</ele>
        <time>2026-03-13T08:27:07Z</time>
      </trkpt>
      <trkpt lat="45.17292" lon="6.65213">
        <ele>1547</ele>
        <time>2026-03-13T08:27:19Z</time>
      </trkpt>
      <trkpt lat="45.17295" lon="6.65218">
        <ele>1546</ele>
        <time>2026-03-13T08:27:23Z</time>
      </trkpt>
      <trkpt lat="45.17297" lon="6.65222">
        <ele>1546</ele>
        <time>2026-03-13T08:27:27Z</time>
      </trkpt>
      <trkpt lat="45.17298" lon="6.65226">
        <ele>1546</ele>
        <time>2026-03-13T08:27:31Z</time>
      </trkpt>
      <trkpt lat="45.17298" lon="6.65231">
        <ele>1547</ele>
        <time>2026-03-13T08:27:33Z</time>
      </trkpt>
      <trkpt lat="45.173" lon="6.65235">
        <ele>1548</ele>
        <time>2026-03-13T08:27:39Z</time>
      </trkpt>
      <trkpt lat="45.17304" lon="6.65233">
        <ele>1549</ele>
        <time>2026-03-13T08:27:43Z</time>
      </trkpt>
      <trkpt lat="45.17314" lon="6.6523">
        <ele>1551</ele>
        <time>2026-03-13T08:27:51Z</time>
      </trkpt>
      <trkpt lat="45.17326" lon="6.65243">
        <ele>1550</ele>
        <time>2026-03-13T08:27:59Z</time>
      </trkpt>
      <trkpt lat="45.1733" lon="6.65244">
        <ele>1549</ele>
        <time>2026-03-13T08:28:01Z</time>
      </trkpt>
      <trkpt lat="45.17331" lon="6.65243">
        <ele>1549</ele>
        <time>2026-03-13T08:28:09Z</time>
      </trkpt>
      <trkpt lat="45.17327" lon="6.65245">
        <ele>1550</ele>
        <time>2026-03-13T08:28:19Z</time>
      </trkpt>
      <trkpt lat="45.17335" lon="6.65263">
        <ele>1550</ele>
        <time>2026-03-13T08:29:21Z</time>
      </trkpt>
      <trkpt lat="45.17334" lon="6.6525">
        <ele>1555</ele>
        <time>2026-03-13T08:31:19Z</time>
      </trkpt>
      <trkpt lat="45.17333" lon="6.65251">
        <ele>1555</ele>
        <time>2026-03-13T08:31:39Z</time>
      </trkpt>
      <trkpt lat="45.1733" lon="6.65253">
        <ele>1556</ele>
        <time>2026-03-13T08:31:51Z</time>
      </trkpt>
      <trkpt lat="45.17325" lon="6.65255">
        <ele>1557</ele>
        <time>2026-03-13T08:31:59Z</time>
      </trkpt>
      <trkpt lat="45.17318" lon="6.65256">
        <ele>1557</ele>
        <time>2026-03-13T08:32:09Z</time>
      </trkpt>
      <trkpt lat="45.17312" lon="6.65251">
        <ele>1554</ele>
        <time>2026-03-13T08:32:27Z</time>
      </trkpt>
      <trkpt lat="45.17301" lon="6.65251">
        <ele>1552</ele>
        <time>2026-03-13T08:32:49Z</time>
      </trkpt>
      <trkpt lat="45.17301" lon="6.65243">
        <ele>1556</ele>
        <time>2026-03-13T08:33:15Z</time>
      </trkpt>
      <trkpt lat="45.173" lon="6.65243">
        <ele>1563</ele>
        <time>2026-03-13T08:35:21Z</time>
      </trkpt>
      <trkpt lat="45.17296" lon="6.65244">
        <ele>1563</ele>
        <time>2026-03-13T08:36:25Z</time>
      </trkpt>
      <trkpt lat="45.17294" lon="6.65241">
        <ele>1572</ele>
        <time>2026-03-13T08:41:05Z</time>
      </trkpt>
      <trkpt lat="45.17288" lon="6.65241">
        <ele>1564</ele>
        <time>2026-03-13T08:41:35Z</time>
      </trkpt>
      <trkpt lat="45.17282" lon="6.65239">
        <ele>1560</ele>
        <time>2026-03-13T08:41:43Z</time>
      </trkpt>
      <trkpt lat="45.17279" lon="6.65239">
        <ele>1559</ele>
        <time>2026-03-13T08:41:47Z</time>
      </trkpt>
      <trkpt lat="45.17277" lon="6.65237">
        <ele>1556</ele>
        <time>2026-03-13T08:41:51Z</time>
      </trkpt>
      <trkpt lat="45.17275" lon="6.65232">
        <ele>1555</ele>
        <time>2026-03-13T08:41:55Z</time>
      </trkpt>
      <trkpt lat="45.17273" lon="6.65227">
        <ele>1554</ele>
        <time>2026-03-13T08:42:01Z</time>
      </trkpt>
      <trkpt lat="45.1727" lon="6.65224">
        <ele>1556</ele>
        <time>2026-03-13T08:42:07Z</time>
      </trkpt>
      <trkpt lat="45.1727" lon="6.65221">
        <ele>1558</ele>
        <time>2026-03-13T08:42:09Z</time>
      </trkpt>
      <trkpt lat="45.17271" lon="6.65226">
        <ele>1560</ele>
        <time>2026-03-13T08:42:55Z</time>
      </trkpt>
      <trkpt lat="45.17266" lon="6.65225">
        <ele>1556</ele>
        <time>2026-03-13T08:43:27Z</time>
      </trkpt>
      <trkpt lat="45.17255" lon="6.65236">
        <ele>1553</ele>
        <time>2026-03-13T08:43:59Z</time>
      </trkpt>
      <trkpt lat="45.17236" lon="6.65253">
        <ele>1552</ele>
        <time>2026-03-13T08:44:03Z</time>
      </trkpt>
      <trkpt lat="45.1723" lon="6.65257">
        <ele>1555</ele>
        <time>2026-03-13T08:44:05Z</time>
      </trkpt>
      <trkpt lat="45.17214" lon="6.65263">
        <ele>1559</ele>
        <time>2026-03-13T08:44:09Z</time>
      </trkpt>
      <trkpt lat="45.17207" lon="6.6527">
        <ele>1560</ele>
        <time>2026-03-13T08:44:11Z</time>
      </trkpt>
      <trkpt lat="45.17101" lon="6.65352">
        <ele>1604</ele>
        <time>2026-03-13T08:44:41Z</time>
      </trkpt>
      <trkpt lat="45.17092" lon="6.65358">
        <ele>1608</ele>
        <time>2026-03-13T08:44:43Z</time>
      </trkpt>
      <trkpt lat="45.17084" lon="6.65364">
        <ele>1612</ele>
        <time>2026-03-13T08:44:45Z</time>
      </trkpt>
      <trkpt lat="45.17076" lon="6.65368">
        <ele>1615</ele>
        <time>2026-03-13T08:44:47Z</time>
      </trkpt>
      <trkpt lat="45.17068" lon="6.65374">
        <ele>1620</ele>
        <time>2026-03-13T08:44:49Z</time>
      </trkpt>
      <trkpt lat="45.17059" lon="6.65382">
        <ele>1624</ele>
        <time>2026-03-13T08:44:51Z</time>
      </trkpt>
      <trkpt lat="45.17052" lon="6.65385">
        <ele>1626</ele>
        <time>2026-03-13T08:44:53Z</time>
      </trkpt>
      <trkpt lat="45.17044" lon="6.65391">
        <ele>1631</ele>
        <time>2026-03-13T08:44:55Z</time>
      </trkpt>
      <trkpt lat="45.17038" lon="6.65397">
        <ele>1633</ele>
        <time>2026-03-13T08:44:57Z</time>
      </trkpt>
      <trkpt lat="45.16925" lon="6.65477">
        <ele>1683</ele>
        <time>2026-03-13T08:45:27Z</time>
      </trkpt>
      <trkpt lat="45.16917" lon="6.65483">
        <ele>1687</ele>
        <time>2026-03-13T08:45:29Z</time>
      </trkpt>
      <trkpt lat="45.16882" lon="6.65509">
        <ele>1694</ele>
        <time>2026-03-13T08:45:37Z</time>
      </trkpt>
      <trkpt lat="45.16851" lon="6.6553">
        <ele>1699</ele>
        <time>2026-03-13T08:45:45Z</time>
      </trkpt>
      <trkpt lat="45.16836" lon="6.65539">
        <ele>1703</ele>
        <time>2026-03-13T08:45:49Z</time>
      </trkpt>
      <trkpt lat="45.16731" lon="6.65615">
        <ele>1764</ele>
        <time>2026-03-13T08:46:19Z</time>
      </trkpt>
      <trkpt lat="45.16619" lon="6.65712">
        <ele>1842</ele>
        <time>2026-03-13T08:46:52Z</time>
      </trkpt>
      <trkpt lat="45.16523" lon="6.65799">
        <ele>1907</ele>
        <time>2026-03-13T08:47:22Z</time>
      </trkpt>
      <trkpt lat="45.16516" lon="6.65806">
        <ele>1911</ele>
        <time>2026-03-13T08:47:24Z</time>
      </trkpt>
      <trkpt lat="45.1651" lon="6.65811">
        <ele>1914</ele>
        <time>2026-03-13T08:47:26Z</time>
      </trkpt>
      <trkpt lat="45.16389" lon="6.65895">
        <ele>1963</ele>
        <time>2026-03-13T08:47:56Z</time>
      </trkpt>
      <trkpt lat="45.16285" lon="6.65974">
        <ele>2014</ele>
        <time>2026-03-13T08:48:26Z</time>
      </trkpt>
      <trkpt lat="45.16278" lon="6.6598">
        <ele>2017</ele>
        <time>2026-03-13T08:48:28Z</time>
      </trkpt>
      <trkpt lat="45.16271" lon="6.65986">
        <ele>2023</ele>
        <time>2026-03-13T08:48:30Z</time>
      </trkpt>
      <trkpt lat="45.16265" lon="6.65993">
        <ele>2025</ele>
        <time>2026-03-13T08:48:32Z</time>
      </trkpt>
      <trkpt lat="45.16257" lon="6.65999">
        <ele>2029</ele>
        <time>2026-03-13T08:48:34Z</time>
      </trkpt>
      <trkpt lat="45.16249" lon="6.66005">
        <ele>2031</ele>
        <time>2026-03-13T08:48:36Z</time>
      </trkpt>
      <trkpt lat="45.16242" lon="6.66011">
        <ele>2036</ele>
        <time>2026-03-13T08:48:38Z</time>
      </trkpt>
      <trkpt lat="45.16235" lon="6.66022">
        <ele>2038</ele>
        <time>2026-03-13T08:48:40Z</time>
      </trkpt>
      <trkpt lat="45.16218" lon="6.66033">
        <ele>2043</ele>
        <time>2026-03-13T08:48:44Z</time>
      </trkpt>
      <trkpt lat="45.16197" lon="6.66052">
        <ele>2048</ele>
        <time>2026-03-13T08:48:50Z</time>
      </trkpt>
      <trkpt lat="45.16189" lon="6.66056">
        <ele>2051</ele>
        <time>2026-03-13T08:48:52Z</time>
      </trkpt>
      <trkpt lat="45.16177" lon="6.66065">
        <ele>2054</ele>
        <time>2026-03-13T08:48:56Z</time>
      </trkpt>
      <trkpt lat="45.16169" lon="6.6607">
        <ele>2057</ele>
        <time>2026-03-13T08:48:58Z</time>
      </trkpt>
      <trkpt lat="45.16157" lon="6.66083">
        <ele>2068</ele>
        <time>2026-03-13T08:49:04Z</time>
      </trkpt>
      <trkpt lat="45.16153" lon="6.66091">
        <ele>2070</ele>
        <time>2026-03-13T08:49:06Z</time>
      </trkpt>
      <trkpt lat="45.16033" lon="6.66178">
        <ele>2108</ele>
        <time>2026-03-13T08:49:36Z</time>
      </trkpt>
      <trkpt lat="45.16006" lon="6.6621">
        <ele>2137</ele>
        <time>2026-03-13T08:49:46Z</time>
      </trkpt>
      <trkpt lat="45.16004" lon="6.66237">
        <ele>2165</ele>
        <time>2026-03-13T08:49:52Z</time>
      </trkpt>
      <trkpt lat="45.15894" lon="6.66327">
        <ele>2208</ele>
        <time>2026-03-13T08:50:22Z</time>
      </trkpt>
      <trkpt lat="45.15781" lon="6.66419">
        <ele>2224</ele>
        <time>2026-03-13T08:50:52Z</time>
      </trkpt>
      <trkpt lat="45.15669" lon="6.66515">
        <ele>2230</ele>
        <time>2026-03-13T08:51:22Z</time>
      </trkpt>
      <trkpt lat="45.15662" lon="6.66519">
        <ele>2230</ele>
        <time>2026-03-13T08:51:28Z</time>
      </trkpt>
      <trkpt lat="45.15652" lon="6.66521">
        <ele>2222</ele>
        <time>2026-03-13T08:51:58Z</time>
      </trkpt>
      <trkpt lat="45.15648" lon="6.6652">
        <ele>2222</ele>
        <time>2026-03-13T08:52:04Z</time>
      </trkpt>
      <trkpt lat="45.15647" lon="6.66526">
        <ele>2228</ele>
        <time>2026-03-13T08:52:46Z</time>
      </trkpt>
      <trkpt lat="45.15643" lon="6.66528">
        <ele>2228</ele>
        <time>2026-03-13T08:52:50Z</time>
      </trkpt>
      <trkpt lat="45.15637" lon="6.66527">
        <ele>2227</ele>
        <time>2026-03-13T08:53:04Z</time>
      </trkpt>
      <trkpt lat="45.15631" lon="6.66528">
        <ele>2226</ele>
        <time>2026-03-13T08:53:06Z</time>
      </trkpt>
      <trkpt lat="45.15627" lon="6.66532">
        <ele>2226</ele>
        <time>2026-03-13T08:53:08Z</time>
      </trkpt>
      <trkpt lat="45.15612" lon="6.66536">
        <ele>2225</ele>
        <time>2026-03-13T08:53:16Z</time>
      </trkpt>
      <trkpt lat="45.15602" lon="6.66537">
        <ele>2224</ele>
        <time>2026-03-13T08:53:20Z</time>
      </trkpt>
      <trkpt lat="45.15586" lon="6.66541">
        <ele>2224</ele>
        <time>2026-03-13T08:53:24Z</time>
      </trkpt>
      <trkpt lat="45.15573" lon="6.66535">
        <ele>2222</ele>
        <time>2026-03-13T08:53:28Z</time>
      </trkpt>
      <trkpt lat="45.15569" lon="6.66536">
        <ele>2222</ele>
        <time>2026-03-13T08:53:30Z</time>
      </trkpt>
      <trkpt lat="45.15564" lon="6.66537">
        <ele>2223</ele>
        <time>2026-03-13T08:53:56Z</time>
      </trkpt>
      <trkpt lat="45.15552" lon="6.6654">
        <ele>2224</ele>
        <time>2026-03-13T08:54:10Z</time>
      </trkpt>
      <trkpt lat="45.15538" lon="6.66547">
        <ele>2222</ele>
        <time>2026-03-13T08:54:42Z</time>
      </trkpt>
      <trkpt lat="45.1553" lon="6.66551">
        <ele>2223</ele>
        <time>2026-03-13T08:54:44Z</time>
      </trkpt>
      <trkpt lat="45.15522" lon="6.66554">
        <ele>2225</ele>
        <time>2026-03-13T08:54:46Z</time>
      </trkpt>
      <trkpt lat="45.15423" lon="6.66604">
        <ele>2253</ele>
        <time>2026-03-13T08:55:16Z</time>
      </trkpt>
      <trkpt lat="45.1532" lon="6.66656">
        <ele>2266</ele>
        <time>2026-03-13T08:55:46Z</time>
      </trkpt>
      <trkpt lat="45.1522" lon="6.66706">
        <ele>2283</ele>
        <time>2026-03-13T08:56:16Z</time>
      </trkpt>
      <trkpt lat="45.15118" lon="6.66756">
        <ele>2298</ele>
        <time>2026-03-13T08:56:46Z</time>
      </trkpt>
      <trkpt lat="45.15104" lon="6.66763">
        <ele>2299</ele>
        <time>2026-03-13T08:56:50Z</time>
      </trkpt>
      <trkpt lat="45.15047" lon="6.6679">
        <ele>2311</ele>
        <time>2026-03-13T08:57:16Z</time>
      </trkpt>
      <trkpt lat="45.15044" lon="6.66792">
        <ele>2312</ele>
        <time>2026-03-13T08:57:18Z</time>
      </trkpt>
      <trkpt lat="45.14986" lon="6.66825">
        <ele>2323</ele>
        <time>2026-03-13T08:57:48Z</time>
      </trkpt>
      <trkpt lat="45.1498" lon="6.66827">
        <ele>2325</ele>
        <time>2026-03-13T08:57:50Z</time>
      </trkpt>
      <trkpt lat="45.14974" lon="6.66831">
        <ele>2327</ele>
        <time>2026-03-13T08:57:52Z</time>
      </trkpt>
      <trkpt lat="45.14967" lon="6.66834">
        <ele>2329</ele>
        <time>2026-03-13T08:57:54Z</time>
      </trkpt>
      <trkpt lat="45.14933" lon="6.66851">
        <ele>2353</ele>
        <time>2026-03-13T08:58:06Z</time>
      </trkpt>
      <trkpt lat="45.14848" lon="6.66892">
        <ele>2427</ele>
        <time>2026-03-13T08:58:36Z</time>
      </trkpt>
      <trkpt lat="45.14768" lon="6.66929">
        <ele>2509</ele>
        <time>2026-03-13T08:59:06Z</time>
      </trkpt>
      <trkpt lat="45.14687" lon="6.66967">
        <ele>2585</ele>
        <time>2026-03-13T08:59:36Z</time>
      </trkpt>
      <trkpt lat="45.14593" lon="6.67014">
        <ele>2634</ele>
        <time>2026-03-13T09:00:06Z</time>
      </trkpt>
      <trkpt lat="45.14501" lon="6.67055">
        <ele>2696</ele>
        <time>2026-03-13T09:00:36Z</time>
      </trkpt>
      <trkpt lat="45.14457" lon="6.67074">
        <ele>2729</ele>
        <time>2026-03-13T09:00:50Z</time>
      </trkpt>
      <trkpt lat="45.1444" lon="6.67086">
        <ele>2733</ele>
        <time>2026-03-13T09:00:56Z</time>
      </trkpt>
      <trkpt lat="45.14436" lon="6.67093">
        <ele>2733</ele>
        <time>2026-03-13T09:01:02Z</time>
      </trkpt>
      <trkpt lat="45.14426" lon="6.67093">
        <ele>2734</ele>
        <time>2026-03-13T09:01:06Z</time>
      </trkpt>
      <trkpt lat="45.14426" lon="6.67098">
        <ele>2736</ele>
        <time>2026-03-13T09:01:26Z</time>
      </trkpt>
      <trkpt lat="45.1443" lon="6.67105">
        <ele>2737</ele>
        <time>2026-03-13T09:01:30Z</time>
      </trkpt>
      <trkpt lat="45.14429" lon="6.67115">
        <ele>2736</ele>
        <time>2026-03-13T09:01:36Z</time>
      </trkpt>
      <trkpt lat="45.14431" lon="6.67121">
        <ele>2733</ele>
        <time>2026-03-13T09:02:44Z</time>
      </trkpt>
      <trkpt lat="45.1444" lon="6.67132">
        <ele>2729</ele>
        <time>2026-03-13T09:02:48Z</time>
      </trkpt>
      <trkpt lat="45.14449" lon="6.67163">
        <ele>2724</ele>
        <time>2026-03-13T09:02:54Z</time>
      </trkpt>
      <trkpt lat="45.14455" lon="6.67196">
        <ele>2720</ele>
        <time>2026-03-13T09:02:58Z</time>
      </trkpt>
      <trkpt lat="45.1446" lon="6.67211">
        <ele>2719</ele>
        <time>2026-03-13T09:03:00Z</time>
      </trkpt>
      <trkpt lat="45.14466" lon="6.67243">
        <ele>2717</ele>
        <time>2026-03-13T09:03:04Z</time>
      </trkpt>
      <trkpt lat="45.14469" lon="6.67263">
        <ele>2715</ele>
        <time>2026-03-13T09:03:06Z</time>
      </trkpt>
      <trkpt lat="45.14472" lon="6.67279">
        <ele>2714</ele>
        <time>2026-03-13T09:03:08Z</time>
      </trkpt>
      <trkpt lat="45.1447" lon="6.67285">
        <ele>2713</ele>
        <time>2026-03-13T09:03:40Z</time>
      </trkpt>
      <trkpt lat="45.14472" lon="6.67289">
        <ele>2712</ele>
        <time>2026-03-13T09:03:44Z</time>
      </trkpt>
      <trkpt lat="45.14472" lon="6.67329">
        <ele>2710</ele>
        <time>2026-03-13T09:03:54Z</time>
      </trkpt>
      <trkpt lat="45.14472" lon="6.67391">
        <ele>2708</ele>
        <time>2026-03-13T09:04:10Z</time>
      </trkpt>
      <trkpt lat="45.14475" lon="6.6741">
        <ele>2707</ele>
        <time>2026-03-13T09:04:14Z</time>
      </trkpt>
      <trkpt lat="45.14483" lon="6.67438">
        <ele>2706</ele>
        <time>2026-03-13T09:04:22Z</time>
      </trkpt>
      <trkpt lat="45.14485" lon="6.67452">
        <ele>2706</ele>
        <time>2026-03-13T09:04:26Z</time>
      </trkpt>
      <trkpt lat="45.14484" lon="6.67467">
        <ele>2705</ele>
        <time>2026-03-13T09:04:30Z</time>
      </trkpt>
      <trkpt lat="45.14485" lon="6.67477">
        <ele>2705</ele>
        <time>2026-03-13T09:04:36Z</time>
      </trkpt>
      <trkpt lat="45.14486" lon="6.67532">
        <ele>2703</ele>
        <time>2026-03-13T09:04:48Z</time>
      </trkpt>
      <trkpt lat="45.14489" lon="6.67543">
        <ele>2702</ele>
        <time>2026-03-13T09:04:50Z</time>
      </trkpt>
      <trkpt lat="45.14491" lon="6.6756">
        <ele>2701</ele>
        <time>2026-03-13T09:04:58Z</time>
      </trkpt>
      <trkpt lat="45.14492" lon="6.67565">
        <ele>2700</ele>
        <time>2026-03-13T09:05:30Z</time>
      </trkpt>
      <trkpt lat="45.14494" lon="6.67572">
        <ele>2696</ele>
        <time>2026-03-13T09:15:40Z</time>
      </trkpt>
      <trkpt lat="45.14498" lon="6.67583">
        <ele>2696</ele>
        <time>2026-03-13T09:16:02Z</time>
      </trkpt>
      <trkpt lat="45.14495" lon="6.67582">
        <ele>2697</ele>
        <time>2026-03-13T09:16:28Z</time>
      </trkpt>
      <trkpt lat="45.14493" lon="6.67579">
        <ele>2697</ele>
        <time>2026-03-13T09:16:32Z</time>
      </trkpt>
      <trkpt lat="45.14492" lon="6.67581">
        <ele>2696</ele>
        <time>2026-03-13T09:17:14Z</time>
      </trkpt>
      <trkpt lat="45.14496" lon="6.67589">
        <ele>2697</ele>
        <time>2026-03-13T09:17:24Z</time>
      </trkpt>
      <trkpt lat="45.145" lon="6.67612">
        <ele>2704</ele>
        <time>2026-03-13T09:17:56Z</time>
      </trkpt>
      <trkpt lat="45.14505" lon="6.67617">
        <ele>2703</ele>
        <time>2026-03-13T09:18:24Z</time>
      </trkpt>
      <trkpt lat="45.14517" lon="6.67641">
        <ele>2703</ele>
        <time>2026-03-13T09:18:58Z</time>
      </trkpt>
      <trkpt lat="45.14513" lon="6.67664">
        <ele>2707</ele>
        <time>2026-03-13T09:19:30Z</time>
      </trkpt>
      <trkpt lat="45.1451" lon="6.67693">
        <ele>2708</ele>
        <time>2026-03-13T09:20:00Z</time>
      </trkpt>
      <trkpt lat="45.14507" lon="6.67699">
        <ele>2711</ele>
        <time>2026-03-13T09:20:08Z</time>
      </trkpt>
      <trkpt lat="45.1451" lon="6.67709">
        <ele>2715</ele>
        <time>2026-03-13T09:20:26Z</time>
      </trkpt>
      <trkpt lat="45.14509" lon="6.67721">
        <ele>2720</ele>
        <time>2026-03-13T09:20:40Z</time>
      </trkpt>
      <trkpt lat="45.14505" lon="6.67724">
        <ele>2722</ele>
        <time>2026-03-13T09:20:56Z</time>
      </trkpt>
      <trkpt lat="45.14501" lon="6.67721">
        <ele>2724</ele>
        <time>2026-03-13T09:21:02Z</time>
      </trkpt>
      <trkpt lat="45.14484" lon="6.67704">
        <ele>2726</ele>
        <time>2026-03-13T09:21:32Z</time>
      </trkpt>
      <trkpt lat="45.14481" lon="6.67701">
        <ele>2726</ele>
        <time>2026-03-13T09:21:38Z</time>
      </trkpt>
      <trkpt lat="45.14481" lon="6.67711">
        <ele>2727</ele>
        <time>2026-03-13T09:21:58Z</time>
      </trkpt>
      <trkpt lat="45.14482" lon="6.6772">
        <ele>2729</ele>
        <time>2026-03-13T09:22:10Z</time>
      </trkpt>
      <trkpt lat="45.14488" lon="6.67744">
        <ele>2732</ele>
        <time>2026-03-13T09:22:42Z</time>
      </trkpt>
      <trkpt lat="45.14481" lon="6.67741">
        <ele>2733</ele>
        <time>2026-03-13T09:23:08Z</time>
      </trkpt>
      <trkpt lat="45.14479" lon="6.67735">
        <ele>2733</ele>
        <time>2026-03-13T09:23:12Z</time>
      </trkpt>
      <trkpt lat="45.14475" lon="6.67732">
        <ele>2734</ele>
        <time>2026-03-13T09:23:18Z</time>
      </trkpt>
      <trkpt lat="45.14472" lon="6.67732">
        <ele>2735</ele>
        <time>2026-03-13T09:23:22Z</time>
      </trkpt>
      <trkpt lat="45.14466" lon="6.67727">
        <ele>2737</ele>
        <time>2026-03-13T09:23:30Z</time>
      </trkpt>
      <trkpt lat="45.14466" lon="6.67734">
        <ele>2738</ele>
        <time>2026-03-13T09:23:48Z</time>
      </trkpt>
      <trkpt lat="45.14468" lon="6.6774">
        <ele>2740</ele>
        <time>2026-03-13T09:23:56Z</time>
      </trkpt>
      <trkpt lat="45.14469" lon="6.6775">
        <ele>2740</ele>
        <time>2026-03-13T09:24:10Z</time>
      </trkpt>
      <trkpt lat="45.14475" lon="6.67767">
        <ele>2741</ele>
        <time>2026-03-13T09:24:30Z</time>
      </trkpt>
      <trkpt lat="45.14465" lon="6.67764">
        <ele>2744</ele>
        <time>2026-03-13T09:24:52Z</time>
      </trkpt>
      <trkpt lat="45.14449" lon="6.67753">
        <ele>2749</ele>
        <time>2026-03-13T09:25:34Z</time>
      </trkpt>
      <trkpt lat="45.14456" lon="6.67781">
        <ele>2751</ele>
        <time>2026-03-13T09:26:04Z</time>
      </trkpt>
      <trkpt lat="45.14459" lon="6.67786">
        <ele>2753</ele>
        <time>2026-03-13T09:26:14Z</time>
      </trkpt>
      <trkpt lat="45.14448" lon="6.67788">
        <ele>2756</ele>
        <time>2026-03-13T09:26:38Z</time>
      </trkpt>
      <trkpt lat="45.14437" lon="6.67783">
        <ele>2757</ele>
        <time>2026-03-13T09:27:00Z</time>
      </trkpt>
      <trkpt lat="45.14443" lon="6.67797">
        <ele>2762</ele>
        <time>2026-03-13T09:27:28Z</time>
      </trkpt>
      <trkpt lat="45.14442" lon="6.67804">
        <ele>2763</ele>
        <time>2026-03-13T09:27:44Z</time>
      </trkpt>
      <trkpt lat="45.14421" lon="6.67798">
        <ele>2766</ele>
        <time>2026-03-13T09:28:18Z</time>
      </trkpt>
      <trkpt lat="45.14412" lon="6.67794">
        <ele>2766</ele>
        <time>2026-03-13T09:28:32Z</time>
      </trkpt>
      <trkpt lat="45.14415" lon="6.67798">
        <ele>2770</ele>
        <time>2026-03-13T09:29:02Z</time>
      </trkpt>
      <trkpt lat="45.14417" lon="6.67811">
        <ele>2772</ele>
        <time>2026-03-13T09:29:18Z</time>
      </trkpt>
      <trkpt lat="45.14398" lon="6.67831">
        <ele>2777</ele>
        <time>2026-03-13T09:29:54Z</time>
      </trkpt>
      <trkpt lat="45.14397" lon="6.67836">
        <ele>2779</ele>
        <time>2026-03-13T09:30:00Z</time>
      </trkpt>
      <trkpt lat="45.14386" lon="6.67848">
        <ele>2782</ele>
        <time>2026-03-13T09:30:34Z</time>
      </trkpt>
      <trkpt lat="45.14382" lon="6.67852">
        <ele>2782</ele>
        <time>2026-03-13T09:30:40Z</time>
      </trkpt>
      <trkpt lat="45.14384" lon="6.67859">
        <ele>2784</ele>
        <time>2026-03-13T09:30:58Z</time>
      </trkpt>
      <trkpt lat="45.14402" lon="6.67865">
        <ele>2791</ele>
        <time>2026-03-13T09:31:30Z</time>
      </trkpt>
      <trkpt lat="45.14414" lon="6.67869">
        <ele>2794</ele>
        <time>2026-03-13T09:32:00Z</time>
      </trkpt>
      <trkpt lat="45.14423" lon="6.67873">
        <ele>2797</ele>
        <time>2026-03-13T09:32:20Z</time>
      </trkpt>
      <trkpt lat="45.14426" lon="6.67876">
        <ele>2798</ele>
        <time>2026-03-13T09:32:26Z</time>
      </trkpt>
      <trkpt lat="45.14414" lon="6.67887">
        <ele>2801</ele>
        <time>2026-03-13T09:33:02Z</time>
      </trkpt>
      <trkpt lat="45.14409" lon="6.6789">
        <ele>2800</ele>
        <time>2026-03-13T09:33:08Z</time>
      </trkpt>
      <trkpt lat="45.14408" lon="6.67894">
        <ele>2799</ele>
        <time>2026-03-13T09:33:12Z</time>
      </trkpt>
      <trkpt lat="45.14398" lon="6.67892">
        <ele>2799</ele>
        <time>2026-03-13T09:33:32Z</time>
      </trkpt>
      <trkpt lat="45.14401" lon="6.67888">
        <ele>2802</ele>
        <time>2026-03-13T09:33:52Z</time>
      </trkpt>
      <trkpt lat="45.14416" lon="6.679">
        <ele>2806</ele>
        <time>2026-03-13T09:34:22Z</time>
      </trkpt>
      <trkpt lat="45.14401" lon="6.6791">
        <ele>2812</ele>
        <time>2026-03-13T09:34:58Z</time>
      </trkpt>
      <trkpt lat="45.1438" lon="6.67914">
        <ele>2814</ele>
        <time>2026-03-13T09:35:30Z</time>
      </trkpt>
      <trkpt lat="45.14363" lon="6.67927">
        <ele>2816</ele>
        <time>2026-03-13T09:36:00Z</time>
      </trkpt>
      <trkpt lat="45.14367" lon="6.67923">
        <ele>2816</ele>
        <time>2026-03-13T09:36:06Z</time>
      </trkpt>
      <trkpt lat="45.14372" lon="6.67926">
        <ele>2816</ele>
        <time>2026-03-13T09:36:14Z</time>
      </trkpt>
      <trkpt lat="45.14377" lon="6.67929">
        <ele>2819</ele>
        <time>2026-03-13T09:36:26Z</time>
      </trkpt>
      <trkpt lat="45.14382" lon="6.67928">
        <ele>2821</ele>
        <time>2026-03-13T09:36:34Z</time>
      </trkpt>
      <trkpt lat="45.14383" lon="6.67936">
        <ele>2823</ele>
        <time>2026-03-13T09:36:52Z</time>
      </trkpt>
      <trkpt lat="45.14379" lon="6.67941">
        <ele>2825</ele>
        <time>2026-03-13T09:37:00Z</time>
      </trkpt>
      <trkpt lat="45.14368" lon="6.67946">
        <ele>2823</ele>
        <time>2026-03-13T09:37:18Z</time>
      </trkpt>
      <trkpt lat="45.14361" lon="6.67956">
        <ele>2826</ele>
        <time>2026-03-13T09:37:34Z</time>
      </trkpt>
      <trkpt lat="45.14365" lon="6.6796">
        <ele>2828</ele>
        <time>2026-03-13T09:37:52Z</time>
      </trkpt>
      <trkpt lat="45.14386" lon="6.67959">
        <ele>2834</ele>
        <time>2026-03-13T09:38:30Z</time>
      </trkpt>
      <trkpt lat="45.14388" lon="6.67963">
        <ele>2836</ele>
        <time>2026-03-13T09:38:44Z</time>
      </trkpt>
      <trkpt lat="45.14385" lon="6.67966">
        <ele>2837</ele>
        <time>2026-03-13T09:38:52Z</time>
      </trkpt>
      <trkpt lat="45.1438" lon="6.67971">
        <ele>2840</ele>
        <time>2026-03-13T09:39:06Z</time>
      </trkpt>
      <trkpt lat="45.14372" lon="6.67992">
        <ele>2844</ele>
        <time>2026-03-13T09:39:50Z</time>
      </trkpt>
      <trkpt lat="45.14365" lon="6.67997">
        <ele>2845</ele>
        <time>2026-03-13T09:40:06Z</time>
      </trkpt>
      <trkpt lat="45.14361" lon="6.68003">
        <ele>2847</ele>
        <time>2026-03-13T09:40:14Z</time>
      </trkpt>
      <trkpt lat="45.14353" lon="6.68011">
        <ele>2849</ele>
        <time>2026-03-13T09:40:32Z</time>
      </trkpt>
      <trkpt lat="45.14347" lon="6.68014">
        <ele>2851</ele>
        <time>2026-03-13T09:40:42Z</time>
      </trkpt>
      <trkpt lat="45.14344" lon="6.68016">
        <ele>2855</ele>
        <time>2026-03-13T09:43:52Z</time>
      </trkpt>
      <trkpt lat="45.14343" lon="6.68018">
        <ele>2856</ele>
        <time>2026-03-13T09:43:58Z</time>
      </trkpt>
      <trkpt lat="45.14343" lon="6.68017">
        <ele>2855</ele>
        <time>2026-03-13T09:45:28Z</time>
      </trkpt>
      <trkpt lat="45.14345" lon="6.68015">
        <ele>2854</ele>
        <time>2026-03-13T09:49:58Z</time>
      </trkpt>
      <trkpt lat="45.1435" lon="6.68011">
        <ele>2854</ele>
        <time>2026-03-13T09:50:28Z</time>
      </trkpt>
      <trkpt lat="45.14355" lon="6.68003">
        <ele>2852</ele>
        <time>2026-03-13T09:50:32Z</time>
      </trkpt>
      <trkpt lat="45.14361" lon="6.67999">
        <ele>2850</ele>
        <time>2026-03-13T09:51:20Z</time>
      </trkpt>
      <trkpt lat="45.14371" lon="6.68005">
        <ele>2846</ele>
        <time>2026-03-13T09:51:36Z</time>
      </trkpt>
      <trkpt lat="45.14374" lon="6.68009">
        <ele>2843</ele>
        <time>2026-03-13T09:51:38Z</time>
      </trkpt>
      <trkpt lat="45.1438" lon="6.68012">
        <ele>2837</ele>
        <time>2026-03-13T09:51:40Z</time>
      </trkpt>
      <trkpt lat="45.14385" lon="6.6802">
        <ele>2834</ele>
        <time>2026-03-13T09:51:42Z</time>
      </trkpt>
      <trkpt lat="45.14391" lon="6.68015">
        <ele>2832</ele>
        <time>2026-03-13T09:51:44Z</time>
      </trkpt>
      <trkpt lat="45.14405" lon="6.68011">
        <ele>2829</ele>
        <time>2026-03-13T09:51:48Z</time>
      </trkpt>
      <trkpt lat="45.14413" lon="6.6801">
        <ele>2825</ele>
        <time>2026-03-13T09:52:06Z</time>
      </trkpt>
      <trkpt lat="45.1442" lon="6.68014">
        <ele>2822</ele>
        <time>2026-03-13T09:52:08Z</time>
      </trkpt>
      <trkpt lat="45.14421" lon="6.68025">
        <ele>2817</ele>
        <time>2026-03-13T09:52:10Z</time>
      </trkpt>
      <trkpt lat="45.14428" lon="6.68033">
        <ele>2813</ele>
        <time>2026-03-13T09:52:12Z</time>
      </trkpt>
      <trkpt lat="45.14433" lon="6.68036">
        <ele>2811</ele>
        <time>2026-03-13T09:52:14Z</time>
      </trkpt>
      <trkpt lat="45.14438" lon="6.68042">
        <ele>2807</ele>
        <time>2026-03-13T09:52:16Z</time>
      </trkpt>
      <trkpt lat="45.14443" lon="6.68045">
        <ele>2805</ele>
        <time>2026-03-13T09:52:18Z</time>
      </trkpt>
      <trkpt lat="45.14446" lon="6.68058">
        <ele>2801</ele>
        <time>2026-03-13T09:52:22Z</time>
      </trkpt>
      <trkpt lat="45.1445" lon="6.68072">
        <ele>2795</ele>
        <time>2026-03-13T09:52:24Z</time>
      </trkpt>
      <trkpt lat="45.14457" lon="6.6808">
        <ele>2792</ele>
        <time>2026-03-13T09:52:26Z</time>
      </trkpt>
      <trkpt lat="45.14465" lon="6.68087">
        <ele>2783</ele>
        <time>2026-03-13T09:52:28Z</time>
      </trkpt>
      <trkpt lat="45.14469" lon="6.68099">
        <ele>2780</ele>
        <time>2026-03-13T09:52:30Z</time>
      </trkpt>
      <trkpt lat="45.14477" lon="6.68108">
        <ele>2774</ele>
        <time>2026-03-13T09:52:32Z</time>
      </trkpt>
      <trkpt lat="45.14486" lon="6.68121">
        <ele>2760</ele>
        <time>2026-03-13T09:52:36Z</time>
      </trkpt>
      <trkpt lat="45.1449" lon="6.68147">
        <ele>2738</ele>
        <time>2026-03-13T09:52:42Z</time>
      </trkpt>
      <trkpt lat="45.14528" lon="6.6822">
        <ele>2702</ele>
        <time>2026-03-13T09:52:54Z</time>
      </trkpt>
      <trkpt lat="45.14534" lon="6.68237">
        <ele>2698</ele>
        <time>2026-03-13T09:52:56Z</time>
      </trkpt>
      <trkpt lat="45.14535" lon="6.68251">
        <ele>2695</ele>
        <time>2026-03-13T09:52:58Z</time>
      </trkpt>
      <trkpt lat="45.14537" lon="6.68253">
        <ele>2691</ele>
        <time>2026-03-13T09:53:34Z</time>
      </trkpt>
      <trkpt lat="45.14537" lon="6.68255">
        <ele>2688</ele>
        <time>2026-03-13T09:57:04Z</time>
      </trkpt>
      <trkpt lat="45.14536" lon="6.68258">
        <ele>2687</ele>
        <time>2026-03-13T09:57:32Z</time>
      </trkpt>
      <trkpt lat="45.14537" lon="6.68266">
        <ele>2684</ele>
        <time>2026-03-13T10:00:54Z</time>
      </trkpt>
      <trkpt lat="45.14536" lon="6.68275">
        <ele>2682</ele>
        <time>2026-03-13T10:00:58Z</time>
      </trkpt>
      <trkpt lat="45.14535" lon="6.68288">
        <ele>2682</ele>
        <time>2026-03-13T10:01:04Z</time>
      </trkpt>
      <trkpt lat="45.14539" lon="6.68356">
        <ele>2676</ele>
        <time>2026-03-13T10:01:14Z</time>
      </trkpt>
      <trkpt lat="45.14549" lon="6.68388">
        <ele>2675</ele>
        <time>2026-03-13T10:01:18Z</time>
      </trkpt>
      <trkpt lat="45.14566" lon="6.68421">
        <ele>2671</ele>
        <time>2026-03-13T10:01:28Z</time>
      </trkpt>
      <trkpt lat="45.14571" lon="6.68426">
        <ele>2670</ele>
        <time>2026-03-13T10:01:32Z</time>
      </trkpt>
      <trkpt lat="45.14577" lon="6.68437">
        <ele>2670</ele>
        <time>2026-03-13T10:01:38Z</time>
      </trkpt>
      <trkpt lat="45.14584" lon="6.68465">
        <ele>2669</ele>
        <time>2026-03-13T10:01:42Z</time>
      </trkpt>
      <trkpt lat="45.1459" lon="6.68481">
        <ele>2667</ele>
        <time>2026-03-13T10:01:44Z</time>
      </trkpt>
      <trkpt lat="45.1459" lon="6.68489">
        <ele>2666</ele>
        <time>2026-03-13T10:01:46Z</time>
      </trkpt>
      <trkpt lat="45.14593" lon="6.68496">
        <ele>2664</ele>
        <time>2026-03-13T10:01:50Z</time>
      </trkpt>
      <trkpt lat="45.14602" lon="6.68489">
        <ele>2662</ele>
        <time>2026-03-13T10:02:14Z</time>
      </trkpt>
      <trkpt lat="45.14606" lon="6.68495">
        <ele>2660</ele>
        <time>2026-03-13T10:02:20Z</time>
      </trkpt>
      <trkpt lat="45.14609" lon="6.68502">
        <ele>2658</ele>
        <time>2026-03-13T10:02:22Z</time>
      </trkpt>
      <trkpt lat="45.14606" lon="6.68514">
        <ele>2657</ele>
        <time>2026-03-13T10:02:24Z</time>
      </trkpt>
      <trkpt lat="45.14605" lon="6.6853">
        <ele>2653</ele>
        <time>2026-03-13T10:02:26Z</time>
      </trkpt>
      <trkpt lat="45.14604" lon="6.68551">
        <ele>2651</ele>
        <time>2026-03-13T10:02:28Z</time>
      </trkpt>
      <trkpt lat="45.14603" lon="6.68571">
        <ele>2648</ele>
        <time>2026-03-13T10:02:30Z</time>
      </trkpt>
      <trkpt lat="45.14602" lon="6.68588">
        <ele>2647</ele>
        <time>2026-03-13T10:02:32Z</time>
      </trkpt>
      <trkpt lat="45.14608" lon="6.686">
        <ele>2645</ele>
        <time>2026-03-13T10:02:34Z</time>
      </trkpt>
      <trkpt lat="45.14627" lon="6.68613">
        <ele>2642</ele>
        <time>2026-03-13T10:02:38Z</time>
      </trkpt>
      <trkpt lat="45.14763" lon="6.68774">
        <ele>2580</ele>
        <time>2026-03-13T10:03:08Z</time>
      </trkpt>
      <trkpt lat="45.14774" lon="6.68783">
        <ele>2576</ele>
        <time>2026-03-13T10:03:10Z</time>
      </trkpt>
      <trkpt lat="45.14785" lon="6.68792">
        <ele>2573</ele>
        <time>2026-03-13T10:03:12Z</time>
      </trkpt>
      <trkpt lat="45.14796" lon="6.68798">
        <ele>2569</ele>
        <time>2026-03-13T10:03:14Z</time>
      </trkpt>
      <trkpt lat="45.14809" lon="6.68804">
        <ele>2566</ele>
        <time>2026-03-13T10:03:16Z</time>
      </trkpt>
      <trkpt lat="45.14807" lon="6.68807">
        <ele>2562</ele>
        <time>2026-03-13T10:03:24Z</time>
      </trkpt>
      <trkpt lat="45.14812" lon="6.68811">
        <ele>2554</ele>
        <time>2026-03-13T10:05:27Z</time>
      </trkpt>
      <trkpt lat="45.14822" lon="6.68814">
        <ele>2553</ele>
        <time>2026-03-13T10:05:31Z</time>
      </trkpt>
      <trkpt lat="45.14833" lon="6.68823">
        <ele>2551</ele>
        <time>2026-03-13T10:05:37Z</time>
      </trkpt>
      <trkpt lat="45.1489" lon="6.68835">
        <ele>2546</ele>
        <time>2026-03-13T10:05:51Z</time>
      </trkpt>
      <trkpt lat="45.14911" lon="6.68834">
        <ele>2544</ele>
        <time>2026-03-13T10:05:57Z</time>
      </trkpt>
      <trkpt lat="45.1491" lon="6.68836">
        <ele>2543</ele>
        <time>2026-03-13T10:07:27Z</time>
      </trkpt>
      <trkpt lat="45.14914" lon="6.6883">
        <ele>2540</ele>
        <time>2026-03-13T10:11:43Z</time>
      </trkpt>
      <trkpt lat="45.14912" lon="6.68836">
        <ele>2540</ele>
        <time>2026-03-13T10:13:33Z</time>
      </trkpt>
      <trkpt lat="45.14922" lon="6.6883">
        <ele>2538</ele>
        <time>2026-03-13T10:13:47Z</time>
      </trkpt>
      <trkpt lat="45.14927" lon="6.68827">
        <ele>2537</ele>
        <time>2026-03-13T10:13:53Z</time>
      </trkpt>
      <trkpt lat="45.14933" lon="6.68828">
        <ele>2538</ele>
        <time>2026-03-13T10:14:32Z</time>
      </trkpt>
      <trkpt lat="45.14944" lon="6.68831">
        <ele>2543</ele>
        <time>2026-03-13T10:15:04Z</time>
      </trkpt>
      <trkpt lat="45.14946" lon="6.68832">
        <ele>2542</ele>
        <time>2026-03-13T10:15:08Z</time>
      </trkpt>
      <trkpt lat="45.14949" lon="6.68832">
        <ele>2543</ele>
        <time>2026-03-13T10:15:12Z</time>
      </trkpt>
      <trkpt lat="45.14951" lon="6.68832">
        <ele>2545</ele>
        <time>2026-03-13T10:15:14Z</time>
      </trkpt>
      <trkpt lat="45.14958" lon="6.68833">
        <ele>2545</ele>
        <time>2026-03-13T10:15:24Z</time>
      </trkpt>
      <trkpt lat="45.14967" lon="6.68834">
        <ele>2545</ele>
        <time>2026-03-13T10:15:44Z</time>
      </trkpt>
      <trkpt lat="45.14974" lon="6.68837">
        <ele>2545</ele>
        <time>2026-03-13T10:15:56Z</time>
      </trkpt>
      <trkpt lat="45.14979" lon="6.68838">
        <ele>2546</ele>
        <time>2026-03-13T10:16:04Z</time>
      </trkpt>
      <trkpt lat="45.14987" lon="6.68838">
        <ele>2547</ele>
        <time>2026-03-13T10:16:16Z</time>
      </trkpt>
      <trkpt lat="45.14993" lon="6.68839">
        <ele>2546</ele>
        <time>2026-03-13T10:16:24Z</time>
      </trkpt>
      <trkpt lat="45.14996" lon="6.68839">
        <ele>2547</ele>
        <time>2026-03-13T10:16:28Z</time>
      </trkpt>
      <trkpt lat="45.14999" lon="6.68839">
        <ele>2547</ele>
        <time>2026-03-13T10:16:32Z</time>
      </trkpt>
      <trkpt lat="45.15005" lon="6.68839">
        <ele>2549</ele>
        <time>2026-03-13T10:16:40Z</time>
      </trkpt>
      <trkpt lat="45.15007" lon="6.6884">
        <ele>2549</ele>
        <time>2026-03-13T10:16:44Z</time>
      </trkpt>
      <trkpt lat="45.15012" lon="6.68842">
        <ele>2550</ele>
        <time>2026-03-13T10:16:52Z</time>
      </trkpt>
      <trkpt lat="45.15015" lon="6.68846">
        <ele>2550</ele>
        <time>2026-03-13T10:18:14Z</time>
      </trkpt>
      <trkpt lat="45.15019" lon="6.6885">
        <ele>2550</ele>
        <time>2026-03-13T10:18:18Z</time>
      </trkpt>
      <trkpt lat="45.15022" lon="6.68858">
        <ele>2549</ele>
        <time>2026-03-13T10:18:22Z</time>
      </trkpt>
      <trkpt lat="45.15045" lon="6.68892">
        <ele>2545</ele>
        <time>2026-03-13T10:18:48Z</time>
      </trkpt>
      <trkpt lat="45.15046" lon="6.68896">
        <ele>2546</ele>
        <time>2026-03-13T10:18:52Z</time>
      </trkpt>
      <trkpt lat="45.15047" lon="6.68898">
        <ele>2547</ele>
        <time>2026-03-13T10:19:22Z</time>
      </trkpt>
      <trkpt lat="45.15052" lon="6.68897">
        <ele>2547</ele>
        <time>2026-03-13T10:22:32Z</time>
      </trkpt>
      <trkpt lat="45.15046" lon="6.68946">
        <ele>2543</ele>
        <time>2026-03-13T10:22:56Z</time>
      </trkpt>
      <trkpt lat="45.15049" lon="6.68958">
        <ele>2542</ele>
        <time>2026-03-13T10:23:02Z</time>
      </trkpt>
      <trkpt lat="45.15055" lon="6.68969">
        <ele>2540</ele>
        <time>2026-03-13T10:23:06Z</time>
      </trkpt>
      <trkpt lat="45.15059" lon="6.68975">
        <ele>2539</ele>
        <time>2026-03-13T10:23:08Z</time>
      </trkpt>
      <trkpt lat="45.15068" lon="6.68991">
        <ele>2537</ele>
        <time>2026-03-13T10:23:20Z</time>
      </trkpt>
      <trkpt lat="45.15072" lon="6.68998">
        <ele>2536</ele>
        <time>2026-03-13T10:23:24Z</time>
      </trkpt>
      <trkpt lat="45.15074" lon="6.69007">
        <ele>2535</ele>
        <time>2026-03-13T10:23:28Z</time>
      </trkpt>
      <trkpt lat="45.15106" lon="6.69046">
        <ele>2532</ele>
        <time>2026-03-13T10:23:52Z</time>
      </trkpt>
      <trkpt lat="45.15111" lon="6.69052">
        <ele>2532</ele>
        <time>2026-03-13T10:23:56Z</time>
      </trkpt>
      <trkpt lat="45.15117" lon="6.69061">
        <ele>2530</ele>
        <time>2026-03-13T10:24:00Z</time>
      </trkpt>
      <trkpt lat="45.15131" lon="6.6908">
        <ele>2527</ele>
        <time>2026-03-13T10:24:14Z</time>
      </trkpt>
      <trkpt lat="45.15135" lon="6.69085">
        <ele>2526</ele>
        <time>2026-03-13T10:24:18Z</time>
      </trkpt>
      <trkpt lat="45.1514" lon="6.69092">
        <ele>2526</ele>
        <time>2026-03-13T10:24:22Z</time>
      </trkpt>
      <trkpt lat="45.1515" lon="6.69104">
        <ele>2526</ele>
        <time>2026-03-13T10:24:34Z</time>
      </trkpt>
      <trkpt lat="45.15152" lon="6.69114">
        <ele>2527</ele>
        <time>2026-03-13T10:24:42Z</time>
      </trkpt>
      <trkpt lat="45.15154" lon="6.69116">
        <ele>2527</ele>
        <time>2026-03-13T10:24:46Z</time>
      </trkpt>
      <trkpt lat="45.15156" lon="6.69121">
        <ele>2528</ele>
        <time>2026-03-13T10:24:52Z</time>
      </trkpt>
      <trkpt lat="45.15161" lon="6.69129">
        <ele>2530</ele>
        <time>2026-03-13T10:25:10Z</time>
      </trkpt>
      <trkpt lat="45.15171" lon="6.69132">
        <ele>2533</ele>
        <time>2026-03-13T10:25:26Z</time>
      </trkpt>
      <trkpt lat="45.15177" lon="6.69133">
        <ele>2535</ele>
        <time>2026-03-13T10:25:34Z</time>
      </trkpt>
      <trkpt lat="45.15182" lon="6.6914">
        <ele>2537</ele>
        <time>2026-03-13T10:25:40Z</time>
      </trkpt>
      <trkpt lat="45.1518" lon="6.69147">
        <ele>2537</ele>
        <time>2026-03-13T10:25:50Z</time>
      </trkpt>
      <trkpt lat="45.15178" lon="6.69153">
        <ele>2536</ele>
        <time>2026-03-13T10:25:56Z</time>
      </trkpt>
      <trkpt lat="45.15175" lon="6.69164">
        <ele>2536</ele>
        <time>2026-03-13T10:26:08Z</time>
      </trkpt>
      <trkpt lat="45.15172" lon="6.69171">
        <ele>2537</ele>
        <time>2026-03-13T10:26:16Z</time>
      </trkpt>
      <trkpt lat="45.15169" lon="6.69182">
        <ele>2539</ele>
        <time>2026-03-13T10:26:34Z</time>
      </trkpt>
      <trkpt lat="45.15167" lon="6.69192">
        <ele>2539</ele>
        <time>2026-03-13T10:26:46Z</time>
      </trkpt>
      <trkpt lat="45.15162" lon="6.6921">
        <ele>2541</ele>
        <time>2026-03-13T10:27:04Z</time>
      </trkpt>
      <trkpt lat="45.15162" lon="6.69218">
        <ele>2541</ele>
        <time>2026-03-13T10:27:10Z</time>
      </trkpt>
      <trkpt lat="45.15159" lon="6.69225">
        <ele>2544</ele>
        <time>2026-03-13T10:27:16Z</time>
      </trkpt>
      <trkpt lat="45.15161" lon="6.6923">
        <ele>2544</ele>
        <time>2026-03-13T10:27:24Z</time>
      </trkpt>
      <trkpt lat="45.15163" lon="6.69227">
        <ele>2544</ele>
        <time>2026-03-13T10:27:28Z</time>
      </trkpt>
      <trkpt lat="45.15168" lon="6.69223">
        <ele>2547</ele>
        <time>2026-03-13T10:27:38Z</time>
      </trkpt>
      <trkpt lat="45.15176" lon="6.69223">
        <ele>2550</ele>
        <time>2026-03-13T10:27:52Z</time>
      </trkpt>
      <trkpt lat="45.1518" lon="6.69227">
        <ele>2553</ele>
        <time>2026-03-13T10:27:58Z</time>
      </trkpt>
      <trkpt lat="45.15185" lon="6.69226">
        <ele>2553</ele>
        <time>2026-03-13T10:28:04Z</time>
      </trkpt>
      <trkpt lat="45.15187" lon="6.69232">
        <ele>2554</ele>
        <time>2026-03-13T10:28:16Z</time>
      </trkpt>
      <trkpt lat="45.15186" lon="6.69236">
        <ele>2555</ele>
        <time>2026-03-13T10:28:20Z</time>
      </trkpt>
      <trkpt lat="45.15186" lon="6.6925">
        <ele>2556</ele>
        <time>2026-03-13T10:28:40Z</time>
      </trkpt>
      <trkpt lat="45.15186" lon="6.69257">
        <ele>2555</ele>
        <time>2026-03-13T10:28:48Z</time>
      </trkpt>
      <trkpt lat="45.15191" lon="6.69274">
        <ele>2558</ele>
        <time>2026-03-13T10:29:12Z</time>
      </trkpt>
      <trkpt lat="45.15192" lon="6.69277">
        <ele>2559</ele>
        <time>2026-03-13T10:29:16Z</time>
      </trkpt>
      <trkpt lat="45.15194" lon="6.69284">
        <ele>2560</ele>
        <time>2026-03-13T10:29:24Z</time>
      </trkpt>
      <trkpt lat="45.15205" lon="6.69312">
        <ele>2561</ele>
        <time>2026-03-13T10:29:52Z</time>
      </trkpt>
      <trkpt lat="45.15206" lon="6.69316">
        <ele>2561</ele>
        <time>2026-03-13T10:29:56Z</time>
      </trkpt>
      <trkpt lat="45.15208" lon="6.69319">
        <ele>2562</ele>
        <time>2026-03-13T10:30:00Z</time>
      </trkpt>
      <trkpt lat="45.15209" lon="6.69323">
        <ele>2563</ele>
        <time>2026-03-13T10:30:04Z</time>
      </trkpt>
      <trkpt lat="45.15211" lon="6.69327">
        <ele>2563</ele>
        <time>2026-03-13T10:30:08Z</time>
      </trkpt>
      <trkpt lat="45.15215" lon="6.69332">
        <ele>2562</ele>
        <time>2026-03-13T10:30:16Z</time>
      </trkpt>
      <trkpt lat="45.15228" lon="6.69354">
        <ele>2565</ele>
        <time>2026-03-13T10:30:48Z</time>
      </trkpt>
      <trkpt lat="45.1523" lon="6.6936">
        <ele>2566</ele>
        <time>2026-03-13T10:30:58Z</time>
      </trkpt>
      <trkpt lat="45.15229" lon="6.69362">
        <ele>2567</ele>
        <time>2026-03-13T10:31:28Z</time>
      </trkpt>
      <trkpt lat="45.1523" lon="6.69366">
        <ele>2570</ele>
        <time>2026-03-13T10:33:40Z</time>
      </trkpt>
      <trkpt lat="45.15228" lon="6.69379">
        <ele>2573</ele>
        <time>2026-03-13T10:33:54Z</time>
      </trkpt>
      <trkpt lat="45.15227" lon="6.69386">
        <ele>2574</ele>
        <time>2026-03-13T10:34:00Z</time>
      </trkpt>
      <trkpt lat="45.15226" lon="6.69393">
        <ele>2573</ele>
        <time>2026-03-13T10:34:10Z</time>
      </trkpt>
      <trkpt lat="45.15223" lon="6.69403">
        <ele>2574</ele>
        <time>2026-03-13T10:34:20Z</time>
      </trkpt>
      <trkpt lat="45.1522" lon="6.6941">
        <ele>2574</ele>
        <time>2026-03-13T10:34:30Z</time>
      </trkpt>
      <trkpt lat="45.15218" lon="6.69418">
        <ele>2575</ele>
        <time>2026-03-13T10:34:38Z</time>
      </trkpt>
      <trkpt lat="45.15217" lon="6.6942">
        <ele>2575</ele>
        <time>2026-03-13T10:34:48Z</time>
      </trkpt>
      <trkpt lat="45.15216" lon="6.69424">
        <ele>2576</ele>
        <time>2026-03-13T10:34:52Z</time>
      </trkpt>
      <trkpt lat="45.15215" lon="6.69428">
        <ele>2577</ele>
        <time>2026-03-13T10:34:56Z</time>
      </trkpt>
      <trkpt lat="45.15213" lon="6.69435">
        <ele>2578</ele>
        <time>2026-03-13T10:35:04Z</time>
      </trkpt>
      <trkpt lat="45.1521" lon="6.69443">
        <ele>2579</ele>
        <time>2026-03-13T10:35:12Z</time>
      </trkpt>
      <trkpt lat="45.15209" lon="6.69447">
        <ele>2580</ele>
        <time>2026-03-13T10:35:16Z</time>
      </trkpt>
      <trkpt lat="45.15203" lon="6.69471">
        <ele>2581</ele>
        <time>2026-03-13T10:35:48Z</time>
      </trkpt>
      <trkpt lat="45.15202" lon="6.69474">
        <ele>2582</ele>
        <time>2026-03-13T10:35:52Z</time>
      </trkpt>
      <trkpt lat="45.15198" lon="6.69488">
        <ele>2584</ele>
        <time>2026-03-13T10:36:08Z</time>
      </trkpt>
      <trkpt lat="45.15197" lon="6.69491">
        <ele>2585</ele>
        <time>2026-03-13T10:36:12Z</time>
      </trkpt>
      <trkpt lat="45.15195" lon="6.69497">
        <ele>2586</ele>
        <time>2026-03-13T10:36:20Z</time>
      </trkpt>
      <trkpt lat="45.15193" lon="6.69504">
        <ele>2586</ele>
        <time>2026-03-13T10:36:24Z</time>
      </trkpt>
      <trkpt lat="45.1519" lon="6.69512">
        <ele>2587</ele>
        <time>2026-03-13T10:36:30Z</time>
      </trkpt>
      <trkpt lat="45.15189" lon="6.69515">
        <ele>2588</ele>
        <time>2026-03-13T10:36:34Z</time>
      </trkpt>
      <trkpt lat="45.15184" lon="6.6953">
        <ele>2594</ele>
        <time>2026-03-13T10:36:54Z</time>
      </trkpt>
      <trkpt lat="45.15183" lon="6.69533">
        <ele>2595</ele>
        <time>2026-03-13T10:37:04Z</time>
      </trkpt>
      <trkpt lat="45.1518" lon="6.69539">
        <ele>2596</ele>
        <time>2026-03-13T10:37:10Z</time>
      </trkpt>
      <trkpt lat="45.15177" lon="6.69545">
        <ele>2596</ele>
        <time>2026-03-13T10:37:16Z</time>
      </trkpt>
      <trkpt lat="45.15173" lon="6.69554">
        <ele>2597</ele>
        <time>2026-03-13T10:37:28Z</time>
      </trkpt>
      <trkpt lat="45.15171" lon="6.69559">
        <ele>2597</ele>
        <time>2026-03-13T10:37:33Z</time>
      </trkpt>
      <trkpt lat="45.15168" lon="6.69567">
        <ele>2599</ele>
        <time>2026-03-13T10:37:36Z</time>
      </trkpt>
      <trkpt lat="45.15167" lon="6.69571">
        <ele>2600</ele>
        <time>2026-03-13T10:37:40Z</time>
      </trkpt>
      <trkpt lat="45.15168" lon="6.69574">
        <ele>2600</ele>
        <time>2026-03-13T10:37:44Z</time>
      </trkpt>
      <trkpt lat="45.15166" lon="6.69581">
        <ele>2603</ele>
        <time>2026-03-13T10:37:54Z</time>
      </trkpt>
      <trkpt lat="45.15162" lon="6.69593">
        <ele>2607</ele>
        <time>2026-03-13T10:38:18Z</time>
      </trkpt>
      <trkpt lat="45.1516" lon="6.696">
        <ele>2608</ele>
        <time>2026-03-13T10:38:20Z</time>
      </trkpt>
      <trkpt lat="45.15157" lon="6.69604">
        <ele>2608</ele>
        <time>2026-03-13T10:38:28Z</time>
      </trkpt>
      <trkpt lat="45.15155" lon="6.69607">
        <ele>2607</ele>
        <time>2026-03-13T10:38:32Z</time>
      </trkpt>
      <trkpt lat="45.15154" lon="6.69611">
        <ele>2608</ele>
        <time>2026-03-13T10:38:36Z</time>
      </trkpt>
      <trkpt lat="45.15154" lon="6.69614">
        <ele>2609</ele>
        <time>2026-03-13T10:38:38Z</time>
      </trkpt>
      <trkpt lat="45.15153" lon="6.69616">
        <ele>2609</ele>
        <time>2026-03-13T10:38:40Z</time>
      </trkpt>
      <trkpt lat="45.15152" lon="6.69622">
        <ele>2610</ele>
        <time>2026-03-13T10:38:50Z</time>
      </trkpt>
      <trkpt lat="45.15152" lon="6.69632">
        <ele>2612</ele>
        <time>2026-03-13T10:39:04Z</time>
      </trkpt>
      <trkpt lat="45.15148" lon="6.69636">
        <ele>2612</ele>
        <time>2026-03-13T10:39:12Z</time>
      </trkpt>
      <trkpt lat="45.15146" lon="6.69635">
        <ele>2613</ele>
        <time>2026-03-13T10:39:16Z</time>
      </trkpt>
      <trkpt lat="45.15143" lon="6.69635">
        <ele>2613</ele>
        <time>2026-03-13T10:39:22Z</time>
      </trkpt>
      <trkpt lat="45.15138" lon="6.69631">
        <ele>2615</ele>
        <time>2026-03-13T10:39:32Z</time>
      </trkpt>
      <trkpt lat="45.15136" lon="6.69631">
        <ele>2617</ele>
        <time>2026-03-13T10:39:38Z</time>
      </trkpt>
      <trkpt lat="45.15133" lon="6.69631">
        <ele>2617</ele>
        <time>2026-03-13T10:39:44Z</time>
      </trkpt>
      <trkpt lat="45.1513" lon="6.69632">
        <ele>2618</ele>
        <time>2026-03-13T10:39:48Z</time>
      </trkpt>
      <trkpt lat="45.15129" lon="6.69635">
        <ele>2618</ele>
        <time>2026-03-13T10:39:54Z</time>
      </trkpt>
      <trkpt lat="45.15129" lon="6.69639">
        <ele>2618</ele>
        <time>2026-03-13T10:39:58Z</time>
      </trkpt>
      <trkpt lat="45.1513" lon="6.69642">
        <ele>2619</ele>
        <time>2026-03-13T10:40:02Z</time>
      </trkpt>
      <trkpt lat="45.1513" lon="6.69657">
        <ele>2622</ele>
        <time>2026-03-13T10:40:20Z</time>
      </trkpt>
      <trkpt lat="45.1513" lon="6.6966">
        <ele>2623</ele>
        <time>2026-03-13T10:40:24Z</time>
      </trkpt>
      <trkpt lat="45.1513" lon="6.69671">
        <ele>2625</ele>
        <time>2026-03-13T10:40:38Z</time>
      </trkpt>
      <trkpt lat="45.15128" lon="6.69685">
        <ele>2628</ele>
        <time>2026-03-13T10:41:04Z</time>
      </trkpt>
      <trkpt lat="45.15126" lon="6.69691">
        <ele>2630</ele>
        <time>2026-03-13T10:41:06Z</time>
      </trkpt>
      <trkpt lat="45.15125" lon="6.69696">
        <ele>2631</ele>
        <time>2026-03-13T10:41:10Z</time>
      </trkpt>
      <trkpt lat="45.15123" lon="6.69699">
        <ele>2631</ele>
        <time>2026-03-13T10:41:14Z</time>
      </trkpt>
      <trkpt lat="45.15122" lon="6.69703">
        <ele>2632</ele>
        <time>2026-03-13T10:41:22Z</time>
      </trkpt>
      <trkpt lat="45.15122" lon="6.69707">
        <ele>2632</ele>
        <time>2026-03-13T10:41:26Z</time>
      </trkpt>
      <trkpt lat="45.1512" lon="6.6971">
        <ele>2632</ele>
        <time>2026-03-13T10:41:30Z</time>
      </trkpt>
      <trkpt lat="45.15116" lon="6.6972">
        <ele>2633</ele>
        <time>2026-03-13T10:41:42Z</time>
      </trkpt>
      <trkpt lat="45.15117" lon="6.6972">
        <ele>2634</ele>
        <time>2026-03-13T10:41:50Z</time>
      </trkpt>
      <trkpt lat="45.15113" lon="6.69733">
        <ele>2637</ele>
        <time>2026-03-13T10:42:06Z</time>
      </trkpt>
      <trkpt lat="45.15111" lon="6.69738">
        <ele>2638</ele>
        <time>2026-03-13T10:42:14Z</time>
      </trkpt>
      <trkpt lat="45.15111" lon="6.69741">
        <ele>2638</ele>
        <time>2026-03-13T10:42:18Z</time>
      </trkpt>
      <trkpt lat="45.15109" lon="6.69747">
        <ele>2639</ele>
        <time>2026-03-13T10:42:26Z</time>
      </trkpt>
      <trkpt lat="45.15105" lon="6.69769">
        <ele>2641</ele>
        <time>2026-03-13T10:42:46Z</time>
      </trkpt>
      <trkpt lat="45.15103" lon="6.69772">
        <ele>2641</ele>
        <time>2026-03-13T10:42:52Z</time>
      </trkpt>
      <trkpt lat="45.15102" lon="6.69778">
        <ele>2643</ele>
        <time>2026-03-13T10:43:00Z</time>
      </trkpt>
      <trkpt lat="45.15101" lon="6.69781">
        <ele>2644</ele>
        <time>2026-03-13T10:43:04Z</time>
      </trkpt>
      <trkpt lat="45.151" lon="6.69783">
        <ele>2645</ele>
        <time>2026-03-13T10:43:08Z</time>
      </trkpt>
      <trkpt lat="45.15099" lon="6.69786">
        <ele>2646</ele>
        <time>2026-03-13T10:43:14Z</time>
      </trkpt>
      <trkpt lat="45.15092" lon="6.69794">
        <ele>2647</ele>
        <time>2026-03-13T10:43:26Z</time>
      </trkpt>
      <trkpt lat="45.15088" lon="6.69802">
        <ele>2650</ele>
        <time>2026-03-13T10:43:38Z</time>
      </trkpt>
      <trkpt lat="45.15086" lon="6.69803">
        <ele>2651</ele>
        <time>2026-03-13T10:43:42Z</time>
      </trkpt>
      <trkpt lat="45.15083" lon="6.69808">
        <ele>2654</ele>
        <time>2026-03-13T10:43:54Z</time>
      </trkpt>
      <trkpt lat="45.15078" lon="6.69813">
        <ele>2656</ele>
        <time>2026-03-13T10:44:04Z</time>
      </trkpt>
      <trkpt lat="45.15074" lon="6.69814">
        <ele>2657</ele>
        <time>2026-03-13T10:44:14Z</time>
      </trkpt>
      <trkpt lat="45.15069" lon="6.6981">
        <ele>2658</ele>
        <time>2026-03-13T10:44:24Z</time>
      </trkpt>
      <trkpt lat="45.15057" lon="6.69802">
        <ele>2663</ele>
        <time>2026-03-13T10:44:54Z</time>
      </trkpt>
      <trkpt lat="45.15047" lon="6.69797">
        <ele>2666</ele>
        <time>2026-03-13T10:45:16Z</time>
      </trkpt>
      <trkpt lat="45.15045" lon="6.69796">
        <ele>2667</ele>
        <time>2026-03-13T10:45:20Z</time>
      </trkpt>
      <trkpt lat="45.15042" lon="6.69796">
        <ele>2667</ele>
        <time>2026-03-13T10:45:26Z</time>
      </trkpt>
      <trkpt lat="45.15039" lon="6.69792">
        <ele>2668</ele>
        <time>2026-03-13T10:45:34Z</time>
      </trkpt>
      <trkpt lat="45.15028" lon="6.69789">
        <ele>2670</ele>
        <time>2026-03-13T10:45:58Z</time>
      </trkpt>
      <trkpt lat="45.15023" lon="6.69787">
        <ele>2671</ele>
        <time>2026-03-13T10:46:08Z</time>
      </trkpt>
      <trkpt lat="45.1502" lon="6.69786">
        <ele>2673</ele>
        <time>2026-03-13T10:46:14Z</time>
      </trkpt>
      <trkpt lat="45.15015" lon="6.69785">
        <ele>2674</ele>
        <time>2026-03-13T10:46:26Z</time>
      </trkpt>
      <trkpt lat="45.15011" lon="6.69785">
        <ele>2674</ele>
        <time>2026-03-13T10:46:38Z</time>
      </trkpt>
      <trkpt lat="45.15007" lon="6.69784">
        <ele>2674</ele>
        <time>2026-03-13T10:46:44Z</time>
      </trkpt>
      <trkpt lat="45.15005" lon="6.69783">
        <ele>2675</ele>
        <time>2026-03-13T10:46:48Z</time>
      </trkpt>
      <trkpt lat="45.15001" lon="6.69779">
        <ele>2678</ele>
        <time>2026-03-13T10:46:56Z</time>
      </trkpt>
      <trkpt lat="45.14999" lon="6.69777">
        <ele>2678</ele>
        <time>2026-03-13T10:47:00Z</time>
      </trkpt>
      <trkpt lat="45.14997" lon="6.69774">
        <ele>2679</ele>
        <time>2026-03-13T10:47:04Z</time>
      </trkpt>
      <trkpt lat="45.14996" lon="6.69772">
        <ele>2681</ele>
        <time>2026-03-13T10:47:12Z</time>
      </trkpt>
      <trkpt lat="45.14993" lon="6.69766">
        <ele>2683</ele>
        <time>2026-03-13T10:47:22Z</time>
      </trkpt>
      <trkpt lat="45.14991" lon="6.6976">
        <ele>2684</ele>
        <time>2026-03-13T10:48:00Z</time>
      </trkpt>
      <trkpt lat="45.14988" lon="6.69773">
        <ele>2684</ele>
        <time>2026-03-13T10:49:08Z</time>
      </trkpt>
      <trkpt lat="45.14987" lon="6.69779">
        <ele>2684</ele>
        <time>2026-03-13T10:49:18Z</time>
      </trkpt>
      <trkpt lat="45.14986" lon="6.6979">
        <ele>2685</ele>
        <time>2026-03-13T10:49:32Z</time>
      </trkpt>
      <trkpt lat="45.14984" lon="6.69797">
        <ele>2686</ele>
        <time>2026-03-13T10:49:46Z</time>
      </trkpt>
      <trkpt lat="45.14983" lon="6.69804">
        <ele>2688</ele>
        <time>2026-03-13T10:49:54Z</time>
      </trkpt>
      <trkpt lat="45.14979" lon="6.69815">
        <ele>2691</ele>
        <time>2026-03-13T10:50:08Z</time>
      </trkpt>
      <trkpt lat="45.14979" lon="6.69817">
        <ele>2691</ele>
        <time>2026-03-13T10:50:12Z</time>
      </trkpt>
      <trkpt lat="45.14977" lon="6.69825">
        <ele>2692</ele>
        <time>2026-03-13T10:50:22Z</time>
      </trkpt>
      <trkpt lat="45.14977" lon="6.69826">
        <ele>2694</ele>
        <time>2026-03-13T10:50:30Z</time>
      </trkpt>
      <trkpt lat="45.14975" lon="6.69836">
        <ele>2696</ele>
        <time>2026-03-13T10:50:42Z</time>
      </trkpt>
      <trkpt lat="45.14975" lon="6.69846">
        <ele>2696</ele>
        <time>2026-03-13T10:50:48Z</time>
      </trkpt>
      <trkpt lat="45.14975" lon="6.69853">
        <ele>2698</ele>
        <time>2026-03-13T10:50:58Z</time>
      </trkpt>
      <trkpt lat="45.14974" lon="6.69856">
        <ele>2700</ele>
        <time>2026-03-13T10:51:02Z</time>
      </trkpt>
      <trkpt lat="45.14974" lon="6.69863">
        <ele>2701</ele>
        <time>2026-03-13T10:51:12Z</time>
      </trkpt>
      <trkpt lat="45.14974" lon="6.69874">
        <ele>2702</ele>
        <time>2026-03-13T10:51:26Z</time>
      </trkpt>
      <trkpt lat="45.14973" lon="6.69882">
        <ele>2704</ele>
        <time>2026-03-13T10:51:35Z</time>
      </trkpt>
      <trkpt lat="45.14972" lon="6.69887">
        <ele>2705</ele>
        <time>2026-03-13T10:51:59Z</time>
      </trkpt>
      <trkpt lat="45.14968" lon="6.69884">
        <ele>2706</ele>
        <time>2026-03-13T10:52:25Z</time>
      </trkpt>
      <trkpt lat="45.14965" lon="6.69882">
        <ele>2707</ele>
        <time>2026-03-13T10:52:31Z</time>
      </trkpt>
      <trkpt lat="45.14963" lon="6.69879">
        <ele>2707</ele>
        <time>2026-03-13T10:52:35Z</time>
      </trkpt>
      <trkpt lat="45.14962" lon="6.69878">
        <ele>2708</ele>
        <time>2026-03-13T10:52:39Z</time>
      </trkpt>
      <trkpt lat="45.14956" lon="6.69877">
        <ele>2710</ele>
        <time>2026-03-13T10:52:51Z</time>
      </trkpt>
      <trkpt lat="45.14951" lon="6.6987">
        <ele>2712</ele>
        <time>2026-03-13T10:53:05Z</time>
      </trkpt>
      <trkpt lat="45.14945" lon="6.69862">
        <ele>2713</ele>
        <time>2026-03-13T10:53:17Z</time>
      </trkpt>
      <trkpt lat="45.14944" lon="6.6986">
        <ele>2714</ele>
        <time>2026-03-13T10:53:21Z</time>
      </trkpt>
      <trkpt lat="45.14943" lon="6.69855">
        <ele>2715</ele>
        <time>2026-03-13T10:53:27Z</time>
      </trkpt>
      <trkpt lat="45.1494" lon="6.69852">
        <ele>2717</ele>
        <time>2026-03-13T10:53:33Z</time>
      </trkpt>
      <trkpt lat="45.14938" lon="6.69849">
        <ele>2717</ele>
        <time>2026-03-13T10:53:39Z</time>
      </trkpt>
      <trkpt lat="45.14935" lon="6.69845">
        <ele>2719</ele>
        <time>2026-03-13T10:53:47Z</time>
      </trkpt>
      <trkpt lat="45.14933" lon="6.69842">
        <ele>2719</ele>
        <time>2026-03-13T10:53:53Z</time>
      </trkpt>
      <trkpt lat="45.14931" lon="6.6984">
        <ele>2721</ele>
        <time>2026-03-13T10:54:01Z</time>
      </trkpt>
      <trkpt lat="45.14928" lon="6.69836">
        <ele>2722</ele>
        <time>2026-03-13T10:54:09Z</time>
      </trkpt>
      <trkpt lat="45.14927" lon="6.69843">
        <ele>2722</ele>
        <time>2026-03-13T10:54:19Z</time>
      </trkpt>
      <trkpt lat="45.14927" lon="6.69848">
        <ele>2724</ele>
        <time>2026-03-13T10:54:27Z</time>
      </trkpt>
      <trkpt lat="45.14927" lon="6.69857">
        <ele>2725</ele>
        <time>2026-03-13T10:54:39Z</time>
      </trkpt>
      <trkpt lat="45.14926" lon="6.6986">
        <ele>2726</ele>
        <time>2026-03-13T10:54:43Z</time>
      </trkpt>
      <trkpt lat="45.14926" lon="6.69866">
        <ele>2726</ele>
        <time>2026-03-13T10:54:51Z</time>
      </trkpt>
      <trkpt lat="45.14926" lon="6.69866">
        <ele>2727</ele>
        <time>2026-03-13T10:54:59Z</time>
      </trkpt>
      <trkpt lat="45.14926" lon="6.69872">
        <ele>2728</ele>
        <time>2026-03-13T10:55:07Z</time>
      </trkpt>
      <trkpt lat="45.14926" lon="6.69875">
        <ele>2728</ele>
        <time>2026-03-13T10:55:11Z</time>
      </trkpt>
      <trkpt lat="45.14925" lon="6.69878">
        <ele>2728</ele>
        <time>2026-03-13T10:55:13Z</time>
      </trkpt>
      <trkpt lat="45.14925" lon="6.69885">
        <ele>2728</ele>
        <time>2026-03-13T10:55:15Z</time>
      </trkpt>
      <trkpt lat="45.14922" lon="6.69888">
        <ele>2728</ele>
        <time>2026-03-13T10:55:19Z</time>
      </trkpt>
      <trkpt lat="45.14921" lon="6.69893">
        <ele>2729</ele>
        <time>2026-03-13T10:55:23Z</time>
      </trkpt>
      <trkpt lat="45.14921" lon="6.69903">
        <ele>2731</ele>
        <time>2026-03-13T10:55:35Z</time>
      </trkpt>
      <trkpt lat="45.14919" lon="6.69905">
        <ele>2731</ele>
        <time>2026-03-13T10:55:39Z</time>
      </trkpt>
      <trkpt lat="45.14919" lon="6.69908">
        <ele>2731</ele>
        <time>2026-03-13T10:55:43Z</time>
      </trkpt>
      <trkpt lat="45.14916" lon="6.69919">
        <ele>2732</ele>
        <time>2026-03-13T10:55:57Z</time>
      </trkpt>
      <trkpt lat="45.14916" lon="6.69925">
        <ele>2734</ele>
        <time>2026-03-13T10:56:05Z</time>
      </trkpt>
      <trkpt lat="45.14916" lon="6.69938">
        <ele>2736</ele>
        <time>2026-03-13T10:56:19Z</time>
      </trkpt>
      <trkpt lat="45.14915" lon="6.69951">
        <ele>2737</ele>
        <time>2026-03-13T10:56:39Z</time>
      </trkpt>
      <trkpt lat="45.14915" lon="6.69955">
        <ele>2738</ele>
        <time>2026-03-13T10:56:43Z</time>
      </trkpt>
      <trkpt lat="45.14914" lon="6.6996">
        <ele>2738</ele>
        <time>2026-03-13T10:56:51Z</time>
      </trkpt>
      <trkpt lat="45.14915" lon="6.69966">
        <ele>2739</ele>
        <time>2026-03-13T10:57:25Z</time>
      </trkpt>
      <trkpt lat="45.14914" lon="6.69969">
        <ele>2741</ele>
        <time>2026-03-13T10:57:31Z</time>
      </trkpt>
      <trkpt lat="45.14913" lon="6.69978">
        <ele>2744</ele>
        <time>2026-03-13T10:57:39Z</time>
      </trkpt>
      <trkpt lat="45.14911" lon="6.69981">
        <ele>2745</ele>
        <time>2026-03-13T10:57:43Z</time>
      </trkpt>
      <trkpt lat="45.14909" lon="6.6998">
        <ele>2746</ele>
        <time>2026-03-13T10:57:49Z</time>
      </trkpt>
      <trkpt lat="45.14905" lon="6.69977">
        <ele>2746</ele>
        <time>2026-03-13T10:58:47Z</time>
      </trkpt>
      <trkpt lat="45.14895" lon="6.69961">
        <ele>2747</ele>
        <time>2026-03-13T10:59:27Z</time>
      </trkpt>
      <trkpt lat="45.1488" lon="6.69939">
        <ele>2752</ele>
        <time>2026-03-13T11:00:09Z</time>
      </trkpt>
      <trkpt lat="45.14879" lon="6.69934">
        <ele>2752</ele>
        <time>2026-03-13T11:00:13Z</time>
      </trkpt>
      <trkpt lat="45.14873" lon="6.69926">
        <ele>2754</ele>
        <time>2026-03-13T11:00:25Z</time>
      </trkpt>
      <trkpt lat="45.14871" lon="6.69925">
        <ele>2756</ele>
        <time>2026-03-13T11:00:29Z</time>
      </trkpt>
      <trkpt lat="45.14868" lon="6.69932">
        <ele>2757</ele>
        <time>2026-03-13T11:00:43Z</time>
      </trkpt>
      <trkpt lat="45.14865" lon="6.69936">
        <ele>2759</ele>
        <time>2026-03-13T11:00:51Z</time>
      </trkpt>
      <trkpt lat="45.14862" lon="6.69942">
        <ele>2760</ele>
        <time>2026-03-13T11:01:03Z</time>
      </trkpt>
      <trkpt lat="45.14863" lon="6.69945">
        <ele>2761</ele>
        <time>2026-03-13T11:01:09Z</time>
      </trkpt>
      <trkpt lat="45.1486" lon="6.6996">
        <ele>2765</ele>
        <time>2026-03-13T11:01:41Z</time>
      </trkpt>
      <trkpt lat="45.14857" lon="6.69974">
        <ele>2766</ele>
        <time>2026-03-13T11:02:01Z</time>
      </trkpt>
      <trkpt lat="45.14856" lon="6.69983">
        <ele>2766</ele>
        <time>2026-03-13T11:02:05Z</time>
      </trkpt>
      <trkpt lat="45.14857" lon="6.69989">
        <ele>2767</ele>
        <time>2026-03-13T11:02:15Z</time>
      </trkpt>
      <trkpt lat="45.14856" lon="6.69995">
        <ele>2769</ele>
        <time>2026-03-13T11:02:23Z</time>
      </trkpt>
      <trkpt lat="45.14856" lon="6.7">
        <ele>2771</ele>
        <time>2026-03-13T11:02:27Z</time>
      </trkpt>
      <trkpt lat="45.14856" lon="6.70007">
        <ele>2771</ele>
        <time>2026-03-13T11:02:43Z</time>
      </trkpt>
      <trkpt lat="45.14847" lon="6.7">
        <ele>2775</ele>
        <time>2026-03-13T11:03:13Z</time>
      </trkpt>
      <trkpt lat="45.14844" lon="6.69997">
        <ele>2775</ele>
        <time>2026-03-13T11:03:23Z</time>
      </trkpt>
      <trkpt lat="45.14836" lon="6.69985">
        <ele>2779</ele>
        <time>2026-03-13T11:03:43Z</time>
      </trkpt>
      <trkpt lat="45.14833" lon="6.69993">
        <ele>2780</ele>
        <time>2026-03-13T11:04:17Z</time>
      </trkpt>
      <trkpt lat="45.14832" lon="6.69997">
        <ele>2780</ele>
        <time>2026-03-13T11:04:21Z</time>
      </trkpt>
      <trkpt lat="45.14833" lon="6.70003">
        <ele>2781</ele>
        <time>2026-03-13T11:04:31Z</time>
      </trkpt>
      <trkpt lat="45.14832" lon="6.70009">
        <ele>2783</ele>
        <time>2026-03-13T11:04:39Z</time>
      </trkpt>
      <trkpt lat="45.14831" lon="6.70012">
        <ele>2784</ele>
        <time>2026-03-13T11:04:43Z</time>
      </trkpt>
      <trkpt lat="45.14832" lon="6.70022">
        <ele>2784</ele>
        <time>2026-03-13T11:05:03Z</time>
      </trkpt>
      <trkpt lat="45.14828" lon="6.70022">
        <ele>2786</ele>
        <time>2026-03-13T11:05:29Z</time>
      </trkpt>
      <trkpt lat="45.14825" lon="6.7002">
        <ele>2788</ele>
        <time>2026-03-13T11:05:33Z</time>
      </trkpt>
      <trkpt lat="45.1482" lon="6.70021">
        <ele>2789</ele>
        <time>2026-03-13T11:05:43Z</time>
      </trkpt>
      <trkpt lat="45.14819" lon="6.70017">
        <ele>2790</ele>
        <time>2026-03-13T11:05:49Z</time>
      </trkpt>
      <trkpt lat="45.14816" lon="6.70015">
        <ele>2791</ele>
        <time>2026-03-13T11:05:55Z</time>
      </trkpt>
      <trkpt lat="45.14814" lon="6.70009">
        <ele>2792</ele>
        <time>2026-03-13T11:05:59Z</time>
      </trkpt>
      <trkpt lat="45.14811" lon="6.70004">
        <ele>2793</ele>
        <time>2026-03-13T11:06:19Z</time>
      </trkpt>
      <trkpt lat="45.14807" lon="6.70007">
        <ele>2795</ele>
        <time>2026-03-13T11:06:41Z</time>
      </trkpt>
      <trkpt lat="45.14804" lon="6.7001">
        <ele>2795</ele>
        <time>2026-03-13T11:06:47Z</time>
      </trkpt>
      <trkpt lat="45.14803" lon="6.70014">
        <ele>2795</ele>
        <time>2026-03-13T11:06:53Z</time>
      </trkpt>
      <trkpt lat="45.14802" lon="6.70017">
        <ele>2795</ele>
        <time>2026-03-13T11:06:57Z</time>
      </trkpt>
      <trkpt lat="45.14801" lon="6.70028">
        <ele>2797</ele>
        <time>2026-03-13T11:07:15Z</time>
      </trkpt>
      <trkpt lat="45.148" lon="6.70032">
        <ele>2799</ele>
        <time>2026-03-13T11:07:27Z</time>
      </trkpt>
      <trkpt lat="45.148" lon="6.70039">
        <ele>2800</ele>
        <time>2026-03-13T11:07:35Z</time>
      </trkpt>
      <trkpt lat="45.14802" lon="6.70044">
        <ele>2800</ele>
        <time>2026-03-13T11:07:41Z</time>
      </trkpt>
      <trkpt lat="45.14797" lon="6.70047">
        <ele>2802</ele>
        <time>2026-03-13T11:08:03Z</time>
      </trkpt>
      <trkpt lat="45.14795" lon="6.70046">
        <ele>2804</ele>
        <time>2026-03-13T11:08:07Z</time>
      </trkpt>
      <trkpt lat="45.14792" lon="6.70045">
        <ele>2805</ele>
        <time>2026-03-13T11:08:13Z</time>
      </trkpt>
      <trkpt lat="45.1479" lon="6.70045">
        <ele>2806</ele>
        <time>2026-03-13T11:08:27Z</time>
      </trkpt>
      <trkpt lat="45.14785" lon="6.70043">
        <ele>2807</ele>
        <time>2026-03-13T11:08:35Z</time>
      </trkpt>
      <trkpt lat="45.14782" lon="6.70043">
        <ele>2808</ele>
        <time>2026-03-13T11:08:41Z</time>
      </trkpt>
      <trkpt lat="45.1478" lon="6.70041">
        <ele>2808</ele>
        <time>2026-03-13T11:08:45Z</time>
      </trkpt>
      <trkpt lat="45.14774" lon="6.70033">
        <ele>2810</ele>
        <time>2026-03-13T11:08:59Z</time>
      </trkpt>
      <trkpt lat="45.14772" lon="6.70031">
        <ele>2810</ele>
        <time>2026-03-13T11:09:07Z</time>
      </trkpt>
      <trkpt lat="45.14771" lon="6.70039">
        <ele>2811</ele>
        <time>2026-03-13T11:09:19Z</time>
      </trkpt>
      <trkpt lat="45.14771" lon="6.70041">
        <ele>2812</ele>
        <time>2026-03-13T11:09:23Z</time>
      </trkpt>
      <trkpt lat="45.14767" lon="6.70059">
        <ele>2817</ele>
        <time>2026-03-13T11:10:03Z</time>
      </trkpt>
      <trkpt lat="45.14766" lon="6.70062">
        <ele>2818</ele>
        <time>2026-03-13T11:10:07Z</time>
      </trkpt>
      <trkpt lat="45.14765" lon="6.70072">
        <ele>2819</ele>
        <time>2026-03-13T11:10:19Z</time>
      </trkpt>
      <trkpt lat="45.14764" lon="6.70075">
        <ele>2819</ele>
        <time>2026-03-13T11:10:21Z</time>
      </trkpt>
      <trkpt lat="45.14761" lon="6.70078">
        <ele>2819</ele>
        <time>2026-03-13T11:14:27Z</time>
      </trkpt>
      <trkpt lat="45.14755" lon="6.70103">
        <ele>2820</ele>
        <time>2026-03-13T11:14:59Z</time>
      </trkpt>
      <trkpt lat="45.14751" lon="6.7011">
        <ele>2824</ele>
        <time>2026-03-13T11:15:27Z</time>
      </trkpt>
      <trkpt lat="45.14749" lon="6.70122">
        <ele>2824</ele>
        <time>2026-03-13T11:15:41Z</time>
      </trkpt>
      <trkpt lat="45.14747" lon="6.7012">
        <ele>2824</ele>
        <time>2026-03-13T11:15:47Z</time>
      </trkpt>
      <trkpt lat="45.14745" lon="6.70117">
        <ele>2824</ele>
        <time>2026-03-13T11:15:53Z</time>
      </trkpt>
      <trkpt lat="45.14743" lon="6.70115">
        <ele>2825</ele>
        <time>2026-03-13T11:15:57Z</time>
      </trkpt>
      <trkpt lat="45.14742" lon="6.70112">
        <ele>2825</ele>
        <time>2026-03-13T11:16:03Z</time>
      </trkpt>
      <trkpt lat="45.1474" lon="6.7011">
        <ele>2826</ele>
        <time>2026-03-13T11:16:07Z</time>
      </trkpt>
      <trkpt lat="45.14736" lon="6.70107">
        <ele>2827</ele>
        <time>2026-03-13T11:16:17Z</time>
      </trkpt>
      <trkpt lat="45.14734" lon="6.70104">
        <ele>2829</ele>
        <time>2026-03-13T11:16:21Z</time>
      </trkpt>
      <trkpt lat="45.14732" lon="6.701">
        <ele>2830</ele>
        <time>2026-03-13T11:16:25Z</time>
      </trkpt>
      <trkpt lat="45.14722" lon="6.70087">
        <ele>2836</ele>
        <time>2026-03-13T11:16:51Z</time>
      </trkpt>
      <trkpt lat="45.14721" lon="6.70085">
        <ele>2836</ele>
        <time>2026-03-13T11:16:55Z</time>
      </trkpt>
      <trkpt lat="45.14713" lon="6.70071">
        <ele>2838</ele>
        <time>2026-03-13T11:17:17Z</time>
      </trkpt>
      <trkpt lat="45.1471" lon="6.70068">
        <ele>2839</ele>
        <time>2026-03-13T11:17:21Z</time>
      </trkpt>
      <trkpt lat="45.1471" lon="6.70065">
        <ele>2839</ele>
        <time>2026-03-13T11:17:25Z</time>
      </trkpt>
      <trkpt lat="45.14709" lon="6.70062">
        <ele>2840</ele>
        <time>2026-03-13T11:17:29Z</time>
      </trkpt>
      <trkpt lat="45.14703" lon="6.70038">
        <ele>2846</ele>
        <time>2026-03-13T11:18:03Z</time>
      </trkpt>
      <trkpt lat="45.147" lon="6.70031">
        <ele>2847</ele>
        <time>2026-03-13T11:18:15Z</time>
      </trkpt>
      <trkpt lat="45.14698" lon="6.70029">
        <ele>2847</ele>
        <time>2026-03-13T11:18:21Z</time>
      </trkpt>
      <trkpt lat="45.14696" lon="6.70026">
        <ele>2848</ele>
        <time>2026-03-13T11:18:27Z</time>
      </trkpt>
      <trkpt lat="45.14694" lon="6.70024">
        <ele>2848</ele>
        <time>2026-03-13T11:18:31Z</time>
      </trkpt>
      <trkpt lat="45.14692" lon="6.70022">
        <ele>2849</ele>
        <time>2026-03-13T11:18:35Z</time>
      </trkpt>
      <trkpt lat="45.1469" lon="6.7002">
        <ele>2849</ele>
        <time>2026-03-13T11:18:39Z</time>
      </trkpt>
      <trkpt lat="45.14688" lon="6.70018">
        <ele>2850</ele>
        <time>2026-03-13T11:18:43Z</time>
      </trkpt>
      <trkpt lat="45.14687" lon="6.70016">
        <ele>2851</ele>
        <time>2026-03-13T11:18:47Z</time>
      </trkpt>
      <trkpt lat="45.14685" lon="6.70014">
        <ele>2851</ele>
        <time>2026-03-13T11:18:49Z</time>
      </trkpt>
      <trkpt lat="45.14686" lon="6.7002">
        <ele>2851</ele>
        <time>2026-03-13T11:19:01Z</time>
      </trkpt>
      <trkpt lat="45.14683" lon="6.70034">
        <ele>2853</ele>
        <time>2026-03-13T11:19:19Z</time>
      </trkpt>
      <trkpt lat="45.14681" lon="6.70037">
        <ele>2852</ele>
        <time>2026-03-13T11:19:25Z</time>
      </trkpt>
      <trkpt lat="45.1468" lon="6.70039">
        <ele>2853</ele>
        <time>2026-03-13T11:19:29Z</time>
      </trkpt>
      <trkpt lat="45.14679" lon="6.70042">
        <ele>2853</ele>
        <time>2026-03-13T11:19:33Z</time>
      </trkpt>
      <trkpt lat="45.14678" lon="6.70038">
        <ele>2854</ele>
        <time>2026-03-13T11:19:47Z</time>
      </trkpt>
      <trkpt lat="45.14675" lon="6.70036">
        <ele>2854</ele>
        <time>2026-03-13T11:19:51Z</time>
      </trkpt>
      <trkpt lat="45.14671" lon="6.70033">
        <ele>2855</ele>
        <time>2026-03-13T11:20:01Z</time>
      </trkpt>
      <trkpt lat="45.14668" lon="6.70032">
        <ele>2856</ele>
        <time>2026-03-13T11:20:05Z</time>
      </trkpt>
      <trkpt lat="45.14666" lon="6.7003">
        <ele>2857</ele>
        <time>2026-03-13T11:20:09Z</time>
      </trkpt>
      <trkpt lat="45.14662" lon="6.70028">
        <ele>2858</ele>
        <time>2026-03-13T11:20:19Z</time>
      </trkpt>
      <trkpt lat="45.1466" lon="6.70027">
        <ele>2859</ele>
        <time>2026-03-13T11:20:23Z</time>
      </trkpt>
      <trkpt lat="45.14657" lon="6.70026">
        <ele>2860</ele>
        <time>2026-03-13T11:20:27Z</time>
      </trkpt>
      <trkpt lat="45.14656" lon="6.70025">
        <ele>2860</ele>
        <time>2026-03-13T11:20:31Z</time>
      </trkpt>
      <trkpt lat="45.14655" lon="6.70022">
        <ele>2861</ele>
        <time>2026-03-13T11:20:35Z</time>
      </trkpt>
      <trkpt lat="45.14654" lon="6.70031">
        <ele>2862</ele>
        <time>2026-03-13T11:20:47Z</time>
      </trkpt>
      <trkpt lat="45.14656" lon="6.70032">
        <ele>2863</ele>
        <time>2026-03-13T11:20:51Z</time>
      </trkpt>
      <trkpt lat="45.14656" lon="6.70037">
        <ele>2864</ele>
        <time>2026-03-13T11:20:57Z</time>
      </trkpt>
      <trkpt lat="45.14656" lon="6.70043">
        <ele>2864</ele>
        <time>2026-03-13T11:21:03Z</time>
      </trkpt>
      <trkpt lat="45.14655" lon="6.70046">
        <ele>2864</ele>
        <time>2026-03-13T11:21:07Z</time>
      </trkpt>
      <trkpt lat="45.14655" lon="6.70053">
        <ele>2865</ele>
        <time>2026-03-13T11:21:15Z</time>
      </trkpt>
      <trkpt lat="45.14656" lon="6.70057">
        <ele>2865</ele>
        <time>2026-03-13T11:21:21Z</time>
      </trkpt>
      <trkpt lat="45.14653" lon="6.70061">
        <ele>2867</ele>
        <time>2026-03-13T11:21:43Z</time>
      </trkpt>
      <trkpt lat="45.1465" lon="6.70058">
        <ele>2871</ele>
        <time>2026-03-13T11:22:26Z</time>
      </trkpt>
      <trkpt lat="45.14646" lon="6.70057">
        <ele>2872</ele>
        <time>2026-03-13T11:22:34Z</time>
      </trkpt>
      <trkpt lat="45.14644" lon="6.70056">
        <ele>2873</ele>
        <time>2026-03-13T11:22:38Z</time>
      </trkpt>
      <trkpt lat="45.1464" lon="6.70058">
        <ele>2874</ele>
        <time>2026-03-13T11:22:48Z</time>
      </trkpt>
      <trkpt lat="45.14641" lon="6.70062">
        <ele>2873</ele>
        <time>2026-03-13T11:22:58Z</time>
      </trkpt>
      <trkpt lat="45.14642" lon="6.70067">
        <ele>2873</ele>
        <time>2026-03-13T11:23:06Z</time>
      </trkpt>
      <trkpt lat="45.14642" lon="6.70072">
        <ele>2873</ele>
        <time>2026-03-13T11:23:14Z</time>
      </trkpt>
      <trkpt lat="45.14639" lon="6.70072">
        <ele>2874</ele>
        <time>2026-03-13T11:23:26Z</time>
      </trkpt>
      <trkpt lat="45.14635" lon="6.70071">
        <ele>2875</ele>
        <time>2026-03-13T11:23:34Z</time>
      </trkpt>
      <trkpt lat="45.14628" lon="6.7007">
        <ele>2878</ele>
        <time>2026-03-13T11:23:44Z</time>
      </trkpt>
      <trkpt lat="45.14626" lon="6.7007">
        <ele>2878</ele>
        <time>2026-03-13T11:23:48Z</time>
      </trkpt>
      <trkpt lat="45.14623" lon="6.70069">
        <ele>2879</ele>
        <time>2026-03-13T11:23:52Z</time>
      </trkpt>
      <trkpt lat="45.14622" lon="6.70073">
        <ele>2878</ele>
        <time>2026-03-13T11:24:04Z</time>
      </trkpt>
      <trkpt lat="45.14625" lon="6.70078">
        <ele>2879</ele>
        <time>2026-03-13T11:24:14Z</time>
      </trkpt>
      <trkpt lat="45.14627" lon="6.70086">
        <ele>2882</ele>
        <time>2026-03-13T11:24:26Z</time>
      </trkpt>
      <trkpt lat="45.14627" lon="6.70091">
        <ele>2882</ele>
        <time>2026-03-13T11:24:32Z</time>
      </trkpt>
      <trkpt lat="45.14628" lon="6.70099">
        <ele>2884</ele>
        <time>2026-03-13T11:24:46Z</time>
      </trkpt>
      <trkpt lat="45.14626" lon="6.70106">
        <ele>2885</ele>
        <time>2026-03-13T11:24:56Z</time>
      </trkpt>
      <trkpt lat="45.14622" lon="6.70103">
        <ele>2887</ele>
        <time>2026-03-13T11:25:10Z</time>
      </trkpt>
      <trkpt lat="45.14619" lon="6.70103">
        <ele>2887</ele>
        <time>2026-03-13T11:25:14Z</time>
      </trkpt>
      <trkpt lat="45.14616" lon="6.70102">
        <ele>2888</ele>
        <time>2026-03-13T11:25:20Z</time>
      </trkpt>
      <trkpt lat="45.14614" lon="6.701">
        <ele>2889</ele>
        <time>2026-03-13T11:25:24Z</time>
      </trkpt>
      <trkpt lat="45.14605" lon="6.701">
        <ele>2892</ele>
        <time>2026-03-13T11:25:42Z</time>
      </trkpt>
      <trkpt lat="45.146" lon="6.70101">
        <ele>2894</ele>
        <time>2026-03-13T11:25:54Z</time>
      </trkpt>
      <trkpt lat="45.14602" lon="6.70108">
        <ele>2896</ele>
        <time>2026-03-13T11:26:10Z</time>
      </trkpt>
      <trkpt lat="45.14602" lon="6.70116">
        <ele>2897</ele>
        <time>2026-03-13T11:26:24Z</time>
      </trkpt>
      <trkpt lat="45.14602" lon="6.70119">
        <ele>2896</ele>
        <time>2026-03-13T11:26:28Z</time>
      </trkpt>
      <trkpt lat="45.14604" lon="6.70133">
        <ele>2898</ele>
        <time>2026-03-13T11:26:50Z</time>
      </trkpt>
      <trkpt lat="45.14599" lon="6.70135">
        <ele>2899</ele>
        <time>2026-03-13T11:27:04Z</time>
      </trkpt>
      <trkpt lat="45.14596" lon="6.70133">
        <ele>2901</ele>
        <time>2026-03-13T11:27:12Z</time>
      </trkpt>
      <trkpt lat="45.14591" lon="6.70132">
        <ele>2902</ele>
        <time>2026-03-13T11:27:22Z</time>
      </trkpt>
      <trkpt lat="45.14584" lon="6.7013">
        <ele>2906</ele>
        <time>2026-03-13T11:27:40Z</time>
      </trkpt>
      <trkpt lat="45.1458" lon="6.70128">
        <ele>2906</ele>
        <time>2026-03-13T11:27:48Z</time>
      </trkpt>
      <trkpt lat="45.14581" lon="6.70136">
        <ele>2907</ele>
        <time>2026-03-13T11:28:10Z</time>
      </trkpt>
      <trkpt lat="45.14582" lon="6.70142">
        <ele>2909</ele>
        <time>2026-03-13T11:29:16Z</time>
      </trkpt>
      <trkpt lat="45.14583" lon="6.70147">
        <ele>2910</ele>
        <time>2026-03-13T11:29:24Z</time>
      </trkpt>
      <trkpt lat="45.14586" lon="6.70153">
        <ele>2911</ele>
        <time>2026-03-13T11:29:48Z</time>
      </trkpt>
      <trkpt lat="45.14584" lon="6.70155">
        <ele>2912</ele>
        <time>2026-03-13T11:29:58Z</time>
      </trkpt>
      <trkpt lat="45.14572" lon="6.70151">
        <ele>2915</ele>
        <time>2026-03-13T11:30:18Z</time>
      </trkpt>
      <trkpt lat="45.1457" lon="6.70151">
        <ele>2916</ele>
        <time>2026-03-13T11:30:22Z</time>
      </trkpt>
      <trkpt lat="45.14567" lon="6.70149">
        <ele>2917</ele>
        <time>2026-03-13T11:30:26Z</time>
      </trkpt>
      <trkpt lat="45.14565" lon="6.70149">
        <ele>2917</ele>
        <time>2026-03-13T11:30:30Z</time>
      </trkpt>
      <trkpt lat="45.14563" lon="6.70147">
        <ele>2917</ele>
        <time>2026-03-13T11:30:36Z</time>
      </trkpt>
      <trkpt lat="45.14566" lon="6.70153">
        <ele>2918</ele>
        <time>2026-03-13T11:30:44Z</time>
      </trkpt>
      <trkpt lat="45.14566" lon="6.70158">
        <ele>2920</ele>
        <time>2026-03-13T11:30:50Z</time>
      </trkpt>
      <trkpt lat="45.14568" lon="6.70165">
        <ele>2921</ele>
        <time>2026-03-13T11:31:00Z</time>
      </trkpt>
      <trkpt lat="45.14571" lon="6.70167">
        <ele>2921</ele>
        <time>2026-03-13T11:31:04Z</time>
      </trkpt>
      <trkpt lat="45.14572" lon="6.70173">
        <ele>2922</ele>
        <time>2026-03-13T11:31:16Z</time>
      </trkpt>
      <trkpt lat="45.14567" lon="6.7017">
        <ele>2924</ele>
        <time>2026-03-13T11:31:28Z</time>
      </trkpt>
      <trkpt lat="45.14565" lon="6.70169">
        <ele>2925</ele>
        <time>2026-03-13T11:31:32Z</time>
      </trkpt>
      <trkpt lat="45.14562" lon="6.70169">
        <ele>2926</ele>
        <time>2026-03-13T11:31:38Z</time>
      </trkpt>
      <trkpt lat="45.14559" lon="6.70169">
        <ele>2926</ele>
        <time>2026-03-13T11:31:42Z</time>
      </trkpt>
      <trkpt lat="45.14555" lon="6.70168">
        <ele>2927</ele>
        <time>2026-03-13T11:31:50Z</time>
      </trkpt>
      <trkpt lat="45.14552" lon="6.70168">
        <ele>2927</ele>
        <time>2026-03-13T11:31:56Z</time>
      </trkpt>
      <trkpt lat="45.14546" lon="6.70169">
        <ele>2928</ele>
        <time>2026-03-13T11:32:08Z</time>
      </trkpt>
      <trkpt lat="45.14549" lon="6.70172">
        <ele>2929</ele>
        <time>2026-03-13T11:32:44Z</time>
      </trkpt>
      <trkpt lat="45.14551" lon="6.70176">
        <ele>2930</ele>
        <time>2026-03-13T11:32:48Z</time>
      </trkpt>
      <trkpt lat="45.14552" lon="6.70182">
        <ele>2931</ele>
        <time>2026-03-13T11:32:54Z</time>
      </trkpt>
      <trkpt lat="45.14555" lon="6.7019">
        <ele>2932</ele>
        <time>2026-03-13T11:33:08Z</time>
      </trkpt>
      <trkpt lat="45.14557" lon="6.70193">
        <ele>2933</ele>
        <time>2026-03-13T11:33:14Z</time>
      </trkpt>
      <trkpt lat="45.14559" lon="6.70195">
        <ele>2933</ele>
        <time>2026-03-13T11:33:22Z</time>
      </trkpt>
      <trkpt lat="45.14563" lon="6.70197">
        <ele>2934</ele>
        <time>2026-03-13T11:33:24Z</time>
      </trkpt>
      <trkpt lat="45.1456" lon="6.70203">
        <ele>2936</ele>
        <time>2026-03-13T11:33:38Z</time>
      </trkpt>
      <trkpt lat="45.14542" lon="6.70196">
        <ele>2941</ele>
        <time>2026-03-13T11:34:10Z</time>
      </trkpt>
      <trkpt lat="45.14537" lon="6.70195">
        <ele>2943</ele>
        <time>2026-03-13T11:34:18Z</time>
      </trkpt>
      <trkpt lat="45.14538" lon="6.70196">
        <ele>2943</ele>
        <time>2026-03-13T11:34:26Z</time>
      </trkpt>
      <trkpt lat="45.14531" lon="6.70194">
        <ele>2943</ele>
        <time>2026-03-13T11:34:34Z</time>
      </trkpt>
      <trkpt lat="45.14532" lon="6.70197">
        <ele>2944</ele>
        <time>2026-03-13T11:34:40Z</time>
      </trkpt>
      <trkpt lat="45.14533" lon="6.702">
        <ele>2944</ele>
        <time>2026-03-13T11:34:44Z</time>
      </trkpt>
      <trkpt lat="45.14533" lon="6.70204">
        <ele>2945</ele>
        <time>2026-03-13T11:34:50Z</time>
      </trkpt>
      <trkpt lat="45.14538" lon="6.70212">
        <ele>2946</ele>
        <time>2026-03-13T11:35:04Z</time>
      </trkpt>
      <trkpt lat="45.14538" lon="6.70219">
        <ele>2948</ele>
        <time>2026-03-13T11:35:12Z</time>
      </trkpt>
      <trkpt lat="45.1454" lon="6.70222">
        <ele>2949</ele>
        <time>2026-03-13T11:35:18Z</time>
      </trkpt>
      <trkpt lat="45.14539" lon="6.70229">
        <ele>2949</ele>
        <time>2026-03-13T11:35:28Z</time>
      </trkpt>
      <trkpt lat="45.14541" lon="6.70232">
        <ele>2949</ele>
        <time>2026-03-13T11:35:34Z</time>
      </trkpt>
      <trkpt lat="45.14538" lon="6.70233">
        <ele>2951</ele>
        <time>2026-03-13T11:35:54Z</time>
      </trkpt>
      <trkpt lat="45.14535" lon="6.70234">
        <ele>2953</ele>
        <time>2026-03-13T11:35:58Z</time>
      </trkpt>
      <trkpt lat="45.14531" lon="6.70233">
        <ele>2953</ele>
        <time>2026-03-13T11:36:06Z</time>
      </trkpt>
      <trkpt lat="45.14517" lon="6.70224">
        <ele>2956</ele>
        <time>2026-03-13T11:36:36Z</time>
      </trkpt>
      <trkpt lat="45.14515" lon="6.70224">
        <ele>2957</ele>
        <time>2026-03-13T11:36:40Z</time>
      </trkpt>
      <trkpt lat="45.14515" lon="6.70228">
        <ele>2957</ele>
        <time>2026-03-13T11:37:02Z</time>
      </trkpt>
      <trkpt lat="45.14517" lon="6.70232">
        <ele>2958</ele>
        <time>2026-03-13T11:37:10Z</time>
      </trkpt>
      <trkpt lat="45.14518" lon="6.70235">
        <ele>2958</ele>
        <time>2026-03-13T11:37:16Z</time>
      </trkpt>
      <trkpt lat="45.14521" lon="6.70241">
        <ele>2959</ele>
        <time>2026-03-13T11:37:26Z</time>
      </trkpt>
      <trkpt lat="45.14519" lon="6.70245">
        <ele>2959</ele>
        <time>2026-03-13T11:37:30Z</time>
      </trkpt>
      <trkpt lat="45.14517" lon="6.70258">
        <ele>2962</ele>
        <time>2026-03-13T11:37:42Z</time>
      </trkpt>
      <trkpt lat="45.14517" lon="6.70266">
        <ele>2963</ele>
        <time>2026-03-13T11:37:52Z</time>
      </trkpt>
      <trkpt lat="45.14519" lon="6.70272">
        <ele>2965</ele>
        <time>2026-03-13T11:38:06Z</time>
      </trkpt>
      <trkpt lat="45.14514" lon="6.7027">
        <ele>2966</ele>
        <time>2026-03-13T11:38:34Z</time>
      </trkpt>
      <trkpt lat="45.14512" lon="6.70268">
        <ele>2967</ele>
        <time>2026-03-13T11:38:38Z</time>
      </trkpt>
      <trkpt lat="45.14507" lon="6.70263">
        <ele>2968</ele>
        <time>2026-03-13T11:38:50Z</time>
      </trkpt>
      <trkpt lat="45.14502" lon="6.70261">
        <ele>2970</ele>
        <time>2026-03-13T11:39:02Z</time>
      </trkpt>
      <trkpt lat="45.14499" lon="6.70257">
        <ele>2972</ele>
        <time>2026-03-13T11:39:10Z</time>
      </trkpt>
      <trkpt lat="45.14496" lon="6.70258">
        <ele>2973</ele>
        <time>2026-03-13T11:39:14Z</time>
      </trkpt>
      <trkpt lat="45.14497" lon="6.70263">
        <ele>2974</ele>
        <time>2026-03-13T11:39:32Z</time>
      </trkpt>
      <trkpt lat="45.14497" lon="6.70271">
        <ele>2975</ele>
        <time>2026-03-13T11:39:44Z</time>
      </trkpt>
      <trkpt lat="45.14497" lon="6.70276">
        <ele>2976</ele>
        <time>2026-03-13T11:39:48Z</time>
      </trkpt>
      <trkpt lat="45.145" lon="6.70282">
        <ele>2977</ele>
        <time>2026-03-13T11:39:58Z</time>
      </trkpt>
      <trkpt lat="45.145" lon="6.70286">
        <ele>2978</ele>
        <time>2026-03-13T11:40:02Z</time>
      </trkpt>
      <trkpt lat="45.145" lon="6.7029">
        <ele>2978</ele>
        <time>2026-03-13T11:40:06Z</time>
      </trkpt>
      <trkpt lat="45.14501" lon="6.70294">
        <ele>2979</ele>
        <time>2026-03-13T11:40:12Z</time>
      </trkpt>
      <trkpt lat="45.14501" lon="6.70297">
        <ele>2980</ele>
        <time>2026-03-13T11:40:18Z</time>
      </trkpt>
      <trkpt lat="45.14498" lon="6.70298">
        <ele>2981</ele>
        <time>2026-03-13T11:40:38Z</time>
      </trkpt>
      <trkpt lat="45.14496" lon="6.70296">
        <ele>2981</ele>
        <time>2026-03-13T11:40:42Z</time>
      </trkpt>
      <trkpt lat="45.14491" lon="6.70294">
        <ele>2982</ele>
        <time>2026-03-13T11:40:52Z</time>
      </trkpt>
      <trkpt lat="45.14489" lon="6.70294">
        <ele>2982</ele>
        <time>2026-03-13T11:40:56Z</time>
      </trkpt>
      <trkpt lat="45.14487" lon="6.70292">
        <ele>2983</ele>
        <time>2026-03-13T11:41:02Z</time>
      </trkpt>
      <trkpt lat="45.14484" lon="6.70291">
        <ele>2983</ele>
        <time>2026-03-13T11:41:06Z</time>
      </trkpt>
      <trkpt lat="45.14473" lon="6.70282">
        <ele>2986</ele>
        <time>2026-03-13T11:41:34Z</time>
      </trkpt>
      <trkpt lat="45.14472" lon="6.7028">
        <ele>2986</ele>
        <time>2026-03-13T11:41:38Z</time>
      </trkpt>
      <trkpt lat="45.14474" lon="6.70286">
        <ele>2987</ele>
        <time>2026-03-13T11:42:00Z</time>
      </trkpt>
      <trkpt lat="45.14475" lon="6.70296">
        <ele>2989</ele>
        <time>2026-03-13T11:42:12Z</time>
      </trkpt>
      <trkpt lat="45.14476" lon="6.70301">
        <ele>2991</ele>
        <time>2026-03-13T11:42:18Z</time>
      </trkpt>
      <trkpt lat="45.14477" lon="6.70307">
        <ele>2993</ele>
        <time>2026-03-13T11:42:26Z</time>
      </trkpt>
      <trkpt lat="45.14479" lon="6.70315">
        <ele>2995</ele>
        <time>2026-03-13T11:42:44Z</time>
      </trkpt>
      <trkpt lat="45.14477" lon="6.70318">
        <ele>2995</ele>
        <time>2026-03-13T11:42:58Z</time>
      </trkpt>
      <trkpt lat="45.1446" lon="6.70307">
        <ele>2999</ele>
        <time>2026-03-13T11:43:32Z</time>
      </trkpt>
      <trkpt lat="45.14458" lon="6.70305">
        <ele>3000</ele>
        <time>2026-03-13T11:43:50Z</time>
      </trkpt>
      <trkpt lat="45.14456" lon="6.70303">
        <ele>3001</ele>
        <time>2026-03-13T11:43:54Z</time>
      </trkpt>
      <trkpt lat="45.14457" lon="6.7031">
        <ele>3001</ele>
        <time>2026-03-13T11:44:04Z</time>
      </trkpt>
      <trkpt lat="45.14458" lon="6.70317">
        <ele>3002</ele>
        <time>2026-03-13T11:44:12Z</time>
      </trkpt>
      <trkpt lat="45.1446" lon="6.70331">
        <ele>3003</ele>
        <time>2026-03-13T11:44:32Z</time>
      </trkpt>
      <trkpt lat="45.1446" lon="6.70334">
        <ele>3005</ele>
        <time>2026-03-13T11:44:46Z</time>
      </trkpt>
      <trkpt lat="45.14461" lon="6.70339">
        <ele>3005</ele>
        <time>2026-03-13T11:44:50Z</time>
      </trkpt>
      <trkpt lat="45.14463" lon="6.7035">
        <ele>3006</ele>
        <time>2026-03-13T11:45:06Z</time>
      </trkpt>
      <trkpt lat="45.14465" lon="6.70371">
        <ele>3012</ele>
        <time>2026-03-13T11:45:36Z</time>
      </trkpt>
      <trkpt lat="45.14465" lon="6.70375">
        <ele>3012</ele>
        <time>2026-03-13T11:45:54Z</time>
      </trkpt>
      <trkpt lat="45.14464" lon="6.70386">
        <ele>3014</ele>
        <time>2026-03-13T11:46:08Z</time>
      </trkpt>
      <trkpt lat="45.14464" lon="6.70395">
        <ele>3016</ele>
        <time>2026-03-13T11:46:20Z</time>
      </trkpt>
      <trkpt lat="45.14464" lon="6.704">
        <ele>3016</ele>
        <time>2026-03-13T11:46:24Z</time>
      </trkpt>
      <trkpt lat="45.14466" lon="6.70412">
        <ele>3019</ele>
        <time>2026-03-13T11:46:42Z</time>
      </trkpt>
      <trkpt lat="45.14466" lon="6.7042">
        <ele>3020</ele>
        <time>2026-03-13T11:46:52Z</time>
      </trkpt>
      <trkpt lat="45.14469" lon="6.70425">
        <ele>3021</ele>
        <time>2026-03-13T11:47:04Z</time>
      </trkpt>
      <trkpt lat="45.14474" lon="6.70447">
        <ele>3022</ele>
        <time>2026-03-13T11:47:40Z</time>
      </trkpt>
      <trkpt lat="45.14477" lon="6.70451">
        <ele>3022</ele>
        <time>2026-03-13T11:47:46Z</time>
      </trkpt>
      <trkpt lat="45.14478" lon="6.70453">
        <ele>3022</ele>
        <time>2026-03-13T11:47:50Z</time>
      </trkpt>
      <trkpt lat="45.14479" lon="6.70457">
        <ele>3023</ele>
        <time>2026-03-13T11:47:56Z</time>
      </trkpt>
      <trkpt lat="45.14477" lon="6.70458">
        <ele>3022</ele>
        <time>2026-03-13T11:48:16Z</time>
      </trkpt>
      <trkpt lat="45.14469" lon="6.70454">
        <ele>3024</ele>
        <time>2026-03-13T11:48:30Z</time>
      </trkpt>
      <trkpt lat="45.14467" lon="6.70453">
        <ele>3026</ele>
        <time>2026-03-13T11:48:34Z</time>
      </trkpt>
      <trkpt lat="45.1446" lon="6.70448">
        <ele>3027</ele>
        <time>2026-03-13T11:48:50Z</time>
      </trkpt>
      <trkpt lat="45.1446" lon="6.70448">
        <ele>3028</ele>
        <time>2026-03-13T11:48:58Z</time>
      </trkpt>
      <trkpt lat="45.14458" lon="6.70447">
        <ele>3029</ele>
        <time>2026-03-13T11:49:02Z</time>
      </trkpt>
      <trkpt lat="45.14455" lon="6.70444">
        <ele>3029</ele>
        <time>2026-03-13T11:49:06Z</time>
      </trkpt>
      <trkpt lat="45.14456" lon="6.70449">
        <ele>3030</ele>
        <time>2026-03-13T11:49:18Z</time>
      </trkpt>
      <trkpt lat="45.14457" lon="6.70452">
        <ele>3031</ele>
        <time>2026-03-13T11:49:24Z</time>
      </trkpt>
      <trkpt lat="45.1446" lon="6.70461">
        <ele>3032</ele>
        <time>2026-03-13T11:49:38Z</time>
      </trkpt>
      <trkpt lat="45.14464" lon="6.7047">
        <ele>3033</ele>
        <time>2026-03-13T11:49:52Z</time>
      </trkpt>
      <trkpt lat="45.14461" lon="6.70472">
        <ele>3034</ele>
        <time>2026-03-13T11:50:16Z</time>
      </trkpt>
      <trkpt lat="45.14457" lon="6.70471">
        <ele>3036</ele>
        <time>2026-03-13T11:50:22Z</time>
      </trkpt>
      <trkpt lat="45.14453" lon="6.70468">
        <ele>3037</ele>
        <time>2026-03-13T11:50:30Z</time>
      </trkpt>
      <trkpt lat="45.14451" lon="6.70467">
        <ele>3037</ele>
        <time>2026-03-13T11:50:34Z</time>
      </trkpt>
      <trkpt lat="45.14442" lon="6.70464">
        <ele>3039</ele>
        <time>2026-03-13T11:51:00Z</time>
      </trkpt>
      <trkpt lat="45.14428" lon="6.7045">
        <ele>3043</ele>
        <time>2026-03-13T11:51:26Z</time>
      </trkpt>
      <trkpt lat="45.14422" lon="6.70441">
        <ele>3046</ele>
        <time>2026-03-13T11:51:42Z</time>
      </trkpt>
      <trkpt lat="45.14417" lon="6.70435">
        <ele>3047</ele>
        <time>2026-03-13T11:51:54Z</time>
      </trkpt>
      <trkpt lat="45.14416" lon="6.70433">
        <ele>3047</ele>
        <time>2026-03-13T11:51:58Z</time>
      </trkpt>
      <trkpt lat="45.14412" lon="6.70429">
        <ele>3048</ele>
        <time>2026-03-13T11:52:18Z</time>
      </trkpt>
      <trkpt lat="45.1441" lon="6.70427">
        <ele>3049</ele>
        <time>2026-03-13T11:52:22Z</time>
      </trkpt>
      <trkpt lat="45.14409" lon="6.70424">
        <ele>3049</ele>
        <time>2026-03-13T11:52:26Z</time>
      </trkpt>
      <trkpt lat="45.14408" lon="6.70422">
        <ele>3049</ele>
        <time>2026-03-13T11:52:28Z</time>
      </trkpt>
      <trkpt lat="45.14406" lon="6.70419">
        <ele>3051</ele>
        <time>2026-03-13T11:52:32Z</time>
      </trkpt>
      <trkpt lat="45.14402" lon="6.70416">
        <ele>3052</ele>
        <time>2026-03-13T11:55:21Z</time>
      </trkpt>
      <trkpt lat="45.14397" lon="6.70412">
        <ele>3052</ele>
        <time>2026-03-13T11:55:29Z</time>
      </trkpt>
      <trkpt lat="45.14393" lon="6.70409">
        <ele>3054</ele>
        <time>2026-03-13T11:55:35Z</time>
      </trkpt>
      <trkpt lat="45.1439" lon="6.70408">
        <ele>3054</ele>
        <time>2026-03-13T11:55:41Z</time>
      </trkpt>
      <trkpt lat="45.14382" lon="6.70399">
        <ele>3057</ele>
        <time>2026-03-13T11:56:03Z</time>
      </trkpt>
      <trkpt lat="45.14378" lon="6.70396">
        <ele>3059</ele>
        <time>2026-03-13T11:56:11Z</time>
      </trkpt>
      <trkpt lat="45.14371" lon="6.70394">
        <ele>3060</ele>
        <time>2026-03-13T11:56:19Z</time>
      </trkpt>
      <trkpt lat="45.14366" lon="6.70391">
        <ele>3060</ele>
        <time>2026-03-13T11:56:27Z</time>
      </trkpt>
      <trkpt lat="45.14364" lon="6.7039">
        <ele>3061</ele>
        <time>2026-03-13T11:56:31Z</time>
      </trkpt>
      <trkpt lat="45.14359" lon="6.70386">
        <ele>3062</ele>
        <time>2026-03-13T11:56:39Z</time>
      </trkpt>
      <trkpt lat="45.14356" lon="6.70386">
        <ele>3062</ele>
        <time>2026-03-13T11:56:43Z</time>
      </trkpt>
      <trkpt lat="45.14352" lon="6.70383">
        <ele>3063</ele>
        <time>2026-03-13T11:56:56Z</time>
      </trkpt>
      <trkpt lat="45.14348" lon="6.7038">
        <ele>3064</ele>
        <time>2026-03-13T11:56:59Z</time>
      </trkpt>
      <trkpt lat="45.14343" lon="6.70378">
        <ele>3065</ele>
        <time>2026-03-13T11:57:03Z</time>
      </trkpt>
      <trkpt lat="45.14339" lon="6.70375">
        <ele>3067</ele>
        <time>2026-03-13T11:57:15Z</time>
      </trkpt>
      <trkpt lat="45.14335" lon="6.70374">
        <ele>3067</ele>
        <time>2026-03-13T11:57:21Z</time>
      </trkpt>
      <trkpt lat="45.14332" lon="6.70373">
        <ele>3068</ele>
        <time>2026-03-13T11:57:25Z</time>
      </trkpt>
      <trkpt lat="45.1433" lon="6.70374">
        <ele>3069</ele>
        <time>2026-03-13T11:57:31Z</time>
      </trkpt>
      <trkpt lat="45.14334" lon="6.70377">
        <ele>3068</ele>
        <time>2026-03-13T11:59:31Z</time>
      </trkpt>
      <trkpt lat="45.14334" lon="6.70381">
        <ele>3068</ele>
        <time>2026-03-13T11:59:39Z</time>
      </trkpt>
      <trkpt lat="45.14337" lon="6.70385">
        <ele>3069</ele>
        <time>2026-03-13T11:59:57Z</time>
      </trkpt>
      <trkpt lat="45.14338" lon="6.70387">
        <ele>3070</ele>
        <time>2026-03-13T11:59:59Z</time>
      </trkpt>
      <trkpt lat="45.14348" lon="6.70405">
        <ele>3072</ele>
        <time>2026-03-13T12:00:17Z</time>
      </trkpt>
      <trkpt lat="45.14349" lon="6.70409">
        <ele>3071</ele>
        <time>2026-03-13T12:00:21Z</time>
      </trkpt>
      <trkpt lat="45.1435" lon="6.70412">
        <ele>3072</ele>
        <time>2026-03-13T12:00:25Z</time>
      </trkpt>
      <trkpt lat="45.14351" lon="6.70416">
        <ele>3071</ele>
        <time>2026-03-13T12:00:29Z</time>
      </trkpt>
      <trkpt lat="45.14365" lon="6.70449">
        <ele>3072</ele>
        <time>2026-03-13T12:00:59Z</time>
      </trkpt>
      <trkpt lat="45.14374" lon="6.70469">
        <ele>3073</ele>
        <time>2026-03-13T12:01:31Z</time>
      </trkpt>
      <trkpt lat="45.14386" lon="6.70493">
        <ele>3074</ele>
        <time>2026-03-13T12:02:01Z</time>
      </trkpt>
      <trkpt lat="45.14389" lon="6.70504">
        <ele>3075</ele>
        <time>2026-03-13T12:02:17Z</time>
      </trkpt>
      <trkpt lat="45.14395" lon="6.70521">
        <ele>3079</ele>
        <time>2026-03-13T12:02:37Z</time>
      </trkpt>
      <trkpt lat="45.14398" lon="6.70529">
        <ele>3080</ele>
        <time>2026-03-13T12:02:45Z</time>
      </trkpt>
      <trkpt lat="45.14401" lon="6.70539">
        <ele>3081</ele>
        <time>2026-03-13T12:02:55Z</time>
      </trkpt>
      <trkpt lat="45.14401" lon="6.70541">
        <ele>3081</ele>
        <time>2026-03-13T12:02:59Z</time>
      </trkpt>
      <trkpt lat="45.14403" lon="6.70548">
        <ele>3083</ele>
        <time>2026-03-13T12:03:09Z</time>
      </trkpt>
      <trkpt lat="45.14404" lon="6.7055">
        <ele>3083</ele>
        <time>2026-03-13T12:03:15Z</time>
      </trkpt>
      <trkpt lat="45.14405" lon="6.70553">
        <ele>3083</ele>
        <time>2026-03-13T12:03:19Z</time>
      </trkpt>
      <trkpt lat="45.14406" lon="6.70556">
        <ele>3083</ele>
        <time>2026-03-13T12:03:23Z</time>
      </trkpt>
      <trkpt lat="45.14407" lon="6.70558">
        <ele>3084</ele>
        <time>2026-03-13T12:03:27Z</time>
      </trkpt>
      <trkpt lat="45.14406" lon="6.70561">
        <ele>3084</ele>
        <time>2026-03-13T12:03:31Z</time>
      </trkpt>
      <trkpt lat="45.14406" lon="6.70565">
        <ele>3084</ele>
        <time>2026-03-13T12:03:35Z</time>
      </trkpt>
      <trkpt lat="45.14408" lon="6.7058">
        <ele>3086</ele>
        <time>2026-03-13T12:03:49Z</time>
      </trkpt>
      <trkpt lat="45.14412" lon="6.70588">
        <ele>3086</ele>
        <time>2026-03-13T12:04:33Z</time>
      </trkpt>
      <trkpt lat="45.14415" lon="6.70592">
        <ele>3085</ele>
        <time>2026-03-13T12:04:37Z</time>
      </trkpt>
      <trkpt lat="45.14416" lon="6.70604">
        <ele>3085</ele>
        <time>2026-03-13T12:04:47Z</time>
      </trkpt>
      <trkpt lat="45.14427" lon="6.70616">
        <ele>3083</ele>
        <time>2026-03-13T12:04:57Z</time>
      </trkpt>
      <trkpt lat="45.14456" lon="6.70661">
        <ele>3075</ele>
        <time>2026-03-13T12:05:27Z</time>
      </trkpt>
      <trkpt lat="45.14459" lon="6.70665">
        <ele>3075</ele>
        <time>2026-03-13T12:05:29Z</time>
      </trkpt>
      <trkpt lat="45.14463" lon="6.70671">
        <ele>3074</ele>
        <time>2026-03-13T12:05:35Z</time>
      </trkpt>
      <trkpt lat="45.14464" lon="6.70679">
        <ele>3073</ele>
        <time>2026-03-13T12:05:41Z</time>
      </trkpt>
      <trkpt lat="45.14462" lon="6.70685">
        <ele>3070</ele>
        <time>2026-03-13T12:05:47Z</time>
      </trkpt>
      <trkpt lat="45.14461" lon="6.70689">
        <ele>3070</ele>
        <time>2026-03-13T12:05:51Z</time>
      </trkpt>
      <trkpt lat="45.14462" lon="6.70694">
        <ele>3069</ele>
        <time>2026-03-13T12:05:55Z</time>
      </trkpt>
      <trkpt lat="45.14466" lon="6.70702">
        <ele>3069</ele>
        <time>2026-03-13T12:06:01Z</time>
      </trkpt>
      <trkpt lat="45.14466" lon="6.70704">
        <ele>3069</ele>
        <time>2026-03-13T12:06:03Z</time>
      </trkpt>
      <trkpt lat="45.14466" lon="6.7071">
        <ele>3068</ele>
        <time>2026-03-13T12:06:09Z</time>
      </trkpt>
      <trkpt lat="45.14466" lon="6.70714">
        <ele>3069</ele>
        <time>2026-03-13T12:06:17Z</time>
      </trkpt>
      <trkpt lat="45.14467" lon="6.70719">
        <ele>3069</ele>
        <time>2026-03-13T12:06:21Z</time>
      </trkpt>
      <trkpt lat="45.14468" lon="6.70723">
        <ele>3070</ele>
        <time>2026-03-13T12:06:25Z</time>
      </trkpt>
      <trkpt lat="45.14468" lon="6.70727">
        <ele>3070</ele>
        <time>2026-03-13T12:06:29Z</time>
      </trkpt>
      <trkpt lat="45.14466" lon="6.70734">
        <ele>3070</ele>
        <time>2026-03-13T12:06:37Z</time>
      </trkpt>
      <trkpt lat="45.14466" lon="6.7074">
        <ele>3070</ele>
        <time>2026-03-13T12:06:45Z</time>
      </trkpt>
      <trkpt lat="45.14468" lon="6.70747">
        <ele>3071</ele>
        <time>2026-03-13T12:06:51Z</time>
      </trkpt>
      <trkpt lat="45.14471" lon="6.70754">
        <ele>3071</ele>
        <time>2026-03-13T12:06:57Z</time>
      </trkpt>
      <trkpt lat="45.14473" lon="6.70759">
        <ele>3071</ele>
        <time>2026-03-13T12:07:01Z</time>
      </trkpt>
      <trkpt lat="45.14478" lon="6.70774">
        <ele>3072</ele>
        <time>2026-03-13T12:07:13Z</time>
      </trkpt>
      <trkpt lat="45.14486" lon="6.70791">
        <ele>3073</ele>
        <time>2026-03-13T12:07:29Z</time>
      </trkpt>
      <trkpt lat="45.14493" lon="6.70808">
        <ele>3074</ele>
        <time>2026-03-13T12:07:45Z</time>
      </trkpt>
      <trkpt lat="45.14499" lon="6.70819">
        <ele>3074</ele>
        <time>2026-03-13T12:07:55Z</time>
      </trkpt>
      <trkpt lat="45.14501" lon="6.70824">
        <ele>3075</ele>
        <time>2026-03-13T12:08:17Z</time>
      </trkpt>
      <trkpt lat="45.14503" lon="6.70828">
        <ele>3076</ele>
        <time>2026-03-13T12:08:21Z</time>
      </trkpt>
      <trkpt lat="45.14505" lon="6.70841">
        <ele>3077</ele>
        <time>2026-03-13T12:08:31Z</time>
      </trkpt>
      <trkpt lat="45.14507" lon="6.70845">
        <ele>3077</ele>
        <time>2026-03-13T12:08:35Z</time>
      </trkpt>
      <trkpt lat="45.1451" lon="6.70864">
        <ele>3080</ele>
        <time>2026-03-13T12:08:59Z</time>
      </trkpt>
      <trkpt lat="45.14512" lon="6.70877">
        <ele>3081</ele>
        <time>2026-03-13T12:09:11Z</time>
      </trkpt>
      <trkpt lat="45.14514" lon="6.70891">
        <ele>3082</ele>
        <time>2026-03-13T12:09:23Z</time>
      </trkpt>
      <trkpt lat="45.14515" lon="6.70896">
        <ele>3082</ele>
        <time>2026-03-13T12:09:27Z</time>
      </trkpt>
      <trkpt lat="45.14517" lon="6.70903">
        <ele>3083</ele>
        <time>2026-03-13T12:09:35Z</time>
      </trkpt>
      <trkpt lat="45.14517" lon="6.70905">
        <ele>3083</ele>
        <time>2026-03-13T12:09:37Z</time>
      </trkpt>
      <trkpt lat="45.14513" lon="6.70904">
        <ele>3083</ele>
        <time>2026-03-13T12:09:51Z</time>
      </trkpt>
      <trkpt lat="45.14507" lon="6.70901">
        <ele>3084</ele>
        <time>2026-03-13T12:10:01Z</time>
      </trkpt>
      <trkpt lat="45.14506" lon="6.70899">
        <ele>3084</ele>
        <time>2026-03-13T12:10:05Z</time>
      </trkpt>
      <trkpt lat="45.14503" lon="6.70898">
        <ele>3085</ele>
        <time>2026-03-13T12:10:09Z</time>
      </trkpt>
      <trkpt lat="45.14495" lon="6.70894">
        <ele>3085</ele>
        <time>2026-03-13T12:10:23Z</time>
      </trkpt>
      <trkpt lat="45.1449" lon="6.70893">
        <ele>3087</ele>
        <time>2026-03-13T12:10:37Z</time>
      </trkpt>
      <trkpt lat="45.14482" lon="6.7089">
        <ele>3089</ele>
        <time>2026-03-13T12:10:49Z</time>
      </trkpt>
      <trkpt lat="45.14476" lon="6.70889">
        <ele>3089</ele>
        <time>2026-03-13T12:10:57Z</time>
      </trkpt>
      <trkpt lat="45.14471" lon="6.70888">
        <ele>3089</ele>
        <time>2026-03-13T12:11:03Z</time>
      </trkpt>
      <trkpt lat="45.14464" lon="6.70889">
        <ele>3090</ele>
        <time>2026-03-13T12:11:15Z</time>
      </trkpt>
      <trkpt lat="45.14462" lon="6.7089">
        <ele>3091</ele>
        <time>2026-03-13T12:11:19Z</time>
      </trkpt>
      <trkpt lat="45.14449" lon="6.70892">
        <ele>3092</ele>
        <time>2026-03-13T12:11:51Z</time>
      </trkpt>
      <trkpt lat="45.14445" lon="6.70894">
        <ele>3092</ele>
        <time>2026-03-13T12:11:55Z</time>
      </trkpt>
      <trkpt lat="45.14444" lon="6.70902">
        <ele>3094</ele>
        <time>2026-03-13T12:12:05Z</time>
      </trkpt>
      <trkpt lat="45.14452" lon="6.7091">
        <ele>3097</ele>
        <time>2026-03-13T12:12:33Z</time>
      </trkpt>
      <trkpt lat="45.14457" lon="6.70924">
        <ele>3099</ele>
        <time>2026-03-13T12:12:51Z</time>
      </trkpt>
      <trkpt lat="45.14461" lon="6.70933">
        <ele>3100</ele>
        <time>2026-03-13T12:13:01Z</time>
      </trkpt>
      <trkpt lat="45.14468" lon="6.70957">
        <ele>3102</ele>
        <time>2026-03-13T12:13:31Z</time>
      </trkpt>
      <trkpt lat="45.14469" lon="6.70961">
        <ele>3102</ele>
        <time>2026-03-13T12:13:35Z</time>
      </trkpt>
      <trkpt lat="45.1447" lon="6.70964">
        <ele>3102</ele>
        <time>2026-03-13T12:13:39Z</time>
      </trkpt>
      <trkpt lat="45.14471" lon="6.70968">
        <ele>3103</ele>
        <time>2026-03-13T12:13:43Z</time>
      </trkpt>
      <trkpt lat="45.14473" lon="6.70972">
        <ele>3103</ele>
        <time>2026-03-13T12:13:47Z</time>
      </trkpt>
      <trkpt lat="45.14474" lon="6.70975">
        <ele>3104</ele>
        <time>2026-03-13T12:13:51Z</time>
      </trkpt>
      <trkpt lat="45.1448" lon="6.70994">
        <ele>3105</ele>
        <time>2026-03-13T12:14:17Z</time>
      </trkpt>
      <trkpt lat="45.14481" lon="6.71001">
        <ele>3106</ele>
        <time>2026-03-13T12:14:25Z</time>
      </trkpt>
      <trkpt lat="45.14482" lon="6.71004">
        <ele>3107</ele>
        <time>2026-03-13T12:14:29Z</time>
      </trkpt>
      <trkpt lat="45.14483" lon="6.71007">
        <ele>3107</ele>
        <time>2026-03-13T12:14:33Z</time>
      </trkpt>
      <trkpt lat="45.14483" lon="6.71011">
        <ele>3106</ele>
        <time>2026-03-13T12:14:37Z</time>
      </trkpt>
      <trkpt lat="45.14483" lon="6.71018">
        <ele>3108</ele>
        <time>2026-03-13T12:14:45Z</time>
      </trkpt>
      <trkpt lat="45.14484" lon="6.7102">
        <ele>3108</ele>
        <time>2026-03-13T12:14:49Z</time>
      </trkpt>
      <trkpt lat="45.1449" lon="6.71047">
        <ele>3112</ele>
        <time>2026-03-13T12:15:21Z</time>
      </trkpt>
      <trkpt lat="45.14491" lon="6.71051">
        <ele>3113</ele>
        <time>2026-03-13T12:15:25Z</time>
      </trkpt>
      <trkpt lat="45.14492" lon="6.71055">
        <ele>3113</ele>
        <time>2026-03-13T12:15:29Z</time>
      </trkpt>
      <trkpt lat="45.14493" lon="6.71058">
        <ele>3113</ele>
        <time>2026-03-13T12:15:33Z</time>
      </trkpt>
      <trkpt lat="45.14491" lon="6.7106">
        <ele>3114</ele>
        <time>2026-03-13T12:15:45Z</time>
      </trkpt>
      <trkpt lat="45.14489" lon="6.71059">
        <ele>3114</ele>
        <time>2026-03-13T12:15:49Z</time>
      </trkpt>
      <trkpt lat="45.14486" lon="6.71058">
        <ele>3115</ele>
        <time>2026-03-13T12:15:53Z</time>
      </trkpt>
      <trkpt lat="45.14485" lon="6.71056">
        <ele>3115</ele>
        <time>2026-03-13T12:15:57Z</time>
      </trkpt>
      <trkpt lat="45.1448" lon="6.71054">
        <ele>3116</ele>
        <time>2026-03-13T12:16:09Z</time>
      </trkpt>
      <trkpt lat="45.14478" lon="6.7106">
        <ele>3117</ele>
        <time>2026-03-13T12:16:21Z</time>
      </trkpt>
      <trkpt lat="45.14481" lon="6.71067">
        <ele>3118</ele>
        <time>2026-03-13T12:16:27Z</time>
      </trkpt>
      <trkpt lat="45.14484" lon="6.71073">
        <ele>3120</ele>
        <time>2026-03-13T12:16:35Z</time>
      </trkpt>
      <trkpt lat="45.14486" lon="6.7108">
        <ele>3121</ele>
        <time>2026-03-13T12:16:45Z</time>
      </trkpt>
      <trkpt lat="45.14486" lon="6.71085">
        <ele>3121</ele>
        <time>2026-03-13T12:16:51Z</time>
      </trkpt>
      <trkpt lat="45.14488" lon="6.71092">
        <ele>3122</ele>
        <time>2026-03-13T12:17:05Z</time>
      </trkpt>
      <trkpt lat="45.14491" lon="6.71112">
        <ele>3126</ele>
        <time>2026-03-13T12:17:31Z</time>
      </trkpt>
      <trkpt lat="45.14491" lon="6.71115">
        <ele>3126</ele>
        <time>2026-03-13T12:17:37Z</time>
      </trkpt>
      <trkpt lat="45.14492" lon="6.71121">
        <ele>3127</ele>
        <time>2026-03-13T12:17:45Z</time>
      </trkpt>
      <trkpt lat="45.14492" lon="6.71125">
        <ele>3128</ele>
        <time>2026-03-13T12:17:51Z</time>
      </trkpt>
      <trkpt lat="45.14491" lon="6.71128">
        <ele>3128</ele>
        <time>2026-03-13T12:17:55Z</time>
      </trkpt>
      <trkpt lat="45.14491" lon="6.71134">
        <ele>3129</ele>
        <time>2026-03-13T12:18:03Z</time>
      </trkpt>
      <trkpt lat="45.14488" lon="6.71146">
        <ele>3129</ele>
        <time>2026-03-13T12:19:15Z</time>
      </trkpt>
      <trkpt lat="45.14488" lon="6.71145">
        <ele>3133</ele>
        <time>2026-03-13T12:20:22Z</time>
      </trkpt>
      <trkpt lat="45.14488" lon="6.7115">
        <ele>3134</ele>
        <time>2026-03-13T12:21:32Z</time>
      </trkpt>
      <trkpt lat="45.14485" lon="6.71146">
        <ele>3134</ele>
        <time>2026-03-13T12:23:34Z</time>
      </trkpt>
      <trkpt lat="45.14487" lon="6.71148">
        <ele>3136</ele>
        <time>2026-03-13T12:30:40Z</time>
      </trkpt>
      <trkpt lat="45.14491" lon="6.71147">
        <ele>3136</ele>
        <time>2026-03-13T12:38:06Z</time>
      </trkpt>
      <trkpt lat="45.14489" lon="6.71096">
        <ele>3130</ele>
        <time>2026-03-13T13:02:31Z</time>
      </trkpt>
      <trkpt lat="45.14485" lon="6.71083">
        <ele>3127</ele>
        <time>2026-03-13T13:02:35Z</time>
      </trkpt>
      <trkpt lat="45.14485" lon="6.71076">
        <ele>3125</ele>
        <time>2026-03-13T13:02:39Z</time>
      </trkpt>
      <trkpt lat="45.14475" lon="6.70976">
        <ele>3110</ele>
        <time>2026-03-13T13:03:03Z</time>
      </trkpt>
      <trkpt lat="45.14465" lon="6.70949">
        <ele>3107</ele>
        <time>2026-03-13T13:03:09Z</time>
      </trkpt>
      <trkpt lat="45.14468" lon="6.70943">
        <ele>3106</ele>
        <time>2026-03-13T13:03:11Z</time>
      </trkpt>
      <trkpt lat="45.14484" lon="6.70948">
        <ele>3105</ele>
        <time>2026-03-13T13:03:17Z</time>
      </trkpt>
      <trkpt lat="45.14489" lon="6.70949">
        <ele>3104</ele>
        <time>2026-03-13T13:03:19Z</time>
      </trkpt>
      <trkpt lat="45.14491" lon="6.70943">
        <ele>3102</ele>
        <time>2026-03-13T13:03:21Z</time>
      </trkpt>
      <trkpt lat="45.14488" lon="6.70932">
        <ele>3100</ele>
        <time>2026-03-13T13:03:23Z</time>
      </trkpt>
      <trkpt lat="45.14488" lon="6.70923">
        <ele>3098</ele>
        <time>2026-03-13T13:03:25Z</time>
      </trkpt>
      <trkpt lat="45.14485" lon="6.70894">
        <ele>3096</ele>
        <time>2026-03-13T13:03:31Z</time>
      </trkpt>
      <trkpt lat="45.14484" lon="6.70885">
        <ele>3095</ele>
        <time>2026-03-13T13:03:33Z</time>
      </trkpt>
      <trkpt lat="45.14491" lon="6.70888">
        <ele>3093</ele>
        <time>2026-03-13T13:03:35Z</time>
      </trkpt>
      <trkpt lat="45.14497" lon="6.70885">
        <ele>3091</ele>
        <time>2026-03-13T13:03:37Z</time>
      </trkpt>
      <trkpt lat="45.14488" lon="6.70858">
        <ele>3088</ele>
        <time>2026-03-13T13:03:41Z</time>
      </trkpt>
      <trkpt lat="45.14493" lon="6.70853">
        <ele>3086</ele>
        <time>2026-03-13T13:03:43Z</time>
      </trkpt>
      <trkpt lat="45.14499" lon="6.70854">
        <ele>3084</ele>
        <time>2026-03-13T13:03:45Z</time>
      </trkpt>
      <trkpt lat="45.14504" lon="6.70853">
        <ele>3084</ele>
        <time>2026-03-13T13:03:47Z</time>
      </trkpt>
      <trkpt lat="45.14505" lon="6.70842">
        <ele>3083</ele>
        <time>2026-03-13T13:03:49Z</time>
      </trkpt>
      <trkpt lat="45.14506" lon="6.70828">
        <ele>3081</ele>
        <time>2026-03-13T13:03:51Z</time>
      </trkpt>
      <trkpt lat="45.14505" lon="6.70815">
        <ele>3079</ele>
        <time>2026-03-13T13:03:53Z</time>
      </trkpt>
      <trkpt lat="45.14508" lon="6.70806">
        <ele>3078</ele>
        <time>2026-03-13T13:03:55Z</time>
      </trkpt>
      <trkpt lat="45.14516" lon="6.70805">
        <ele>3076</ele>
        <time>2026-03-13T13:03:57Z</time>
      </trkpt>
      <trkpt lat="45.1452" lon="6.70796">
        <ele>3074</ele>
        <time>2026-03-13T13:03:59Z</time>
      </trkpt>
      <trkpt lat="45.14525" lon="6.7079">
        <ele>3073</ele>
        <time>2026-03-13T13:04:01Z</time>
      </trkpt>
      <trkpt lat="45.14531" lon="6.7079">
        <ele>3071</ele>
        <time>2026-03-13T13:04:03Z</time>
      </trkpt>
      <trkpt lat="45.14536" lon="6.70783">
        <ele>3069</ele>
        <time>2026-03-13T13:04:05Z</time>
      </trkpt>
      <trkpt lat="45.14537" lon="6.70772">
        <ele>3069</ele>
        <time>2026-03-13T13:04:07Z</time>
      </trkpt>
      <trkpt lat="45.14538" lon="6.70765">
        <ele>3068</ele>
        <time>2026-03-13T13:04:09Z</time>
      </trkpt>
      <trkpt lat="45.14542" lon="6.70765">
        <ele>3068</ele>
        <time>2026-03-13T13:04:11Z</time>
      </trkpt>
      <trkpt lat="45.14548" lon="6.70769">
        <ele>3067</ele>
        <time>2026-03-13T13:04:13Z</time>
      </trkpt>
      <trkpt lat="45.14552" lon="6.70764">
        <ele>3067</ele>
        <time>2026-03-13T13:04:15Z</time>
      </trkpt>
      <trkpt lat="45.14557" lon="6.70762">
        <ele>3067</ele>
        <time>2026-03-13T13:04:17Z</time>
      </trkpt>
      <trkpt lat="45.14563" lon="6.70758">
        <ele>3065</ele>
        <time>2026-03-13T13:04:19Z</time>
      </trkpt>
      <trkpt lat="45.14566" lon="6.70752">
        <ele>3064</ele>
        <time>2026-03-13T13:04:21Z</time>
      </trkpt>
      <trkpt lat="45.14572" lon="6.70752">
        <ele>3064</ele>
        <time>2026-03-13T13:04:23Z</time>
      </trkpt>
      <trkpt lat="45.14577" lon="6.70749">
        <ele>3063</ele>
        <time>2026-03-13T13:04:25Z</time>
      </trkpt>
      <trkpt lat="45.14576" lon="6.70753">
        <ele>3062</ele>
        <time>2026-03-13T13:04:59Z</time>
      </trkpt>
      <trkpt lat="45.14575" lon="6.70757">
        <ele>3062</ele>
        <time>2026-03-13T13:05:33Z</time>
      </trkpt>
      <trkpt lat="45.14575" lon="6.70761">
        <ele>3059</ele>
        <time>2026-03-13T13:06:09Z</time>
      </trkpt>
      <trkpt lat="45.14579" lon="6.7078">
        <ele>3056</ele>
        <time>2026-03-13T13:06:13Z</time>
      </trkpt>
      <trkpt lat="45.14583" lon="6.70787">
        <ele>3055</ele>
        <time>2026-03-13T13:06:15Z</time>
      </trkpt>
      <trkpt lat="45.14591" lon="6.70781">
        <ele>3054</ele>
        <time>2026-03-13T13:06:19Z</time>
      </trkpt>
      <trkpt lat="45.14597" lon="6.70774">
        <ele>3054</ele>
        <time>2026-03-13T13:06:23Z</time>
      </trkpt>
      <trkpt lat="45.146" lon="6.7076">
        <ele>3051</ele>
        <time>2026-03-13T13:06:29Z</time>
      </trkpt>
      <trkpt lat="45.14603" lon="6.70747">
        <ele>3048</ele>
        <time>2026-03-13T13:06:39Z</time>
      </trkpt>
      <trkpt lat="45.14607" lon="6.70737">
        <ele>3046</ele>
        <time>2026-03-13T13:06:43Z</time>
      </trkpt>
      <trkpt lat="45.14616" lon="6.70736">
        <ele>3045</ele>
        <time>2026-03-13T13:06:45Z</time>
      </trkpt>
      <trkpt lat="45.14621" lon="6.70732">
        <ele>3044</ele>
        <time>2026-03-13T13:06:47Z</time>
      </trkpt>
      <trkpt lat="45.14627" lon="6.70727">
        <ele>3041</ele>
        <time>2026-03-13T13:06:49Z</time>
      </trkpt>
      <trkpt lat="45.14628" lon="6.70717">
        <ele>3039</ele>
        <time>2026-03-13T13:06:51Z</time>
      </trkpt>
      <trkpt lat="45.14636" lon="6.70706">
        <ele>3034</ele>
        <time>2026-03-13T13:06:55Z</time>
      </trkpt>
      <trkpt lat="45.14642" lon="6.70702">
        <ele>3031</ele>
        <time>2026-03-13T13:06:57Z</time>
      </trkpt>
      <trkpt lat="45.14647" lon="6.70696">
        <ele>3028</ele>
        <time>2026-03-13T13:06:59Z</time>
      </trkpt>
      <trkpt lat="45.14652" lon="6.7069">
        <ele>3025</ele>
        <time>2026-03-13T13:07:01Z</time>
      </trkpt>
      <trkpt lat="45.14669" lon="6.70661">
        <ele>3009</ele>
        <time>2026-03-13T13:07:09Z</time>
      </trkpt>
      <trkpt lat="45.14668" lon="6.70654">
        <ele>3007</ele>
        <time>2026-03-13T13:07:11Z</time>
      </trkpt>
      <trkpt lat="45.14674" lon="6.70631">
        <ele>2995</ele>
        <time>2026-03-13T13:07:17Z</time>
      </trkpt>
      <trkpt lat="45.14676" lon="6.70626">
        <ele>2993</ele>
        <time>2026-03-13T13:07:19Z</time>
      </trkpt>
      <trkpt lat="45.14679" lon="6.70619">
        <ele>2989</ele>
        <time>2026-03-13T13:07:21Z</time>
      </trkpt>
      <trkpt lat="45.14678" lon="6.70612">
        <ele>2987</ele>
        <time>2026-03-13T13:07:23Z</time>
      </trkpt>
      <trkpt lat="45.14699" lon="6.70575">
        <ele>2964</ele>
        <time>2026-03-13T13:07:53Z</time>
      </trkpt>
      <trkpt lat="45.14703" lon="6.70566">
        <ele>2962</ele>
        <time>2026-03-13T13:07:55Z</time>
      </trkpt>
      <trkpt lat="45.14713" lon="6.70546">
        <ele>2950</ele>
        <time>2026-03-13T13:08:01Z</time>
      </trkpt>
      <trkpt lat="45.14717" lon="6.70539">
        <ele>2948</ele>
        <time>2026-03-13T13:08:03Z</time>
      </trkpt>
      <trkpt lat="45.14725" lon="6.70525">
        <ele>2941</ele>
        <time>2026-03-13T13:08:07Z</time>
      </trkpt>
      <trkpt lat="45.14726" lon="6.70519">
        <ele>2936</ele>
        <time>2026-03-13T13:08:09Z</time>
      </trkpt>
      <trkpt lat="45.14724" lon="6.70518">
        <ele>2934</ele>
        <time>2026-03-13T13:08:29Z</time>
      </trkpt>
      <trkpt lat="45.14727" lon="6.70507">
        <ele>2928</ele>
        <time>2026-03-13T13:09:11Z</time>
      </trkpt>
      <trkpt lat="45.14729" lon="6.70499">
        <ele>2925</ele>
        <time>2026-03-13T13:09:13Z</time>
      </trkpt>
      <trkpt lat="45.14732" lon="6.70489">
        <ele>2921</ele>
        <time>2026-03-13T13:09:15Z</time>
      </trkpt>
      <trkpt lat="45.14714" lon="6.70439">
        <ele>2905</ele>
        <time>2026-03-13T13:09:23Z</time>
      </trkpt>
      <trkpt lat="45.14711" lon="6.70426">
        <ele>2902</ele>
        <time>2026-03-13T13:09:25Z</time>
      </trkpt>
      <trkpt lat="45.14716" lon="6.70416">
        <ele>2898</ele>
        <time>2026-03-13T13:09:27Z</time>
      </trkpt>
      <trkpt lat="45.14724" lon="6.70409">
        <ele>2894</ele>
        <time>2026-03-13T13:09:29Z</time>
      </trkpt>
      <trkpt lat="45.14729" lon="6.70402">
        <ele>2891</ele>
        <time>2026-03-13T13:09:31Z</time>
      </trkpt>
      <trkpt lat="45.14743" lon="6.70388">
        <ele>2886</ele>
        <time>2026-03-13T13:09:35Z</time>
      </trkpt>
      <trkpt lat="45.14749" lon="6.70381">
        <ele>2883</ele>
        <time>2026-03-13T13:09:37Z</time>
      </trkpt>
      <trkpt lat="45.14755" lon="6.70375">
        <ele>2880</ele>
        <time>2026-03-13T13:09:39Z</time>
      </trkpt>
      <trkpt lat="45.1476" lon="6.70367">
        <ele>2877</ele>
        <time>2026-03-13T13:09:41Z</time>
      </trkpt>
      <trkpt lat="45.14765" lon="6.70358">
        <ele>2874</ele>
        <time>2026-03-13T13:09:43Z</time>
      </trkpt>
      <trkpt lat="45.14772" lon="6.7035">
        <ele>2870</ele>
        <time>2026-03-13T13:09:45Z</time>
      </trkpt>
      <trkpt lat="45.14779" lon="6.70342">
        <ele>2864</ele>
        <time>2026-03-13T13:09:47Z</time>
      </trkpt>
      <trkpt lat="45.14798" lon="6.70316">
        <ele>2850</ele>
        <time>2026-03-13T13:09:53Z</time>
      </trkpt>
      <trkpt lat="45.14827" lon="6.70284">
        <ele>2832</ele>
        <time>2026-03-13T13:10:01Z</time>
      </trkpt>
      <trkpt lat="45.1483" lon="6.70273">
        <ele>2829</ele>
        <time>2026-03-13T13:10:03Z</time>
      </trkpt>
      <trkpt lat="45.14833" lon="6.70271">
        <ele>2827</ele>
        <time>2026-03-13T13:10:05Z</time>
      </trkpt>
      <trkpt lat="45.14831" lon="6.70269">
        <ele>2825</ele>
        <time>2026-03-13T13:10:15Z</time>
      </trkpt>
      <trkpt lat="45.14844" lon="6.70273">
        <ele>2814</ele>
        <time>2026-03-13T13:13:56Z</time>
      </trkpt>
      <trkpt lat="45.14854" lon="6.70274">
        <ele>2811</ele>
        <time>2026-03-13T13:13:58Z</time>
      </trkpt>
      <trkpt lat="45.14863" lon="6.70274">
        <ele>2808</ele>
        <time>2026-03-13T13:14:00Z</time>
      </trkpt>
      <trkpt lat="45.14871" lon="6.70274">
        <ele>2806</ele>
        <time>2026-03-13T13:14:02Z</time>
      </trkpt>
      <trkpt lat="45.1488" lon="6.70273">
        <ele>2803</ele>
        <time>2026-03-13T13:14:04Z</time>
      </trkpt>
      <trkpt lat="45.14905" lon="6.70265">
        <ele>2790</ele>
        <time>2026-03-13T13:14:10Z</time>
      </trkpt>
      <trkpt lat="45.14914" lon="6.70265">
        <ele>2786</ele>
        <time>2026-03-13T13:14:12Z</time>
      </trkpt>
      <trkpt lat="45.14925" lon="6.70266">
        <ele>2783</ele>
        <time>2026-03-13T13:14:14Z</time>
      </trkpt>
      <trkpt lat="45.14934" lon="6.70265">
        <ele>2779</ele>
        <time>2026-03-13T13:14:16Z</time>
      </trkpt>
      <trkpt lat="45.1494" lon="6.70265">
        <ele>2776</ele>
        <time>2026-03-13T13:14:18Z</time>
      </trkpt>
      <trkpt lat="45.14944" lon="6.70252">
        <ele>2773</ele>
        <time>2026-03-13T13:14:20Z</time>
      </trkpt>
      <trkpt lat="45.14946" lon="6.70236">
        <ele>2769</ele>
        <time>2026-03-13T13:14:22Z</time>
      </trkpt>
      <trkpt lat="45.1495" lon="6.7022">
        <ele>2766</ele>
        <time>2026-03-13T13:14:24Z</time>
      </trkpt>
      <trkpt lat="45.14954" lon="6.70206">
        <ele>2763</ele>
        <time>2026-03-13T13:14:26Z</time>
      </trkpt>
      <trkpt lat="45.14959" lon="6.70194">
        <ele>2761</ele>
        <time>2026-03-13T13:14:28Z</time>
      </trkpt>
      <trkpt lat="45.14964" lon="6.70188">
        <ele>2759</ele>
        <time>2026-03-13T13:14:30Z</time>
      </trkpt>
      <trkpt lat="45.1497" lon="6.70195">
        <ele>2757</ele>
        <time>2026-03-13T13:14:32Z</time>
      </trkpt>
      <trkpt lat="45.14972" lon="6.70203">
        <ele>2755</ele>
        <time>2026-03-13T13:14:34Z</time>
      </trkpt>
      <trkpt lat="45.14977" lon="6.70212">
        <ele>2752</ele>
        <time>2026-03-13T13:14:36Z</time>
      </trkpt>
      <trkpt lat="45.14982" lon="6.70218">
        <ele>2750</ele>
        <time>2026-03-13T13:14:38Z</time>
      </trkpt>
      <trkpt lat="45.14989" lon="6.70224">
        <ele>2748</ele>
        <time>2026-03-13T13:14:40Z</time>
      </trkpt>
      <trkpt lat="45.14999" lon="6.70226">
        <ele>2745</ele>
        <time>2026-03-13T13:14:42Z</time>
      </trkpt>
      <trkpt lat="45.15007" lon="6.70226">
        <ele>2741</ele>
        <time>2026-03-13T13:14:44Z</time>
      </trkpt>
      <trkpt lat="45.15015" lon="6.70231">
        <ele>2738</ele>
        <time>2026-03-13T13:14:46Z</time>
      </trkpt>
      <trkpt lat="45.15022" lon="6.70236">
        <ele>2735</ele>
        <time>2026-03-13T13:14:48Z</time>
      </trkpt>
      <trkpt lat="45.1503" lon="6.70241">
        <ele>2731</ele>
        <time>2026-03-13T13:14:50Z</time>
      </trkpt>
      <trkpt lat="45.15041" lon="6.70238">
        <ele>2727</ele>
        <time>2026-03-13T13:14:52Z</time>
      </trkpt>
      <trkpt lat="45.15051" lon="6.70235">
        <ele>2724</ele>
        <time>2026-03-13T13:14:54Z</time>
      </trkpt>
      <trkpt lat="45.15066" lon="6.70227">
        <ele>2720</ele>
        <time>2026-03-13T13:15:00Z</time>
      </trkpt>
      <trkpt lat="45.15071" lon="6.70225">
        <ele>2719</ele>
        <time>2026-03-13T13:15:02Z</time>
      </trkpt>
      <trkpt lat="45.15078" lon="6.70224">
        <ele>2719</ele>
        <time>2026-03-13T13:16:34Z</time>
      </trkpt>
      <trkpt lat="45.15085" lon="6.70224">
        <ele>2718</ele>
        <time>2026-03-13T13:16:36Z</time>
      </trkpt>
      <trkpt lat="45.15093" lon="6.70223">
        <ele>2715</ele>
        <time>2026-03-13T13:16:38Z</time>
      </trkpt>
      <trkpt lat="45.1511" lon="6.70219">
        <ele>2711</ele>
        <time>2026-03-13T13:16:42Z</time>
      </trkpt>
      <trkpt lat="45.15126" lon="6.70209">
        <ele>2707</ele>
        <time>2026-03-13T13:16:46Z</time>
      </trkpt>
      <trkpt lat="45.15136" lon="6.70205">
        <ele>2704</ele>
        <time>2026-03-13T13:16:48Z</time>
      </trkpt>
      <trkpt lat="45.15145" lon="6.70203">
        <ele>2701</ele>
        <time>2026-03-13T13:16:50Z</time>
      </trkpt>
      <trkpt lat="45.15155" lon="6.702">
        <ele>2698</ele>
        <time>2026-03-13T13:16:52Z</time>
      </trkpt>
      <trkpt lat="45.15164" lon="6.70198">
        <ele>2693</ele>
        <time>2026-03-13T13:16:54Z</time>
      </trkpt>
      <trkpt lat="45.15173" lon="6.70196">
        <ele>2689</ele>
        <time>2026-03-13T13:16:56Z</time>
      </trkpt>
      <trkpt lat="45.15184" lon="6.70197">
        <ele>2686</ele>
        <time>2026-03-13T13:16:58Z</time>
      </trkpt>
      <trkpt lat="45.15193" lon="6.70198">
        <ele>2683</ele>
        <time>2026-03-13T13:17:00Z</time>
      </trkpt>
      <trkpt lat="45.15201" lon="6.70201">
        <ele>2680</ele>
        <time>2026-03-13T13:17:02Z</time>
      </trkpt>
      <trkpt lat="45.15217" lon="6.70202">
        <ele>2676</ele>
        <time>2026-03-13T13:17:06Z</time>
      </trkpt>
      <trkpt lat="45.15219" lon="6.70199">
        <ele>2673</ele>
        <time>2026-03-13T13:17:47Z</time>
      </trkpt>
      <trkpt lat="45.1522" lon="6.70201">
        <ele>2669</ele>
        <time>2026-03-13T13:23:11Z</time>
      </trkpt>
      <trkpt lat="45.15216" lon="6.70203">
        <ele>2669</ele>
        <time>2026-03-13T13:25:23Z</time>
      </trkpt>
      <trkpt lat="45.15215" lon="6.70208">
        <ele>2669</ele>
        <time>2026-03-13T13:26:01Z</time>
      </trkpt>
      <trkpt lat="45.15219" lon="6.70207">
        <ele>2669</ele>
        <time>2026-03-13T13:26:49Z</time>
      </trkpt>
      <trkpt lat="45.15225" lon="6.70206">
        <ele>2669</ele>
        <time>2026-03-13T13:27:01Z</time>
      </trkpt>
      <trkpt lat="45.15229" lon="6.70206">
        <ele>2672</ele>
        <time>2026-03-13T13:27:07Z</time>
      </trkpt>
      <trkpt lat="45.15233" lon="6.70204">
        <ele>2673</ele>
        <time>2026-03-13T13:27:15Z</time>
      </trkpt>
      <trkpt lat="45.15235" lon="6.70211">
        <ele>2676</ele>
        <time>2026-03-13T13:27:37Z</time>
      </trkpt>
      <trkpt lat="45.15235" lon="6.70214">
        <ele>2678</ele>
        <time>2026-03-13T13:27:43Z</time>
      </trkpt>
      <trkpt lat="45.15232" lon="6.70216">
        <ele>2679</ele>
        <time>2026-03-13T13:27:49Z</time>
      </trkpt>
      <trkpt lat="45.15229" lon="6.70231">
        <ele>2682</ele>
        <time>2026-03-13T13:28:15Z</time>
      </trkpt>
      <trkpt lat="45.15226" lon="6.70237">
        <ele>2682</ele>
        <time>2026-03-13T13:28:23Z</time>
      </trkpt>
      <trkpt lat="45.15221" lon="6.70249">
        <ele>2686</ele>
        <time>2026-03-13T13:28:51Z</time>
      </trkpt>
      <trkpt lat="45.15221" lon="6.70253">
        <ele>2687</ele>
        <time>2026-03-13T13:28:55Z</time>
      </trkpt>
      <trkpt lat="45.15222" lon="6.70253">
        <ele>2688</ele>
        <time>2026-03-13T13:29:11Z</time>
      </trkpt>
      <trkpt lat="45.1523" lon="6.70251">
        <ele>2688</ele>
        <time>2026-03-13T13:29:27Z</time>
      </trkpt>
      <trkpt lat="45.15244" lon="6.70245">
        <ele>2688</ele>
        <time>2026-03-13T13:29:57Z</time>
      </trkpt>
      <trkpt lat="45.15247" lon="6.7024">
        <ele>2688</ele>
        <time>2026-03-13T13:30:05Z</time>
      </trkpt>
      <trkpt lat="45.1525" lon="6.70237">
        <ele>2688</ele>
        <time>2026-03-13T13:30:11Z</time>
      </trkpt>
      <trkpt lat="45.1525" lon="6.70245">
        <ele>2689</ele>
        <time>2026-03-13T13:30:27Z</time>
      </trkpt>
      <trkpt lat="45.15248" lon="6.70257">
        <ele>2695</ele>
        <time>2026-03-13T13:30:39Z</time>
      </trkpt>
      <trkpt lat="45.15254" lon="6.7026">
        <ele>2700</ele>
        <time>2026-03-13T13:30:59Z</time>
      </trkpt>
      <trkpt lat="45.15258" lon="6.70256">
        <ele>2701</ele>
        <time>2026-03-13T13:31:05Z</time>
      </trkpt>
      <trkpt lat="45.15265" lon="6.70247">
        <ele>2703</ele>
        <time>2026-03-13T13:31:23Z</time>
      </trkpt>
      <trkpt lat="45.15268" lon="6.70244">
        <ele>2703</ele>
        <time>2026-03-13T13:31:27Z</time>
      </trkpt>
      <trkpt lat="45.15272" lon="6.70236">
        <ele>2703</ele>
        <time>2026-03-13T13:31:39Z</time>
      </trkpt>
      <trkpt lat="45.15275" lon="6.70233">
        <ele>2704</ele>
        <time>2026-03-13T13:31:47Z</time>
      </trkpt>
      <trkpt lat="45.15275" lon="6.70231">
        <ele>2706</ele>
        <time>2026-03-13T13:33:04Z</time>
      </trkpt>
      <trkpt lat="45.15277" lon="6.70229">
        <ele>2706</ele>
        <time>2026-03-13T13:33:10Z</time>
      </trkpt>
      <trkpt lat="45.15279" lon="6.70226">
        <ele>2707</ele>
        <time>2026-03-13T13:33:14Z</time>
      </trkpt>
      <trkpt lat="45.15284" lon="6.70223">
        <ele>2706</ele>
        <time>2026-03-13T13:33:22Z</time>
      </trkpt>
      <trkpt lat="45.15286" lon="6.70221">
        <ele>2706</ele>
        <time>2026-03-13T13:33:28Z</time>
      </trkpt>
      <trkpt lat="45.15291" lon="6.70219">
        <ele>2707</ele>
        <time>2026-03-13T13:33:36Z</time>
      </trkpt>
      <trkpt lat="45.15294" lon="6.70217">
        <ele>2707</ele>
        <time>2026-03-13T13:33:44Z</time>
      </trkpt>
      <trkpt lat="45.15298" lon="6.70216">
        <ele>2708</ele>
        <time>2026-03-13T13:33:48Z</time>
      </trkpt>
      <trkpt lat="45.15306" lon="6.70217">
        <ele>2710</ele>
        <time>2026-03-13T13:34:02Z</time>
      </trkpt>
      <trkpt lat="45.15313" lon="6.70214">
        <ele>2713</ele>
        <time>2026-03-13T13:34:16Z</time>
      </trkpt>
      <trkpt lat="45.1532" lon="6.70214">
        <ele>2715</ele>
        <time>2026-03-13T13:34:30Z</time>
      </trkpt>
      <trkpt lat="45.15324" lon="6.70218">
        <ele>2716</ele>
        <time>2026-03-13T13:34:38Z</time>
      </trkpt>
      <trkpt lat="45.15333" lon="6.70224">
        <ele>2719</ele>
        <time>2026-03-13T13:34:56Z</time>
      </trkpt>
      <trkpt lat="45.15342" lon="6.70234">
        <ele>2721</ele>
        <time>2026-03-13T13:35:14Z</time>
      </trkpt>
      <trkpt lat="45.15342" lon="6.70238">
        <ele>2720</ele>
        <time>2026-03-13T13:35:18Z</time>
      </trkpt>
      <trkpt lat="45.15344" lon="6.70239">
        <ele>2720</ele>
        <time>2026-03-13T13:35:22Z</time>
      </trkpt>
      <trkpt lat="45.15347" lon="6.70241">
        <ele>2720</ele>
        <time>2026-03-13T13:35:26Z</time>
      </trkpt>
      <trkpt lat="45.15348" lon="6.70243">
        <ele>2720</ele>
        <time>2026-03-13T13:35:30Z</time>
      </trkpt>
      <trkpt lat="45.15354" lon="6.70253">
        <ele>2720</ele>
        <time>2026-03-13T13:35:48Z</time>
      </trkpt>
      <trkpt lat="45.15356" lon="6.70255">
        <ele>2721</ele>
        <time>2026-03-13T13:35:52Z</time>
      </trkpt>
      <trkpt lat="45.15361" lon="6.70257">
        <ele>2723</ele>
        <time>2026-03-13T13:36:02Z</time>
      </trkpt>
      <trkpt lat="45.15366" lon="6.70257">
        <ele>2725</ele>
        <time>2026-03-13T13:36:10Z</time>
      </trkpt>
      <trkpt lat="45.1537" lon="6.70259">
        <ele>2727</ele>
        <time>2026-03-13T13:36:16Z</time>
      </trkpt>
      <trkpt lat="45.15373" lon="6.70263">
        <ele>2729</ele>
        <time>2026-03-13T13:36:28Z</time>
      </trkpt>
      <trkpt lat="45.15376" lon="6.70264">
        <ele>2729</ele>
        <time>2026-03-13T13:36:34Z</time>
      </trkpt>
      <trkpt lat="45.15381" lon="6.70274">
        <ele>2729</ele>
        <time>2026-03-13T13:36:50Z</time>
      </trkpt>
      <trkpt lat="45.15382" lon="6.70289">
        <ele>2728</ele>
        <time>2026-03-13T13:37:08Z</time>
      </trkpt>
      <trkpt lat="45.15386" lon="6.70292">
        <ele>2729</ele>
        <time>2026-03-13T13:37:18Z</time>
      </trkpt>
      <trkpt lat="45.15392" lon="6.70295">
        <ele>2732</ele>
        <time>2026-03-13T13:37:26Z</time>
      </trkpt>
      <trkpt lat="45.15396" lon="6.70296">
        <ele>2734</ele>
        <time>2026-03-13T13:37:36Z</time>
      </trkpt>
      <trkpt lat="45.15399" lon="6.70294">
        <ele>2734</ele>
        <time>2026-03-13T13:37:40Z</time>
      </trkpt>
      <trkpt lat="45.154" lon="6.70293">
        <ele>2735</ele>
        <time>2026-03-13T13:37:44Z</time>
      </trkpt>
      <trkpt lat="45.15402" lon="6.70288">
        <ele>2735</ele>
        <time>2026-03-13T13:37:48Z</time>
      </trkpt>
      <trkpt lat="45.15411" lon="6.70277">
        <ele>2738</ele>
        <time>2026-03-13T13:38:10Z</time>
      </trkpt>
      <trkpt lat="45.15413" lon="6.70276">
        <ele>2738</ele>
        <time>2026-03-13T13:38:14Z</time>
      </trkpt>
      <trkpt lat="45.15413" lon="6.70275">
        <ele>2741</ele>
        <time>2026-03-13T13:39:14Z</time>
      </trkpt>
      <trkpt lat="45.15417" lon="6.70272">
        <ele>2740</ele>
        <time>2026-03-13T13:39:44Z</time>
      </trkpt>
      <trkpt lat="45.15419" lon="6.70272">
        <ele>2740</ele>
        <time>2026-03-13T13:39:48Z</time>
      </trkpt>
      <trkpt lat="45.15426" lon="6.70266">
        <ele>2741</ele>
        <time>2026-03-13T13:40:02Z</time>
      </trkpt>
      <trkpt lat="45.15428" lon="6.70266">
        <ele>2742</ele>
        <time>2026-03-13T13:40:18Z</time>
      </trkpt>
      <trkpt lat="45.15434" lon="6.70266">
        <ele>2744</ele>
        <time>2026-03-13T13:40:28Z</time>
      </trkpt>
      <trkpt lat="45.15439" lon="6.70266">
        <ele>2744</ele>
        <time>2026-03-13T13:40:38Z</time>
      </trkpt>
      <trkpt lat="45.15444" lon="6.70267">
        <ele>2745</ele>
        <time>2026-03-13T13:40:44Z</time>
      </trkpt>
      <trkpt lat="45.15449" lon="6.70266">
        <ele>2745</ele>
        <time>2026-03-13T13:40:50Z</time>
      </trkpt>
      <trkpt lat="45.15461" lon="6.7027">
        <ele>2747</ele>
        <time>2026-03-13T13:41:12Z</time>
      </trkpt>
      <trkpt lat="45.15462" lon="6.70272">
        <ele>2748</ele>
        <time>2026-03-13T13:41:16Z</time>
      </trkpt>
      <trkpt lat="45.15461" lon="6.70276">
        <ele>2748</ele>
        <time>2026-03-13T13:41:22Z</time>
      </trkpt>
      <trkpt lat="45.1546" lon="6.70281">
        <ele>2749</ele>
        <time>2026-03-13T13:41:32Z</time>
      </trkpt>
      <trkpt lat="45.15459" lon="6.70287">
        <ele>2750</ele>
        <time>2026-03-13T13:41:40Z</time>
      </trkpt>
      <trkpt lat="45.15457" lon="6.70291">
        <ele>2751</ele>
        <time>2026-03-13T13:41:44Z</time>
      </trkpt>
      <trkpt lat="45.15456" lon="6.70295">
        <ele>2751</ele>
        <time>2026-03-13T13:41:48Z</time>
      </trkpt>
      <trkpt lat="45.1545" lon="6.70307">
        <ele>2755</ele>
        <time>2026-03-13T13:42:20Z</time>
      </trkpt>
      <trkpt lat="45.15446" lon="6.70315">
        <ele>2756</ele>
        <time>2026-03-13T13:42:28Z</time>
      </trkpt>
      <trkpt lat="45.15444" lon="6.70318">
        <ele>2756</ele>
        <time>2026-03-13T13:42:32Z</time>
      </trkpt>
      <trkpt lat="45.15441" lon="6.70325">
        <ele>2757</ele>
        <time>2026-03-13T13:42:42Z</time>
      </trkpt>
      <trkpt lat="45.15439" lon="6.70327">
        <ele>2758</ele>
        <time>2026-03-13T13:42:46Z</time>
      </trkpt>
      <trkpt lat="45.1545" lon="6.70324">
        <ele>2760</ele>
        <time>2026-03-13T13:43:16Z</time>
      </trkpt>
      <trkpt lat="45.15458" lon="6.70323">
        <ele>2762</ele>
        <time>2026-03-13T13:43:30Z</time>
      </trkpt>
      <trkpt lat="45.15463" lon="6.70325">
        <ele>2763</ele>
        <time>2026-03-13T13:43:38Z</time>
      </trkpt>
      <trkpt lat="45.15468" lon="6.70322">
        <ele>2764</ele>
        <time>2026-03-13T13:44:00Z</time>
      </trkpt>
      <trkpt lat="45.15472" lon="6.7032">
        <ele>2765</ele>
        <time>2026-03-13T13:44:08Z</time>
      </trkpt>
      <trkpt lat="45.15476" lon="6.70319">
        <ele>2767</ele>
        <time>2026-03-13T13:44:16Z</time>
      </trkpt>
      <trkpt lat="45.15483" lon="6.70315">
        <ele>2767</ele>
        <time>2026-03-13T13:44:28Z</time>
      </trkpt>
      <trkpt lat="45.15486" lon="6.70315">
        <ele>2767</ele>
        <time>2026-03-13T13:44:34Z</time>
      </trkpt>
      <trkpt lat="45.15488" lon="6.70314">
        <ele>2768</ele>
        <time>2026-03-13T13:44:38Z</time>
      </trkpt>
      <trkpt lat="45.15493" lon="6.70312">
        <ele>2769</ele>
        <time>2026-03-13T13:44:52Z</time>
      </trkpt>
      <trkpt lat="45.15498" lon="6.70312">
        <ele>2771</ele>
        <time>2026-03-13T13:45:00Z</time>
      </trkpt>
      <trkpt lat="45.15504" lon="6.7031">
        <ele>2772</ele>
        <time>2026-03-13T13:45:08Z</time>
      </trkpt>
      <trkpt lat="45.15506" lon="6.7031">
        <ele>2773</ele>
        <time>2026-03-13T13:45:14Z</time>
      </trkpt>
      <trkpt lat="45.15508" lon="6.70309">
        <ele>2774</ele>
        <time>2026-03-13T13:45:18Z</time>
      </trkpt>
      <trkpt lat="45.15516" lon="6.70307">
        <ele>2775</ele>
        <time>2026-03-13T13:45:40Z</time>
      </trkpt>
      <trkpt lat="45.15521" lon="6.70308">
        <ele>2776</ele>
        <time>2026-03-13T13:45:50Z</time>
      </trkpt>
      <trkpt lat="45.1553" lon="6.70308">
        <ele>2779</ele>
        <time>2026-03-13T13:46:08Z</time>
      </trkpt>
      <trkpt lat="45.15533" lon="6.70308">
        <ele>2779</ele>
        <time>2026-03-13T13:46:12Z</time>
      </trkpt>
      <trkpt lat="45.15535" lon="6.70308">
        <ele>2780</ele>
        <time>2026-03-13T13:46:16Z</time>
      </trkpt>
      <trkpt lat="45.15541" lon="6.70308">
        <ele>2780</ele>
        <time>2026-03-13T13:46:26Z</time>
      </trkpt>
      <trkpt lat="45.15545" lon="6.70309">
        <ele>2780</ele>
        <time>2026-03-13T13:46:34Z</time>
      </trkpt>
      <trkpt lat="45.1555" lon="6.70307">
        <ele>2781</ele>
        <time>2026-03-13T13:46:40Z</time>
      </trkpt>
      <trkpt lat="45.15556" lon="6.70306">
        <ele>2783</ele>
        <time>2026-03-13T13:46:52Z</time>
      </trkpt>
      <trkpt lat="45.15565" lon="6.70305">
        <ele>2785</ele>
        <time>2026-03-13T13:47:08Z</time>
      </trkpt>
      <trkpt lat="45.15567" lon="6.70308">
        <ele>2786</ele>
        <time>2026-03-13T13:47:14Z</time>
      </trkpt>
      <trkpt lat="45.15572" lon="6.70307">
        <ele>2787</ele>
        <time>2026-03-13T13:47:22Z</time>
      </trkpt>
      <trkpt lat="45.15574" lon="6.70308">
        <ele>2788</ele>
        <time>2026-03-13T13:48:10Z</time>
      </trkpt>
      <trkpt lat="45.15592" lon="6.70315">
        <ele>2791</ele>
        <time>2026-03-13T13:48:42Z</time>
      </trkpt>
      <trkpt lat="45.15601" lon="6.70319">
        <ele>2795</ele>
        <time>2026-03-13T13:49:00Z</time>
      </trkpt>
      <trkpt lat="45.15602" lon="6.70324">
        <ele>2795</ele>
        <time>2026-03-13T13:49:08Z</time>
      </trkpt>
      <trkpt lat="45.156" lon="6.70326">
        <ele>2796</ele>
        <time>2026-03-13T13:49:12Z</time>
      </trkpt>
      <trkpt lat="45.15593" lon="6.70336">
        <ele>2800</ele>
        <time>2026-03-13T13:49:32Z</time>
      </trkpt>
      <trkpt lat="45.15591" lon="6.70338">
        <ele>2800</ele>
        <time>2026-03-13T13:49:36Z</time>
      </trkpt>
      <trkpt lat="45.15589" lon="6.70341">
        <ele>2801</ele>
        <time>2026-03-13T13:49:42Z</time>
      </trkpt>
      <trkpt lat="45.15587" lon="6.70346">
        <ele>2801</ele>
        <time>2026-03-13T13:49:48Z</time>
      </trkpt>
      <trkpt lat="45.15579" lon="6.70348">
        <ele>2803</ele>
        <time>2026-03-13T13:50:06Z</time>
      </trkpt>
      <trkpt lat="45.15576" lon="6.70349">
        <ele>2804</ele>
        <time>2026-03-13T13:50:10Z</time>
      </trkpt>
      <trkpt lat="45.15579" lon="6.70352">
        <ele>2803</ele>
        <time>2026-03-13T13:50:28Z</time>
      </trkpt>
      <trkpt lat="45.15582" lon="6.70354">
        <ele>2803</ele>
        <time>2026-03-13T13:50:34Z</time>
      </trkpt>
      <trkpt lat="45.15584" lon="6.70355">
        <ele>2803</ele>
        <time>2026-03-13T13:50:38Z</time>
      </trkpt>
      <trkpt lat="45.15587" lon="6.70357">
        <ele>2804</ele>
        <time>2026-03-13T13:50:44Z</time>
      </trkpt>
      <trkpt lat="45.15591" lon="6.70358">
        <ele>2806</ele>
        <time>2026-03-13T13:50:54Z</time>
      </trkpt>
      <trkpt lat="45.15599" lon="6.70362">
        <ele>2807</ele>
        <time>2026-03-13T13:51:06Z</time>
      </trkpt>
      <trkpt lat="45.15604" lon="6.70365">
        <ele>2808</ele>
        <time>2026-03-13T13:51:14Z</time>
      </trkpt>
      <trkpt lat="45.15606" lon="6.70368">
        <ele>2809</ele>
        <time>2026-03-13T13:51:20Z</time>
      </trkpt>
      <trkpt lat="45.1561" lon="6.70371">
        <ele>2811</ele>
        <time>2026-03-13T13:51:30Z</time>
      </trkpt>
      <trkpt lat="45.15614" lon="6.70375">
        <ele>2813</ele>
        <time>2026-03-13T13:51:38Z</time>
      </trkpt>
      <trkpt lat="45.15622" lon="6.70381">
        <ele>2814</ele>
        <time>2026-03-13T13:51:54Z</time>
      </trkpt>
      <trkpt lat="45.15625" lon="6.70384">
        <ele>2814</ele>
        <time>2026-03-13T13:52:04Z</time>
      </trkpt>
      <trkpt lat="45.15628" lon="6.70388">
        <ele>2814</ele>
        <time>2026-03-13T13:52:12Z</time>
      </trkpt>
      <trkpt lat="45.15634" lon="6.70391">
        <ele>2816</ele>
        <time>2026-03-13T13:52:24Z</time>
      </trkpt>
      <trkpt lat="45.15636" lon="6.70392">
        <ele>2816</ele>
        <time>2026-03-13T13:52:28Z</time>
      </trkpt>
      <trkpt lat="45.15633" lon="6.70396">
        <ele>2818</ele>
        <time>2026-03-13T13:52:58Z</time>
      </trkpt>
      <trkpt lat="45.15619" lon="6.70405">
        <ele>2820</ele>
        <time>2026-03-13T13:53:26Z</time>
      </trkpt>
      <trkpt lat="45.15603" lon="6.70417">
        <ele>2823</ele>
        <time>2026-03-13T13:53:58Z</time>
      </trkpt>
      <trkpt lat="45.15601" lon="6.7042">
        <ele>2823</ele>
        <time>2026-03-13T13:54:04Z</time>
      </trkpt>
      <trkpt lat="45.156" lon="6.70423">
        <ele>2824</ele>
        <time>2026-03-13T13:54:08Z</time>
      </trkpt>
      <trkpt lat="45.156" lon="6.7043">
        <ele>2825</ele>
        <time>2026-03-13T13:54:18Z</time>
      </trkpt>
      <trkpt lat="45.15601" lon="6.70433">
        <ele>2825</ele>
        <time>2026-03-13T13:54:22Z</time>
      </trkpt>
      <trkpt lat="45.15606" lon="6.70439">
        <ele>2825</ele>
        <time>2026-03-13T13:54:34Z</time>
      </trkpt>
      <trkpt lat="45.15617" lon="6.70443">
        <ele>2828</ele>
        <time>2026-03-13T13:55:02Z</time>
      </trkpt>
      <trkpt lat="45.1562" lon="6.70444">
        <ele>2829</ele>
        <time>2026-03-13T13:55:06Z</time>
      </trkpt>
      <trkpt lat="45.15625" lon="6.70447">
        <ele>2829</ele>
        <time>2026-03-13T13:55:40Z</time>
      </trkpt>
      <trkpt lat="45.15633" lon="6.7045">
        <ele>2831</ele>
        <time>2026-03-13T13:55:54Z</time>
      </trkpt>
      <trkpt lat="45.15636" lon="6.70451">
        <ele>2832</ele>
        <time>2026-03-13T13:55:58Z</time>
      </trkpt>
      <trkpt lat="45.15653" lon="6.70452">
        <ele>2836</ele>
        <time>2026-03-13T13:56:28Z</time>
      </trkpt>
      <trkpt lat="45.1566" lon="6.70453">
        <ele>2838</ele>
        <time>2026-03-13T13:56:42Z</time>
      </trkpt>
      <trkpt lat="45.15664" lon="6.70452">
        <ele>2838</ele>
        <time>2026-03-13T13:56:46Z</time>
      </trkpt>
      <trkpt lat="45.15667" lon="6.70455">
        <ele>2839</ele>
        <time>2026-03-13T13:57:02Z</time>
      </trkpt>
      <trkpt lat="45.1568" lon="6.70457">
        <ele>2843</ele>
        <time>2026-03-13T13:57:22Z</time>
      </trkpt>
      <trkpt lat="45.15682" lon="6.70457">
        <ele>2843</ele>
        <time>2026-03-13T13:57:26Z</time>
      </trkpt>
      <trkpt lat="45.15681" lon="6.70459">
        <ele>2843</ele>
        <time>2026-03-13T13:57:54Z</time>
      </trkpt>
      <trkpt lat="45.15677" lon="6.70461">
        <ele>2843</ele>
        <time>2026-03-13T13:58:02Z</time>
      </trkpt>
      <trkpt lat="45.15675" lon="6.70464">
        <ele>2844</ele>
        <time>2026-03-13T13:58:06Z</time>
      </trkpt>
      <trkpt lat="45.1567" lon="6.70467">
        <ele>2846</ele>
        <time>2026-03-13T13:58:14Z</time>
      </trkpt>
      <trkpt lat="45.15668" lon="6.70472">
        <ele>2846</ele>
        <time>2026-03-13T13:58:22Z</time>
      </trkpt>
      <trkpt lat="45.15664" lon="6.70475">
        <ele>2847</ele>
        <time>2026-03-13T13:58:32Z</time>
      </trkpt>
      <trkpt lat="45.15662" lon="6.70483">
        <ele>2849</ele>
        <time>2026-03-13T13:58:44Z</time>
      </trkpt>
      <trkpt lat="45.15661" lon="6.7049">
        <ele>2850</ele>
        <time>2026-03-13T13:58:52Z</time>
      </trkpt>
      <trkpt lat="45.15658" lon="6.70496">
        <ele>2851</ele>
        <time>2026-03-13T13:59:04Z</time>
      </trkpt>
      <trkpt lat="45.15662" lon="6.70493">
        <ele>2852</ele>
        <time>2026-03-13T13:59:20Z</time>
      </trkpt>
      <trkpt lat="45.15665" lon="6.70493">
        <ele>2852</ele>
        <time>2026-03-13T13:59:26Z</time>
      </trkpt>
      <trkpt lat="45.15668" lon="6.70492">
        <ele>2852</ele>
        <time>2026-03-13T13:59:30Z</time>
      </trkpt>
      <trkpt lat="45.15683" lon="6.70495">
        <ele>2855</ele>
        <time>2026-03-13T14:00:04Z</time>
      </trkpt>
      <trkpt lat="45.15688" lon="6.70495">
        <ele>2856</ele>
        <time>2026-03-13T14:00:14Z</time>
      </trkpt>
      <trkpt lat="45.15701" lon="6.70497">
        <ele>2859</ele>
        <time>2026-03-13T14:00:52Z</time>
      </trkpt>
      <trkpt lat="45.15708" lon="6.70499">
        <ele>2860</ele>
        <time>2026-03-13T14:01:04Z</time>
      </trkpt>
      <trkpt lat="45.1571" lon="6.70501">
        <ele>2860</ele>
        <time>2026-03-13T14:01:08Z</time>
      </trkpt>
      <trkpt lat="45.15711" lon="6.70503">
        <ele>2861</ele>
        <time>2026-03-13T14:01:12Z</time>
      </trkpt>
      <trkpt lat="45.15717" lon="6.70509">
        <ele>2863</ele>
        <time>2026-03-13T14:01:24Z</time>
      </trkpt>
      <trkpt lat="45.15718" lon="6.70516">
        <ele>2863</ele>
        <time>2026-03-13T14:01:34Z</time>
      </trkpt>
      <trkpt lat="45.15721" lon="6.70521">
        <ele>2863</ele>
        <time>2026-03-13T14:01:54Z</time>
      </trkpt>
      <trkpt lat="45.1573" lon="6.7053">
        <ele>2867</ele>
        <time>2026-03-13T14:02:12Z</time>
      </trkpt>
      <trkpt lat="45.15731" lon="6.70533">
        <ele>2867</ele>
        <time>2026-03-13T14:02:16Z</time>
      </trkpt>
      <trkpt lat="45.15738" lon="6.70542">
        <ele>2869</ele>
        <time>2026-03-13T14:02:36Z</time>
      </trkpt>
      <trkpt lat="45.1574" lon="6.70544">
        <ele>2869</ele>
        <time>2026-03-13T14:02:40Z</time>
      </trkpt>
      <trkpt lat="45.15742" lon="6.70546">
        <ele>2869</ele>
        <time>2026-03-13T14:02:44Z</time>
      </trkpt>
      <trkpt lat="45.15744" lon="6.70546">
        <ele>2869</ele>
        <time>2026-03-13T14:02:46Z</time>
      </trkpt>
      <trkpt lat="45.15749" lon="6.70546">
        <ele>2869</ele>
        <time>2026-03-13T14:02:54Z</time>
      </trkpt>
      <trkpt lat="45.15754" lon="6.70546">
        <ele>2869</ele>
        <time>2026-03-13T14:03:02Z</time>
      </trkpt>
      <trkpt lat="45.15765" lon="6.70543">
        <ele>2872</ele>
        <time>2026-03-13T14:03:38Z</time>
      </trkpt>
      <trkpt lat="45.15769" lon="6.70541">
        <ele>2874</ele>
        <time>2026-03-13T14:03:46Z</time>
      </trkpt>
      <trkpt lat="45.15772" lon="6.70541">
        <ele>2875</ele>
        <time>2026-03-13T14:03:50Z</time>
      </trkpt>
      <trkpt lat="45.15775" lon="6.70538">
        <ele>2876</ele>
        <time>2026-03-13T14:03:56Z</time>
      </trkpt>
      <trkpt lat="45.15778" lon="6.70537">
        <ele>2876</ele>
        <time>2026-03-13T14:04:00Z</time>
      </trkpt>
      <trkpt lat="45.15787" lon="6.70534">
        <ele>2877</ele>
        <time>2026-03-13T14:04:16Z</time>
      </trkpt>
      <trkpt lat="45.15789" lon="6.70532">
        <ele>2878</ele>
        <time>2026-03-13T14:04:20Z</time>
      </trkpt>
      <trkpt lat="45.15791" lon="6.7053">
        <ele>2879</ele>
        <time>2026-03-13T14:04:24Z</time>
      </trkpt>
      <trkpt lat="45.15796" lon="6.70525">
        <ele>2880</ele>
        <time>2026-03-13T14:04:36Z</time>
      </trkpt>
      <trkpt lat="45.15801" lon="6.70521">
        <ele>2881</ele>
        <time>2026-03-13T14:04:44Z</time>
      </trkpt>
      <trkpt lat="45.15803" lon="6.70521">
        <ele>2882</ele>
        <time>2026-03-13T14:04:48Z</time>
      </trkpt>
      <trkpt lat="45.15804" lon="6.70519">
        <ele>2882</ele>
        <time>2026-03-13T14:04:52Z</time>
      </trkpt>
      <trkpt lat="45.15806" lon="6.70518">
        <ele>2883</ele>
        <time>2026-03-13T14:04:56Z</time>
      </trkpt>
      <trkpt lat="45.1581" lon="6.70516">
        <ele>2883</ele>
        <time>2026-03-13T14:05:04Z</time>
      </trkpt>
      <trkpt lat="45.15813" lon="6.70515">
        <ele>2883</ele>
        <time>2026-03-13T14:05:12Z</time>
      </trkpt>
      <trkpt lat="45.15816" lon="6.70517">
        <ele>2884</ele>
        <time>2026-03-13T14:06:43Z</time>
      </trkpt>
      <trkpt lat="45.15819" lon="6.7052">
        <ele>2885</ele>
        <time>2026-03-13T14:07:05Z</time>
      </trkpt>
      <trkpt lat="45.15826" lon="6.70524">
        <ele>2887</ele>
        <time>2026-03-13T14:07:17Z</time>
      </trkpt>
      <trkpt lat="45.15827" lon="6.70527">
        <ele>2887</ele>
        <time>2026-03-13T14:07:21Z</time>
      </trkpt>
      <trkpt lat="45.15833" lon="6.70534">
        <ele>2888</ele>
        <time>2026-03-13T14:07:33Z</time>
      </trkpt>
      <trkpt lat="45.15834" lon="6.70537">
        <ele>2888</ele>
        <time>2026-03-13T14:07:37Z</time>
      </trkpt>
      <trkpt lat="45.15831" lon="6.70537">
        <ele>2889</ele>
        <time>2026-03-13T14:07:41Z</time>
      </trkpt>
      <trkpt lat="45.1582" lon="6.70544">
        <ele>2891</ele>
        <time>2026-03-13T14:08:11Z</time>
      </trkpt>
      <trkpt lat="45.15818" lon="6.70546">
        <ele>2891</ele>
        <time>2026-03-13T14:08:15Z</time>
      </trkpt>
      <trkpt lat="45.15817" lon="6.70547">
        <ele>2891</ele>
        <time>2026-03-13T14:08:19Z</time>
      </trkpt>
      <trkpt lat="45.15816" lon="6.70549">
        <ele>2891</ele>
        <time>2026-03-13T14:08:23Z</time>
      </trkpt>
      <trkpt lat="45.1582" lon="6.70557">
        <ele>2894</ele>
        <time>2026-03-13T14:08:31Z</time>
      </trkpt>
      <trkpt lat="45.15824" lon="6.70563">
        <ele>2896</ele>
        <time>2026-03-13T14:08:43Z</time>
      </trkpt>
      <trkpt lat="45.15826" lon="6.70565">
        <ele>2896</ele>
        <time>2026-03-13T14:08:49Z</time>
      </trkpt>
      <trkpt lat="45.15826" lon="6.7057">
        <ele>2897</ele>
        <time>2026-03-13T14:08:55Z</time>
      </trkpt>
      <trkpt lat="45.15828" lon="6.70572">
        <ele>2897</ele>
        <time>2026-03-13T14:08:59Z</time>
      </trkpt>
      <trkpt lat="45.15833" lon="6.70578">
        <ele>2898</ele>
        <time>2026-03-13T14:09:11Z</time>
      </trkpt>
      <trkpt lat="45.15834" lon="6.7058">
        <ele>2899</ele>
        <time>2026-03-13T14:09:15Z</time>
      </trkpt>
      <trkpt lat="45.15842" lon="6.70588">
        <ele>2901</ele>
        <time>2026-03-13T14:09:39Z</time>
      </trkpt>
      <trkpt lat="45.15844" lon="6.70592">
        <ele>2901</ele>
        <time>2026-03-13T14:09:45Z</time>
      </trkpt>
      <trkpt lat="45.15843" lon="6.70595">
        <ele>2901</ele>
        <time>2026-03-13T14:09:51Z</time>
      </trkpt>
      <trkpt lat="45.1584" lon="6.70595">
        <ele>2900</ele>
        <time>2026-03-13T14:09:55Z</time>
      </trkpt>
      <trkpt lat="45.15825" lon="6.706">
        <ele>2905</ele>
        <time>2026-03-13T14:10:27Z</time>
      </trkpt>
      <trkpt lat="45.15815" lon="6.70609">
        <ele>2908</ele>
        <time>2026-03-13T14:10:47Z</time>
      </trkpt>
      <trkpt lat="45.15814" lon="6.7061">
        <ele>2908</ele>
        <time>2026-03-13T14:10:51Z</time>
      </trkpt>
      <trkpt lat="45.15812" lon="6.70612">
        <ele>2908</ele>
        <time>2026-03-13T14:10:55Z</time>
      </trkpt>
      <trkpt lat="45.1581" lon="6.70613">
        <ele>2909</ele>
        <time>2026-03-13T14:10:59Z</time>
      </trkpt>
      <trkpt lat="45.15808" lon="6.70614">
        <ele>2910</ele>
        <time>2026-03-13T14:11:05Z</time>
      </trkpt>
      <trkpt lat="45.15813" lon="6.70616">
        <ele>2911</ele>
        <time>2026-03-13T14:12:33Z</time>
      </trkpt>
      <trkpt lat="45.15819" lon="6.70617">
        <ele>2912</ele>
        <time>2026-03-13T14:12:43Z</time>
      </trkpt>
      <trkpt lat="45.15826" lon="6.7062">
        <ele>2912</ele>
        <time>2026-03-13T14:12:55Z</time>
      </trkpt>
      <trkpt lat="45.15837" lon="6.70629">
        <ele>2915</ele>
        <time>2026-03-13T14:13:21Z</time>
      </trkpt>
      <trkpt lat="45.15841" lon="6.70629">
        <ele>2917</ele>
        <time>2026-03-13T14:13:29Z</time>
      </trkpt>
      <trkpt lat="45.15844" lon="6.70631">
        <ele>2918</ele>
        <time>2026-03-13T14:13:33Z</time>
      </trkpt>
      <trkpt lat="45.15846" lon="6.70631">
        <ele>2918</ele>
        <time>2026-03-13T14:13:37Z</time>
      </trkpt>
      <trkpt lat="45.15848" lon="6.70632">
        <ele>2918</ele>
        <time>2026-03-13T14:13:41Z</time>
      </trkpt>
      <trkpt lat="45.1585" lon="6.70633">
        <ele>2919</ele>
        <time>2026-03-13T14:13:45Z</time>
      </trkpt>
      <trkpt lat="45.15862" lon="6.7064">
        <ele>2919</ele>
        <time>2026-03-13T14:14:15Z</time>
      </trkpt>
      <trkpt lat="45.15866" lon="6.70641">
        <ele>2920</ele>
        <time>2026-03-13T14:14:27Z</time>
      </trkpt>
      <trkpt lat="45.15871" lon="6.70642">
        <ele>2921</ele>
        <time>2026-03-13T14:14:49Z</time>
      </trkpt>
      <trkpt lat="45.15879" lon="6.70645">
        <ele>2924</ele>
        <time>2026-03-13T14:15:11Z</time>
      </trkpt>
      <trkpt lat="45.15884" lon="6.70645">
        <ele>2925</ele>
        <time>2026-03-13T14:15:17Z</time>
      </trkpt>
      <trkpt lat="45.15887" lon="6.70645">
        <ele>2926</ele>
        <time>2026-03-13T14:15:21Z</time>
      </trkpt>
      <trkpt lat="45.15894" lon="6.70649">
        <ele>2926</ele>
        <time>2026-03-13T14:15:33Z</time>
      </trkpt>
      <trkpt lat="45.15896" lon="6.7065">
        <ele>2926</ele>
        <time>2026-03-13T14:15:37Z</time>
      </trkpt>
      <trkpt lat="45.15898" lon="6.70652">
        <ele>2927</ele>
        <time>2026-03-13T14:15:41Z</time>
      </trkpt>
      <trkpt lat="45.15903" lon="6.70663">
        <ele>2928</ele>
        <time>2026-03-13T14:15:59Z</time>
      </trkpt>
      <trkpt lat="45.15904" lon="6.70665">
        <ele>2929</ele>
        <time>2026-03-13T14:16:03Z</time>
      </trkpt>
      <trkpt lat="45.15901" lon="6.70668">
        <ele>2930</ele>
        <time>2026-03-13T14:17:40Z</time>
      </trkpt>
      <trkpt lat="45.15892" lon="6.70673">
        <ele>2931</ele>
        <time>2026-03-13T14:17:54Z</time>
      </trkpt>
      <trkpt lat="45.1589" lon="6.70674">
        <ele>2932</ele>
        <time>2026-03-13T14:17:58Z</time>
      </trkpt>
      <trkpt lat="45.15888" lon="6.70675">
        <ele>2932</ele>
        <time>2026-03-13T14:18:02Z</time>
      </trkpt>
      <trkpt lat="45.15887" lon="6.70678">
        <ele>2933</ele>
        <time>2026-03-13T14:18:08Z</time>
      </trkpt>
      <trkpt lat="45.15888" lon="6.70681">
        <ele>2933</ele>
        <time>2026-03-13T14:18:12Z</time>
      </trkpt>
      <trkpt lat="45.15887" lon="6.70693">
        <ele>2936</ele>
        <time>2026-03-13T14:18:26Z</time>
      </trkpt>
      <trkpt lat="45.15887" lon="6.70697">
        <ele>2936</ele>
        <time>2026-03-13T14:18:30Z</time>
      </trkpt>
      <trkpt lat="45.15886" lon="6.70699">
        <ele>2937</ele>
        <time>2026-03-13T14:18:36Z</time>
      </trkpt>
      <trkpt lat="45.15885" lon="6.70717">
        <ele>2940</ele>
        <time>2026-03-13T14:19:00Z</time>
      </trkpt>
      <trkpt lat="45.15883" lon="6.70719">
        <ele>2941</ele>
        <time>2026-03-13T14:19:04Z</time>
      </trkpt>
      <trkpt lat="45.15881" lon="6.70719">
        <ele>2941</ele>
        <time>2026-03-13T14:19:08Z</time>
      </trkpt>
      <trkpt lat="45.15879" lon="6.70718">
        <ele>2941</ele>
        <time>2026-03-13T14:19:14Z</time>
      </trkpt>
      <trkpt lat="45.15877" lon="6.70718">
        <ele>2943</ele>
        <time>2026-03-13T14:19:18Z</time>
      </trkpt>
      <trkpt lat="45.15875" lon="6.70717">
        <ele>2943</ele>
        <time>2026-03-13T14:19:22Z</time>
      </trkpt>
      <trkpt lat="45.15869" lon="6.70718">
        <ele>2945</ele>
        <time>2026-03-13T14:19:36Z</time>
      </trkpt>
      <trkpt lat="45.15863" lon="6.70719">
        <ele>2946</ele>
        <time>2026-03-13T14:19:50Z</time>
      </trkpt>
      <trkpt lat="45.15856" lon="6.70719">
        <ele>2948</ele>
        <time>2026-03-13T14:20:08Z</time>
      </trkpt>
      <trkpt lat="45.15853" lon="6.70719">
        <ele>2950</ele>
        <time>2026-03-13T14:20:12Z</time>
      </trkpt>
      <trkpt lat="45.15849" lon="6.7072">
        <ele>2951</ele>
        <time>2026-03-13T14:20:20Z</time>
      </trkpt>
      <trkpt lat="45.15854" lon="6.70724">
        <ele>2952</ele>
        <time>2026-03-13T14:20:52Z</time>
      </trkpt>
      <trkpt lat="45.15857" lon="6.70729">
        <ele>2954</ele>
        <time>2026-03-13T14:21:00Z</time>
      </trkpt>
      <trkpt lat="45.1586" lon="6.70734">
        <ele>2955</ele>
        <time>2026-03-13T14:21:10Z</time>
      </trkpt>
      <trkpt lat="45.15861" lon="6.70737">
        <ele>2955</ele>
        <time>2026-03-13T14:21:16Z</time>
      </trkpt>
      <trkpt lat="45.15861" lon="6.7074">
        <ele>2956</ele>
        <time>2026-03-13T14:21:20Z</time>
      </trkpt>
      <trkpt lat="45.15862" lon="6.70743">
        <ele>2956</ele>
        <time>2026-03-13T14:21:24Z</time>
      </trkpt>
      <trkpt lat="45.15862" lon="6.70754">
        <ele>2957</ele>
        <time>2026-03-13T14:21:40Z</time>
      </trkpt>
      <trkpt lat="45.15853" lon="6.70749">
        <ele>2958</ele>
        <time>2026-03-13T14:22:16Z</time>
      </trkpt>
      <trkpt lat="45.15852" lon="6.70749">
        <ele>2959</ele>
        <time>2026-03-13T14:22:18Z</time>
      </trkpt>
      <trkpt lat="45.15849" lon="6.70749">
        <ele>2960</ele>
        <time>2026-03-13T14:22:22Z</time>
      </trkpt>
      <trkpt lat="45.15845" lon="6.70748">
        <ele>2964</ele>
        <time>2026-03-13T14:22:34Z</time>
      </trkpt>
      <trkpt lat="45.15847" lon="6.70753">
        <ele>2965</ele>
        <time>2026-03-13T14:22:48Z</time>
      </trkpt>
      <trkpt lat="45.15848" lon="6.70756">
        <ele>2965</ele>
        <time>2026-03-13T14:22:56Z</time>
      </trkpt>
      <trkpt lat="45.15849" lon="6.7076">
        <ele>2966</ele>
        <time>2026-03-13T14:23:02Z</time>
      </trkpt>
      <trkpt lat="45.15849" lon="6.70763">
        <ele>2966</ele>
        <time>2026-03-13T14:23:06Z</time>
      </trkpt>
      <trkpt lat="45.15849" lon="6.70766">
        <ele>2966</ele>
        <time>2026-03-13T14:23:10Z</time>
      </trkpt>
      <trkpt lat="45.15848" lon="6.70769">
        <ele>2967</ele>
        <time>2026-03-13T14:23:14Z</time>
      </trkpt>
      <trkpt lat="45.15847" lon="6.70773">
        <ele>2967</ele>
        <time>2026-03-13T14:23:20Z</time>
      </trkpt>
      <trkpt lat="45.15843" lon="6.70778">
        <ele>2969</ele>
        <time>2026-03-13T14:23:28Z</time>
      </trkpt>
      <trkpt lat="45.15843" lon="6.7078">
        <ele>2969</ele>
        <time>2026-03-13T14:23:32Z</time>
      </trkpt>
      <trkpt lat="45.15842" lon="6.70789">
        <ele>2970</ele>
        <time>2026-03-13T14:23:44Z</time>
      </trkpt>
      <trkpt lat="45.15842" lon="6.7082">
        <ele>2971</ele>
        <time>2026-03-13T14:24:12Z</time>
      </trkpt>
      <trkpt lat="45.15846" lon="6.70839">
        <ele>2973</ele>
        <time>2026-03-13T14:24:32Z</time>
      </trkpt>
      <trkpt lat="45.15854" lon="6.70863">
        <ele>2976</ele>
        <time>2026-03-13T14:25:04Z</time>
      </trkpt>
      <trkpt lat="45.15861" lon="6.70887">
        <ele>2979</ele>
        <time>2026-03-13T14:25:32Z</time>
      </trkpt>
      <trkpt lat="45.15863" lon="6.70893">
        <ele>2980</ele>
        <time>2026-03-13T14:25:40Z</time>
      </trkpt>
      <trkpt lat="45.15866" lon="6.70902">
        <ele>2980</ele>
        <time>2026-03-13T14:25:50Z</time>
      </trkpt>
      <trkpt lat="45.15867" lon="6.70905">
        <ele>2980</ele>
        <time>2026-03-13T14:25:52Z</time>
      </trkpt>
      <trkpt lat="45.15868" lon="6.70908">
        <ele>2980</ele>
        <time>2026-03-13T14:25:54Z</time>
      </trkpt>
      <trkpt lat="45.15868" lon="6.70912">
        <ele>2980</ele>
        <time>2026-03-13T14:25:58Z</time>
      </trkpt>
      <trkpt lat="45.15869" lon="6.70915">
        <ele>2980</ele>
        <time>2026-03-13T14:26:02Z</time>
      </trkpt>
      <trkpt lat="45.1587" lon="6.70919">
        <ele>2981</ele>
        <time>2026-03-13T14:26:06Z</time>
      </trkpt>
      <trkpt lat="45.15873" lon="6.70925">
        <ele>2983</ele>
        <time>2026-03-13T14:26:14Z</time>
      </trkpt>
      <trkpt lat="45.15875" lon="6.70928">
        <ele>2984</ele>
        <time>2026-03-13T14:27:01Z</time>
      </trkpt>
      <trkpt lat="45.15876" lon="6.70932">
        <ele>2984</ele>
        <time>2026-03-13T14:27:51Z</time>
      </trkpt>
      <trkpt lat="45.1588" lon="6.7095">
        <ele>2986</ele>
        <time>2026-03-13T14:28:07Z</time>
      </trkpt>
      <trkpt lat="45.15891" lon="6.70978">
        <ele>2987</ele>
        <time>2026-03-13T14:28:37Z</time>
      </trkpt>
      <trkpt lat="45.15893" lon="6.70982">
        <ele>2987</ele>
        <time>2026-03-13T14:28:41Z</time>
      </trkpt>
      <trkpt lat="45.15897" lon="6.7099">
        <ele>2987</ele>
        <time>2026-03-13T14:28:47Z</time>
      </trkpt>
      <trkpt lat="45.15898" lon="6.70991">
        <ele>2987</ele>
        <time>2026-03-13T14:28:49Z</time>
      </trkpt>
      <trkpt lat="45.15899" lon="6.70993">
        <ele>2987</ele>
        <time>2026-03-13T14:28:51Z</time>
      </trkpt>
      <trkpt lat="45.15904" lon="6.71009">
        <ele>2988</ele>
        <time>2026-03-13T14:29:07Z</time>
      </trkpt>
      <trkpt lat="45.15905" lon="6.71016">
        <ele>2987</ele>
        <time>2026-03-13T14:29:15Z</time>
      </trkpt>
      <trkpt lat="45.15921" lon="6.71045">
        <ele>2989</ele>
        <time>2026-03-13T14:29:47Z</time>
      </trkpt>
      <trkpt lat="45.15924" lon="6.71049">
        <ele>2989</ele>
        <time>2026-03-13T14:29:53Z</time>
      </trkpt>
      <trkpt lat="45.15925" lon="6.71052">
        <ele>2989</ele>
        <time>2026-03-13T14:29:57Z</time>
      </trkpt>
      <trkpt lat="45.15928" lon="6.71056">
        <ele>2990</ele>
        <time>2026-03-13T14:30:03Z</time>
      </trkpt>
      <trkpt lat="45.15937" lon="6.71074">
        <ele>2994</ele>
        <time>2026-03-13T14:30:35Z</time>
      </trkpt>
      <trkpt lat="45.15938" lon="6.71077">
        <ele>2994</ele>
        <time>2026-03-13T14:30:39Z</time>
      </trkpt>
      <trkpt lat="45.15941" lon="6.7108">
        <ele>2994</ele>
        <time>2026-03-13T14:30:43Z</time>
      </trkpt>
      <trkpt lat="45.15948" lon="6.71096">
        <ele>2997</ele>
        <time>2026-03-13T14:31:13Z</time>
      </trkpt>
      <trkpt lat="45.15947" lon="6.71099">
        <ele>2998</ele>
        <time>2026-03-13T14:31:31Z</time>
      </trkpt>
      <trkpt lat="45.1595" lon="6.71105">
        <ele>2998</ele>
        <time>2026-03-13T14:31:39Z</time>
      </trkpt>
      <trkpt lat="45.15954" lon="6.71109">
        <ele>2999</ele>
        <time>2026-03-13T14:31:47Z</time>
      </trkpt>
      <trkpt lat="45.1596" lon="6.71114">
        <ele>3001</ele>
        <time>2026-03-13T14:31:59Z</time>
      </trkpt>
      <trkpt lat="45.15963" lon="6.71119">
        <ele>3002</ele>
        <time>2026-03-13T14:32:15Z</time>
      </trkpt>
      <trkpt lat="45.15968" lon="6.71131">
        <ele>3004</ele>
        <time>2026-03-13T14:32:55Z</time>
      </trkpt>
      <trkpt lat="45.15969" lon="6.71134">
        <ele>3004</ele>
        <time>2026-03-13T14:32:59Z</time>
      </trkpt>
      <trkpt lat="45.15972" lon="6.71139">
        <ele>3005</ele>
        <time>2026-03-13T14:33:09Z</time>
      </trkpt>
      <trkpt lat="45.15975" lon="6.71144">
        <ele>3007</ele>
        <time>2026-03-13T14:33:17Z</time>
      </trkpt>
      <trkpt lat="45.1598" lon="6.71154">
        <ele>3010</ele>
        <time>2026-03-13T14:34:11Z</time>
      </trkpt>
      <trkpt lat="45.15982" lon="6.71157">
        <ele>3011</ele>
        <time>2026-03-13T14:34:15Z</time>
      </trkpt>
      <trkpt lat="45.15983" lon="6.71159">
        <ele>3010</ele>
        <time>2026-03-13T14:34:19Z</time>
      </trkpt>
      <trkpt lat="45.15986" lon="6.71164">
        <ele>3011</ele>
        <time>2026-03-13T14:34:25Z</time>
      </trkpt>
      <trkpt lat="45.15987" lon="6.71167">
        <ele>3012</ele>
        <time>2026-03-13T14:34:29Z</time>
      </trkpt>
      <trkpt lat="45.15989" lon="6.7117">
        <ele>3012</ele>
        <time>2026-03-13T14:34:33Z</time>
      </trkpt>
      <trkpt lat="45.1599" lon="6.71172">
        <ele>3013</ele>
        <time>2026-03-13T14:34:37Z</time>
      </trkpt>
      <trkpt lat="45.15993" lon="6.71177">
        <ele>3015</ele>
        <time>2026-03-13T14:34:45Z</time>
      </trkpt>
      <trkpt lat="45.15994" lon="6.71178">
        <ele>3015</ele>
        <time>2026-03-13T14:34:53Z</time>
      </trkpt>
      <trkpt lat="45.15995" lon="6.71181">
        <ele>3016</ele>
        <time>2026-03-13T14:34:57Z</time>
      </trkpt>
      <trkpt lat="45.15997" lon="6.71183">
        <ele>3017</ele>
        <time>2026-03-13T14:35:01Z</time>
      </trkpt>
      <trkpt lat="45.16005" lon="6.712">
        <ele>3020</ele>
        <time>2026-03-13T14:35:29Z</time>
      </trkpt>
      <trkpt lat="45.16005" lon="6.71203">
        <ele>3021</ele>
        <time>2026-03-13T14:35:33Z</time>
      </trkpt>
      <trkpt lat="45.16006" lon="6.71208">
        <ele>3021</ele>
        <time>2026-03-13T14:35:37Z</time>
      </trkpt>
      <trkpt lat="45.16008" lon="6.71213">
        <ele>3021</ele>
        <time>2026-03-13T14:35:39Z</time>
      </trkpt>
      <trkpt lat="45.16011" lon="6.7122">
        <ele>3022</ele>
        <time>2026-03-13T14:35:49Z</time>
      </trkpt>
      <trkpt lat="45.16017" lon="6.71235">
        <ele>3024</ele>
        <time>2026-03-13T14:36:07Z</time>
      </trkpt>
      <trkpt lat="45.16023" lon="6.71248">
        <ele>3025</ele>
        <time>2026-03-13T14:36:39Z</time>
      </trkpt>
      <trkpt lat="45.16025" lon="6.7125">
        <ele>3026</ele>
        <time>2026-03-13T14:36:43Z</time>
      </trkpt>
      <trkpt lat="45.16027" lon="6.7126">
        <ele>3027</ele>
        <time>2026-03-13T14:36:55Z</time>
      </trkpt>
      <trkpt lat="45.16028" lon="6.71264">
        <ele>3027</ele>
        <time>2026-03-13T14:37:01Z</time>
      </trkpt>
      <trkpt lat="45.16031" lon="6.71266">
        <ele>3028</ele>
        <time>2026-03-13T14:37:25Z</time>
      </trkpt>
      <trkpt lat="45.16033" lon="6.71268">
        <ele>3029</ele>
        <time>2026-03-13T14:37:43Z</time>
      </trkpt>
      <trkpt lat="45.1604" lon="6.71281">
        <ele>3032</ele>
        <time>2026-03-13T14:38:03Z</time>
      </trkpt>
      <trkpt lat="45.16041" lon="6.71284">
        <ele>3032</ele>
        <time>2026-03-13T14:38:07Z</time>
      </trkpt>
      <trkpt lat="45.16047" lon="6.713">
        <ele>3035</ele>
        <time>2026-03-13T14:38:35Z</time>
      </trkpt>
      <trkpt lat="45.1605" lon="6.71309">
        <ele>3037</ele>
        <time>2026-03-13T14:38:47Z</time>
      </trkpt>
      <trkpt lat="45.16051" lon="6.71314">
        <ele>3038</ele>
        <time>2026-03-13T14:38:51Z</time>
      </trkpt>
      <trkpt lat="45.16052" lon="6.71315">
        <ele>3037</ele>
        <time>2026-03-13T14:39:01Z</time>
      </trkpt>
      <trkpt lat="45.16053" lon="6.71319">
        <ele>3038</ele>
        <time>2026-03-13T14:39:05Z</time>
      </trkpt>
      <trkpt lat="45.16054" lon="6.71322">
        <ele>3038</ele>
        <time>2026-03-13T14:39:09Z</time>
      </trkpt>
      <trkpt lat="45.16059" lon="6.7134">
        <ele>3040</ele>
        <time>2026-03-13T14:39:33Z</time>
      </trkpt>
      <trkpt lat="45.16059" lon="6.71343">
        <ele>3041</ele>
        <time>2026-03-13T14:39:37Z</time>
      </trkpt>
      <trkpt lat="45.1606" lon="6.71346">
        <ele>3041</ele>
        <time>2026-03-13T14:39:41Z</time>
      </trkpt>
      <trkpt lat="45.16062" lon="6.71348">
        <ele>3041</ele>
        <time>2026-03-13T14:40:02Z</time>
      </trkpt>
      <trkpt lat="45.16063" lon="6.71355">
        <ele>3043</ele>
        <time>2026-03-13T14:40:34Z</time>
      </trkpt>
      <trkpt lat="45.16074" lon="6.71377">
        <ele>3044</ele>
        <time>2026-03-13T14:41:00Z</time>
      </trkpt>
      <trkpt lat="45.16081" lon="6.71387">
        <ele>3045</ele>
        <time>2026-03-13T14:41:12Z</time>
      </trkpt>
      <trkpt lat="45.16088" lon="6.71392">
        <ele>3046</ele>
        <time>2026-03-13T14:41:28Z</time>
      </trkpt>
      <trkpt lat="45.1609" lon="6.71394">
        <ele>3046</ele>
        <time>2026-03-13T14:41:32Z</time>
      </trkpt>
      <trkpt lat="45.16092" lon="6.71396">
        <ele>3047</ele>
        <time>2026-03-13T14:41:36Z</time>
      </trkpt>
      <trkpt lat="45.16098" lon="6.71399">
        <ele>3047</ele>
        <time>2026-03-13T14:41:58Z</time>
      </trkpt>
      <trkpt lat="45.16108" lon="6.71406">
        <ele>3049</ele>
        <time>2026-03-13T14:42:14Z</time>
      </trkpt>
      <trkpt lat="45.1611" lon="6.71407">
        <ele>3050</ele>
        <time>2026-03-13T14:42:18Z</time>
      </trkpt>
      <trkpt lat="45.16119" lon="6.71412">
        <ele>3052</ele>
        <time>2026-03-13T14:42:34Z</time>
      </trkpt>
      <trkpt lat="45.16121" lon="6.71414">
        <ele>3053</ele>
        <time>2026-03-13T14:42:38Z</time>
      </trkpt>
      <trkpt lat="45.16139" lon="6.71425">
        <ele>3056</ele>
        <time>2026-03-13T14:43:10Z</time>
      </trkpt>
      <trkpt lat="45.16149" lon="6.71431">
        <ele>3058</ele>
        <time>2026-03-13T14:43:40Z</time>
      </trkpt>
      <trkpt lat="45.16154" lon="6.71434">
        <ele>3059</ele>
        <time>2026-03-13T14:43:48Z</time>
      </trkpt>
      <trkpt lat="45.16156" lon="6.71435">
        <ele>3059</ele>
        <time>2026-03-13T14:43:52Z</time>
      </trkpt>
      <trkpt lat="45.16158" lon="6.71436">
        <ele>3060</ele>
        <time>2026-03-13T14:43:56Z</time>
      </trkpt>
      <trkpt lat="45.16161" lon="6.71438">
        <ele>3060</ele>
        <time>2026-03-13T14:44:00Z</time>
      </trkpt>
      <trkpt lat="45.16163" lon="6.71439">
        <ele>3061</ele>
        <time>2026-03-13T14:44:04Z</time>
      </trkpt>
      <trkpt lat="45.16164" lon="6.71441">
        <ele>3061</ele>
        <time>2026-03-13T14:44:08Z</time>
      </trkpt>
      <trkpt lat="45.16169" lon="6.71444">
        <ele>3063</ele>
        <time>2026-03-13T14:44:26Z</time>
      </trkpt>
      <trkpt lat="45.16177" lon="6.71448">
        <ele>3065</ele>
        <time>2026-03-13T14:44:40Z</time>
      </trkpt>
      <trkpt lat="45.16188" lon="6.71452">
        <ele>3067</ele>
        <time>2026-03-13T14:44:58Z</time>
      </trkpt>
      <trkpt lat="45.16191" lon="6.71452">
        <ele>3067</ele>
        <time>2026-03-13T14:45:02Z</time>
      </trkpt>
      <trkpt lat="45.16197" lon="6.71454">
        <ele>3070</ele>
        <time>2026-03-13T14:45:22Z</time>
      </trkpt>
      <trkpt lat="45.16207" lon="6.71457">
        <ele>3071</ele>
        <time>2026-03-13T14:45:34Z</time>
      </trkpt>
      <trkpt lat="45.16213" lon="6.71457">
        <ele>3071</ele>
        <time>2026-03-13T14:45:42Z</time>
      </trkpt>
      <trkpt lat="45.16215" lon="6.71457">
        <ele>3072</ele>
        <time>2026-03-13T14:45:46Z</time>
      </trkpt>
      <trkpt lat="45.16224" lon="6.71457">
        <ele>3074</ele>
        <time>2026-03-13T14:46:02Z</time>
      </trkpt>
      <trkpt lat="45.16227" lon="6.71457">
        <ele>3074</ele>
        <time>2026-03-13T14:46:06Z</time>
      </trkpt>
      <trkpt lat="45.16227" lon="6.71461">
        <ele>3074</ele>
        <time>2026-03-13T14:46:24Z</time>
      </trkpt>
      <trkpt lat="45.1623" lon="6.71464">
        <ele>3077</ele>
        <time>2026-03-13T14:46:36Z</time>
      </trkpt>
      <trkpt lat="45.16229" lon="6.7146">
        <ele>3076</ele>
        <time>2026-03-13T14:46:40Z</time>
      </trkpt>
      <trkpt lat="45.16231" lon="6.71458">
        <ele>3076</ele>
        <time>2026-03-13T14:46:44Z</time>
      </trkpt>
      <trkpt lat="45.16234" lon="6.71455">
        <ele>3076</ele>
        <time>2026-03-13T14:47:42Z</time>
      </trkpt>
      <trkpt lat="45.16238" lon="6.71458">
        <ele>3079</ele>
        <time>2026-03-13T14:48:00Z</time>
      </trkpt>
      <trkpt lat="45.16238" lon="6.71463">
        <ele>3081</ele>
        <time>2026-03-13T14:48:22Z</time>
      </trkpt>
      <trkpt lat="45.16242" lon="6.71467">
        <ele>3083</ele>
        <time>2026-03-13T14:48:34Z</time>
      </trkpt>
      <trkpt lat="45.16245" lon="6.71466">
        <ele>3083</ele>
        <time>2026-03-13T14:48:38Z</time>
      </trkpt>
      <trkpt lat="45.16252" lon="6.71462">
        <ele>3085</ele>
        <time>2026-03-13T14:48:56Z</time>
      </trkpt>
      <trkpt lat="45.16252" lon="6.71464">
        <ele>3086</ele>
        <time>2026-03-13T14:50:14Z</time>
      </trkpt>
      <trkpt lat="45.16232" lon="6.71452">
        <ele>3079</ele>
        <time>2026-03-13T15:17:23Z</time>
      </trkpt>
      <trkpt lat="45.16231" lon="6.71456">
        <ele>3075</ele>
        <time>2026-03-13T15:19:03Z</time>
      </trkpt>
      <trkpt lat="45.16223" lon="6.71461">
        <ele>3073</ele>
        <time>2026-03-13T15:22:55Z</time>
      </trkpt>
      <trkpt lat="45.16214" lon="6.71457">
        <ele>3071</ele>
        <time>2026-03-13T15:22:57Z</time>
      </trkpt>
      <trkpt lat="45.16206" lon="6.71456">
        <ele>3070</ele>
        <time>2026-03-13T15:22:59Z</time>
      </trkpt>
      <trkpt lat="45.1621" lon="6.71447">
        <ele>3069</ele>
        <time>2026-03-13T15:25:23Z</time>
      </trkpt>
      <trkpt lat="45.16207" lon="6.71439">
        <ele>3068</ele>
        <time>2026-03-13T15:25:27Z</time>
      </trkpt>
      <trkpt lat="45.16209" lon="6.71431">
        <ele>3065</ele>
        <time>2026-03-13T15:25:29Z</time>
      </trkpt>
      <trkpt lat="45.16212" lon="6.71427">
        <ele>3064</ele>
        <time>2026-03-13T15:25:31Z</time>
      </trkpt>
      <trkpt lat="45.16211" lon="6.71421">
        <ele>3062</ele>
        <time>2026-03-13T15:25:33Z</time>
      </trkpt>
      <trkpt lat="45.16207" lon="6.71419">
        <ele>3061</ele>
        <time>2026-03-13T15:25:35Z</time>
      </trkpt>
      <trkpt lat="45.16206" lon="6.71412">
        <ele>3059</ele>
        <time>2026-03-13T15:25:39Z</time>
      </trkpt>
      <trkpt lat="45.16209" lon="6.71406">
        <ele>3057</ele>
        <time>2026-03-13T15:25:41Z</time>
      </trkpt>
      <trkpt lat="45.16207" lon="6.71401">
        <ele>3055</ele>
        <time>2026-03-13T15:25:43Z</time>
      </trkpt>
      <trkpt lat="45.16203" lon="6.71398">
        <ele>3052</ele>
        <time>2026-03-13T15:25:45Z</time>
      </trkpt>
      <trkpt lat="45.16203" lon="6.71391">
        <ele>3048</ele>
        <time>2026-03-13T15:25:47Z</time>
      </trkpt>
      <trkpt lat="45.16201" lon="6.71382">
        <ele>3045</ele>
        <time>2026-03-13T15:25:49Z</time>
      </trkpt>
      <trkpt lat="45.16198" lon="6.71368">
        <ele>3037</ele>
        <time>2026-03-13T15:25:53Z</time>
      </trkpt>
      <trkpt lat="45.16186" lon="6.71362">
        <ele>3034</ele>
        <time>2026-03-13T15:25:55Z</time>
      </trkpt>
      <trkpt lat="45.16174" lon="6.71358">
        <ele>3031</ele>
        <time>2026-03-13T15:25:57Z</time>
      </trkpt>
      <trkpt lat="45.16165" lon="6.71355">
        <ele>3029</ele>
        <time>2026-03-13T15:25:59Z</time>
      </trkpt>
      <trkpt lat="45.16155" lon="6.7135">
        <ele>3025</ele>
        <time>2026-03-13T15:26:01Z</time>
      </trkpt>
      <trkpt lat="45.16144" lon="6.71342">
        <ele>3022</ele>
        <time>2026-03-13T15:26:03Z</time>
      </trkpt>
      <trkpt lat="45.16124" lon="6.71322">
        <ele>3019</ele>
        <time>2026-03-13T15:26:07Z</time>
      </trkpt>
      <trkpt lat="45.16108" lon="6.71292">
        <ele>3016</ele>
        <time>2026-03-13T15:26:13Z</time>
      </trkpt>
      <trkpt lat="45.16109" lon="6.71282">
        <ele>3014</ele>
        <time>2026-03-13T15:26:15Z</time>
      </trkpt>
      <trkpt lat="45.16114" lon="6.71276">
        <ele>3012</ele>
        <time>2026-03-13T15:26:17Z</time>
      </trkpt>
      <trkpt lat="45.16118" lon="6.71265">
        <ele>3009</ele>
        <time>2026-03-13T15:26:19Z</time>
      </trkpt>
      <trkpt lat="45.16119" lon="6.71252">
        <ele>3006</ele>
        <time>2026-03-13T15:26:21Z</time>
      </trkpt>
      <trkpt lat="45.16119" lon="6.71241">
        <ele>3003</ele>
        <time>2026-03-13T15:26:23Z</time>
      </trkpt>
      <trkpt lat="45.16123" lon="6.71217">
        <ele>2994</ele>
        <time>2026-03-13T15:26:27Z</time>
      </trkpt>
      <trkpt lat="45.16125" lon="6.71192">
        <ele>2984</ele>
        <time>2026-03-13T15:26:31Z</time>
      </trkpt>
      <trkpt lat="45.16123" lon="6.71177">
        <ele>2980</ele>
        <time>2026-03-13T15:26:33Z</time>
      </trkpt>
      <trkpt lat="45.16124" lon="6.71164">
        <ele>2977</ele>
        <time>2026-03-13T15:26:35Z</time>
      </trkpt>
      <trkpt lat="45.16125" lon="6.71152">
        <ele>2973</ele>
        <time>2026-03-13T15:26:37Z</time>
      </trkpt>
      <trkpt lat="45.16125" lon="6.71143">
        <ele>2970</ele>
        <time>2026-03-13T15:26:39Z</time>
      </trkpt>
      <trkpt lat="45.16129" lon="6.71121">
        <ele>2957</ele>
        <time>2026-03-13T15:35:09Z</time>
      </trkpt>
      <trkpt lat="45.16135" lon="6.71083">
        <ele>2943</ele>
        <time>2026-03-13T15:35:15Z</time>
      </trkpt>
      <trkpt lat="45.16138" lon="6.71071">
        <ele>2940</ele>
        <time>2026-03-13T15:35:17Z</time>
      </trkpt>
      <trkpt lat="45.16139" lon="6.71057">
        <ele>2937</ele>
        <time>2026-03-13T15:35:19Z</time>
      </trkpt>
      <trkpt lat="45.16141" lon="6.71043">
        <ele>2934</ele>
        <time>2026-03-13T15:35:21Z</time>
      </trkpt>
      <trkpt lat="45.16142" lon="6.71031">
        <ele>2931</ele>
        <time>2026-03-13T15:35:23Z</time>
      </trkpt>
      <trkpt lat="45.16158" lon="6.70932">
        <ele>2895</ele>
        <time>2026-03-13T15:35:37Z</time>
      </trkpt>
      <trkpt lat="45.16161" lon="6.70928">
        <ele>2891</ele>
        <time>2026-03-13T15:35:39Z</time>
      </trkpt>
      <trkpt lat="45.1616" lon="6.7093">
        <ele>2889</ele>
        <time>2026-03-13T15:36:03Z</time>
      </trkpt>
      <trkpt lat="45.16159" lon="6.70928">
        <ele>2887</ele>
        <time>2026-03-13T15:37:21Z</time>
      </trkpt>
      <trkpt lat="45.16162" lon="6.70921">
        <ele>2885</ele>
        <time>2026-03-13T15:37:33Z</time>
      </trkpt>
      <trkpt lat="45.16159" lon="6.70908">
        <ele>2883</ele>
        <time>2026-03-13T15:37:35Z</time>
      </trkpt>
      <trkpt lat="45.16152" lon="6.70897">
        <ele>2880</ele>
        <time>2026-03-13T15:37:37Z</time>
      </trkpt>
      <trkpt lat="45.16147" lon="6.70884">
        <ele>2878</ele>
        <time>2026-03-13T15:37:39Z</time>
      </trkpt>
      <trkpt lat="45.16148" lon="6.7087">
        <ele>2875</ele>
        <time>2026-03-13T15:37:41Z</time>
      </trkpt>
      <trkpt lat="45.16148" lon="6.70854">
        <ele>2870</ele>
        <time>2026-03-13T15:37:43Z</time>
      </trkpt>
      <trkpt lat="45.16146" lon="6.70842">
        <ele>2865</ele>
        <time>2026-03-13T15:37:45Z</time>
      </trkpt>
      <trkpt lat="45.16147" lon="6.70824">
        <ele>2861</ele>
        <time>2026-03-13T15:37:47Z</time>
      </trkpt>
      <trkpt lat="45.16149" lon="6.70807">
        <ele>2855</ele>
        <time>2026-03-13T15:37:49Z</time>
      </trkpt>
      <trkpt lat="45.16151" lon="6.70789">
        <ele>2850</ele>
        <time>2026-03-13T15:37:51Z</time>
      </trkpt>
      <trkpt lat="45.16152" lon="6.7077">
        <ele>2846</ele>
        <time>2026-03-13T15:37:53Z</time>
      </trkpt>
      <trkpt lat="45.16151" lon="6.7075">
        <ele>2840</ele>
        <time>2026-03-13T15:37:55Z</time>
      </trkpt>
      <trkpt lat="45.16154" lon="6.70729">
        <ele>2836</ele>
        <time>2026-03-13T15:37:57Z</time>
      </trkpt>
      <trkpt lat="45.1616" lon="6.7071">
        <ele>2833</ele>
        <time>2026-03-13T15:37:59Z</time>
      </trkpt>
      <trkpt lat="45.16164" lon="6.70676">
        <ele>2829</ele>
        <time>2026-03-13T15:38:05Z</time>
      </trkpt>
      <trkpt lat="45.1616" lon="6.70635">
        <ele>2824</ele>
        <time>2026-03-13T15:38:13Z</time>
      </trkpt>
      <trkpt lat="45.16159" lon="6.70605">
        <ele>2820</ele>
        <time>2026-03-13T15:38:17Z</time>
      </trkpt>
      <trkpt lat="45.16159" lon="6.70592">
        <ele>2819</ele>
        <time>2026-03-13T15:38:19Z</time>
      </trkpt>
      <trkpt lat="45.16158" lon="6.7058">
        <ele>2817</ele>
        <time>2026-03-13T15:38:21Z</time>
      </trkpt>
      <trkpt lat="45.16156" lon="6.70568">
        <ele>2815</ele>
        <time>2026-03-13T15:38:23Z</time>
      </trkpt>
      <trkpt lat="45.16152" lon="6.70563">
        <ele>2814</ele>
        <time>2026-03-13T15:38:25Z</time>
      </trkpt>
      <trkpt lat="45.16151" lon="6.70566">
        <ele>2814</ele>
        <time>2026-03-13T15:38:52Z</time>
      </trkpt>
      <trkpt lat="45.16148" lon="6.70563">
        <ele>2813</ele>
        <time>2026-03-13T15:39:36Z</time>
      </trkpt>
      <trkpt lat="45.1613" lon="6.70541">
        <ele>2808</ele>
        <time>2026-03-13T15:39:42Z</time>
      </trkpt>
      <trkpt lat="45.16125" lon="6.70528">
        <ele>2806</ele>
        <time>2026-03-13T15:39:44Z</time>
      </trkpt>
      <trkpt lat="45.16126" lon="6.70509">
        <ele>2802</ele>
        <time>2026-03-13T15:39:46Z</time>
      </trkpt>
      <trkpt lat="45.16129" lon="6.70488">
        <ele>2798</ele>
        <time>2026-03-13T15:39:48Z</time>
      </trkpt>
      <trkpt lat="45.16133" lon="6.70468">
        <ele>2793</ele>
        <time>2026-03-13T15:39:50Z</time>
      </trkpt>
      <trkpt lat="45.16136" lon="6.70448">
        <ele>2789</ele>
        <time>2026-03-13T15:39:52Z</time>
      </trkpt>
      <trkpt lat="45.1614" lon="6.7043">
        <ele>2785</ele>
        <time>2026-03-13T15:39:54Z</time>
      </trkpt>
      <trkpt lat="45.16144" lon="6.70413">
        <ele>2781</ele>
        <time>2026-03-13T15:39:56Z</time>
      </trkpt>
      <trkpt lat="45.1615" lon="6.70394">
        <ele>2777</ele>
        <time>2026-03-13T15:39:58Z</time>
      </trkpt>
      <trkpt lat="45.16155" lon="6.70378">
        <ele>2773</ele>
        <time>2026-03-13T15:40:00Z</time>
      </trkpt>
      <trkpt lat="45.16161" lon="6.70362">
        <ele>2767</ele>
        <time>2026-03-13T15:40:02Z</time>
      </trkpt>
      <trkpt lat="45.16165" lon="6.7035">
        <ele>2763</ele>
        <time>2026-03-13T15:40:04Z</time>
      </trkpt>
      <trkpt lat="45.16164" lon="6.70346">
        <ele>2760</ele>
        <time>2026-03-13T15:40:18Z</time>
      </trkpt>
      <trkpt lat="45.16162" lon="6.70333">
        <ele>2756</ele>
        <time>2026-03-13T15:40:20Z</time>
      </trkpt>
      <trkpt lat="45.16162" lon="6.70326">
        <ele>2754</ele>
        <time>2026-03-13T15:40:22Z</time>
      </trkpt>
      <trkpt lat="45.16161" lon="6.70322">
        <ele>2753</ele>
        <time>2026-03-13T15:41:22Z</time>
      </trkpt>
      <trkpt lat="45.16162" lon="6.70315">
        <ele>2751</ele>
        <time>2026-03-13T15:41:24Z</time>
      </trkpt>
      <trkpt lat="45.1617" lon="6.70309">
        <ele>2749</ele>
        <time>2026-03-13T15:41:26Z</time>
      </trkpt>
      <trkpt lat="45.16175" lon="6.70296">
        <ele>2747</ele>
        <time>2026-03-13T15:41:28Z</time>
      </trkpt>
      <trkpt lat="45.16162" lon="6.70245">
        <ele>2742</ele>
        <time>2026-03-13T15:41:32Z</time>
      </trkpt>
      <trkpt lat="45.16157" lon="6.7023">
        <ele>2738</ele>
        <time>2026-03-13T15:41:34Z</time>
      </trkpt>
      <trkpt lat="45.16159" lon="6.70215">
        <ele>2733</ele>
        <time>2026-03-13T15:41:36Z</time>
      </trkpt>
      <trkpt lat="45.16159" lon="6.70196">
        <ele>2729</ele>
        <time>2026-03-13T15:41:38Z</time>
      </trkpt>
      <trkpt lat="45.16157" lon="6.70177">
        <ele>2726</ele>
        <time>2026-03-13T15:41:40Z</time>
      </trkpt>
      <trkpt lat="45.16155" lon="6.70149">
        <ele>2722</ele>
        <time>2026-03-13T15:41:44Z</time>
      </trkpt>
      <trkpt lat="45.16155" lon="6.70143">
        <ele>2721</ele>
        <time>2026-03-13T15:41:46Z</time>
      </trkpt>
      <trkpt lat="45.16152" lon="6.70136">
        <ele>2719</ele>
        <time>2026-03-13T15:42:28Z</time>
      </trkpt>
      <trkpt lat="45.16156" lon="6.70123">
        <ele>2716</ele>
        <time>2026-03-13T15:42:30Z</time>
      </trkpt>
      <trkpt lat="45.16158" lon="6.70115">
        <ele>2714</ele>
        <time>2026-03-13T15:42:32Z</time>
      </trkpt>
      <trkpt lat="45.16146" lon="6.70107">
        <ele>2711</ele>
        <time>2026-03-13T15:42:34Z</time>
      </trkpt>
      <trkpt lat="45.16131" lon="6.70097">
        <ele>2708</ele>
        <time>2026-03-13T15:42:36Z</time>
      </trkpt>
      <trkpt lat="45.16119" lon="6.70086">
        <ele>2704</ele>
        <time>2026-03-13T15:42:38Z</time>
      </trkpt>
      <trkpt lat="45.16108" lon="6.70075">
        <ele>2701</ele>
        <time>2026-03-13T15:42:40Z</time>
      </trkpt>
      <trkpt lat="45.16102" lon="6.70065">
        <ele>2698</ele>
        <time>2026-03-13T15:42:42Z</time>
      </trkpt>
      <trkpt lat="45.16096" lon="6.70054">
        <ele>2696</ele>
        <time>2026-03-13T15:42:44Z</time>
      </trkpt>
      <trkpt lat="45.16092" lon="6.70043">
        <ele>2693</ele>
        <time>2026-03-13T15:42:46Z</time>
      </trkpt>
      <trkpt lat="45.16099" lon="6.70038">
        <ele>2689</ele>
        <time>2026-03-13T15:42:48Z</time>
      </trkpt>
      <trkpt lat="45.16102" lon="6.70029">
        <ele>2686</ele>
        <time>2026-03-13T15:42:50Z</time>
      </trkpt>
      <trkpt lat="45.16108" lon="6.70003">
        <ele>2669</ele>
        <time>2026-03-13T15:42:56Z</time>
      </trkpt>
      <trkpt lat="45.16111" lon="6.69993">
        <ele>2664</ele>
        <time>2026-03-13T15:42:58Z</time>
      </trkpt>
      <trkpt lat="45.16113" lon="6.69983">
        <ele>2659</ele>
        <time>2026-03-13T15:43:00Z</time>
      </trkpt>
      <trkpt lat="45.1611" lon="6.69973">
        <ele>2657</ele>
        <time>2026-03-13T15:43:02Z</time>
      </trkpt>
      <trkpt lat="45.16112" lon="6.69966">
        <ele>2654</ele>
        <time>2026-03-13T15:43:04Z</time>
      </trkpt>
      <trkpt lat="45.16118" lon="6.69958">
        <ele>2649</ele>
        <time>2026-03-13T15:43:06Z</time>
      </trkpt>
      <trkpt lat="45.16124" lon="6.69935">
        <ele>2637</ele>
        <time>2026-03-13T15:43:10Z</time>
      </trkpt>
      <trkpt lat="45.16128" lon="6.69926">
        <ele>2633</ele>
        <time>2026-03-13T15:43:12Z</time>
      </trkpt>
      <trkpt lat="45.16135" lon="6.69921">
        <ele>2629</ele>
        <time>2026-03-13T15:43:14Z</time>
      </trkpt>
      <trkpt lat="45.16137" lon="6.69914">
        <ele>2627</ele>
        <time>2026-03-13T15:43:16Z</time>
      </trkpt>
      <trkpt lat="45.16141" lon="6.69907">
        <ele>2624</ele>
        <time>2026-03-13T15:43:18Z</time>
      </trkpt>
      <trkpt lat="45.16135" lon="6.699">
        <ele>2619</ele>
        <time>2026-03-13T15:43:30Z</time>
      </trkpt>
      <trkpt lat="45.16124" lon="6.69892">
        <ele>2616</ele>
        <time>2026-03-13T15:43:32Z</time>
      </trkpt>
      <trkpt lat="45.16118" lon="6.69882">
        <ele>2614</ele>
        <time>2026-03-13T15:43:34Z</time>
      </trkpt>
      <trkpt lat="45.1612" lon="6.69871">
        <ele>2611</ele>
        <time>2026-03-13T15:43:36Z</time>
      </trkpt>
      <trkpt lat="45.16126" lon="6.6986">
        <ele>2607</ele>
        <time>2026-03-13T15:43:38Z</time>
      </trkpt>
      <trkpt lat="45.16132" lon="6.6985">
        <ele>2604</ele>
        <time>2026-03-13T15:43:40Z</time>
      </trkpt>
      <trkpt lat="45.16135" lon="6.69837">
        <ele>2600</ele>
        <time>2026-03-13T15:43:42Z</time>
      </trkpt>
      <trkpt lat="45.16137" lon="6.69826">
        <ele>2595</ele>
        <time>2026-03-13T15:43:44Z</time>
      </trkpt>
      <trkpt lat="45.16139" lon="6.69814">
        <ele>2589</ele>
        <time>2026-03-13T15:43:46Z</time>
      </trkpt>
      <trkpt lat="45.16148" lon="6.69794">
        <ele>2579</ele>
        <time>2026-03-13T15:43:50Z</time>
      </trkpt>
      <trkpt lat="45.1615" lon="6.69781">
        <ele>2575</ele>
        <time>2026-03-13T15:43:52Z</time>
      </trkpt>
      <trkpt lat="45.16153" lon="6.69773">
        <ele>2572</ele>
        <time>2026-03-13T15:43:54Z</time>
      </trkpt>
      <trkpt lat="45.16161" lon="6.6977">
        <ele>2569</ele>
        <time>2026-03-13T15:43:56Z</time>
      </trkpt>
      <trkpt lat="45.16159" lon="6.69769">
        <ele>2563</ele>
        <time>2026-03-13T15:44:42Z</time>
      </trkpt>
      <trkpt lat="45.16151" lon="6.6976">
        <ele>2558</ele>
        <time>2026-03-13T15:46:04Z</time>
      </trkpt>
      <trkpt lat="45.16142" lon="6.69755">
        <ele>2556</ele>
        <time>2026-03-13T15:46:06Z</time>
      </trkpt>
      <trkpt lat="45.16135" lon="6.69747">
        <ele>2555</ele>
        <time>2026-03-13T15:46:08Z</time>
      </trkpt>
      <trkpt lat="45.16127" lon="6.6973">
        <ele>2553</ele>
        <time>2026-03-13T15:46:12Z</time>
      </trkpt>
      <trkpt lat="45.16123" lon="6.69723">
        <ele>2552</ele>
        <time>2026-03-13T15:46:14Z</time>
      </trkpt>
      <trkpt lat="45.16122" lon="6.69721">
        <ele>2552</ele>
        <time>2026-03-13T15:46:16Z</time>
      </trkpt>
      <trkpt lat="45.16118" lon="6.69721">
        <ele>2551</ele>
        <time>2026-03-13T15:46:20Z</time>
      </trkpt>
      <trkpt lat="45.16116" lon="6.69714">
        <ele>2551</ele>
        <time>2026-03-13T15:46:24Z</time>
      </trkpt>
      <trkpt lat="45.16114" lon="6.69699">
        <ele>2548</ele>
        <time>2026-03-13T15:46:26Z</time>
      </trkpt>
      <trkpt lat="45.1612" lon="6.69688">
        <ele>2545</ele>
        <time>2026-03-13T15:46:28Z</time>
      </trkpt>
      <trkpt lat="45.16129" lon="6.69679">
        <ele>2541</ele>
        <time>2026-03-13T15:46:30Z</time>
      </trkpt>
      <trkpt lat="45.16137" lon="6.69671">
        <ele>2536</ele>
        <time>2026-03-13T15:46:32Z</time>
      </trkpt>
      <trkpt lat="45.16138" lon="6.69656">
        <ele>2531</ele>
        <time>2026-03-13T15:46:34Z</time>
      </trkpt>
      <trkpt lat="45.1614" lon="6.69642">
        <ele>2527</ele>
        <time>2026-03-13T15:46:36Z</time>
      </trkpt>
      <trkpt lat="45.16145" lon="6.69626">
        <ele>2524</ele>
        <time>2026-03-13T15:46:38Z</time>
      </trkpt>
      <trkpt lat="45.16151" lon="6.69611">
        <ele>2519</ele>
        <time>2026-03-13T15:46:40Z</time>
      </trkpt>
      <trkpt lat="45.16157" lon="6.69604">
        <ele>2516</ele>
        <time>2026-03-13T15:46:42Z</time>
      </trkpt>
      <trkpt lat="45.1616" lon="6.69604">
        <ele>2514</ele>
        <time>2026-03-13T15:47:16Z</time>
      </trkpt>
      <trkpt lat="45.16159" lon="6.69591">
        <ele>2511</ele>
        <time>2026-03-13T15:47:18Z</time>
      </trkpt>
      <trkpt lat="45.16148" lon="6.69579">
        <ele>2507</ele>
        <time>2026-03-13T15:47:24Z</time>
      </trkpt>
      <trkpt lat="45.16137" lon="6.69572">
        <ele>2505</ele>
        <time>2026-03-13T15:47:28Z</time>
      </trkpt>
      <trkpt lat="45.16128" lon="6.69564">
        <ele>2503</ele>
        <time>2026-03-13T15:47:30Z</time>
      </trkpt>
      <trkpt lat="45.16124" lon="6.69551">
        <ele>2501</ele>
        <time>2026-03-13T15:47:32Z</time>
      </trkpt>
      <trkpt lat="45.16129" lon="6.6954">
        <ele>2500</ele>
        <time>2026-03-13T15:47:34Z</time>
      </trkpt>
      <trkpt lat="45.16132" lon="6.69529">
        <ele>2497</ele>
        <time>2026-03-13T15:47:36Z</time>
      </trkpt>
      <trkpt lat="45.16133" lon="6.69518">
        <ele>2494</ele>
        <time>2026-03-13T15:47:38Z</time>
      </trkpt>
      <trkpt lat="45.16139" lon="6.6951">
        <ele>2490</ele>
        <time>2026-03-13T15:47:40Z</time>
      </trkpt>
      <trkpt lat="45.16142" lon="6.69497">
        <ele>2486</ele>
        <time>2026-03-13T15:47:42Z</time>
      </trkpt>
      <trkpt lat="45.16141" lon="6.69484">
        <ele>2482</ele>
        <time>2026-03-13T15:47:44Z</time>
      </trkpt>
      <trkpt lat="45.16141" lon="6.69471">
        <ele>2477</ele>
        <time>2026-03-13T15:47:46Z</time>
      </trkpt>
      <trkpt lat="45.16144" lon="6.6946">
        <ele>2474</ele>
        <time>2026-03-13T15:47:48Z</time>
      </trkpt>
      <trkpt lat="45.16146" lon="6.69448">
        <ele>2471</ele>
        <time>2026-03-13T15:47:50Z</time>
      </trkpt>
      <trkpt lat="45.16142" lon="6.69438">
        <ele>2467</ele>
        <time>2026-03-13T15:47:52Z</time>
      </trkpt>
      <trkpt lat="45.16135" lon="6.69427">
        <ele>2464</ele>
        <time>2026-03-13T15:47:54Z</time>
      </trkpt>
      <trkpt lat="45.1614" lon="6.69414">
        <ele>2461</ele>
        <time>2026-03-13T15:47:56Z</time>
      </trkpt>
      <trkpt lat="45.16144" lon="6.69401">
        <ele>2458</ele>
        <time>2026-03-13T15:47:58Z</time>
      </trkpt>
      <trkpt lat="45.16152" lon="6.69395">
        <ele>2456</ele>
        <time>2026-03-13T15:48:00Z</time>
      </trkpt>
      <trkpt lat="45.16152" lon="6.69389">
        <ele>2455</ele>
        <time>2026-03-13T15:48:02Z</time>
      </trkpt>
      <trkpt lat="45.16154" lon="6.69385">
        <ele>2450</ele>
        <time>2026-03-13T15:48:08Z</time>
      </trkpt>
      <trkpt lat="45.16162" lon="6.69381">
        <ele>2447</ele>
        <time>2026-03-13T15:48:54Z</time>
      </trkpt>
      <trkpt lat="45.16167" lon="6.6938">
        <ele>2446</ele>
        <time>2026-03-13T15:48:56Z</time>
      </trkpt>
      <trkpt lat="45.1617" lon="6.69377">
        <ele>2445</ele>
        <time>2026-03-13T15:48:58Z</time>
      </trkpt>
      <trkpt lat="45.16169" lon="6.69372">
        <ele>2444</ele>
        <time>2026-03-13T15:49:00Z</time>
      </trkpt>
      <trkpt lat="45.16175" lon="6.69367">
        <ele>2442</ele>
        <time>2026-03-13T15:49:02Z</time>
      </trkpt>
      <trkpt lat="45.16195" lon="6.69367">
        <ele>2437</ele>
        <time>2026-03-13T15:49:10Z</time>
      </trkpt>
      <trkpt lat="45.162" lon="6.6937">
        <ele>2436</ele>
        <time>2026-03-13T15:49:12Z</time>
      </trkpt>
      <trkpt lat="45.16204" lon="6.69369">
        <ele>2433</ele>
        <time>2026-03-13T15:49:14Z</time>
      </trkpt>
      <trkpt lat="45.16208" lon="6.69362">
        <ele>2431</ele>
        <time>2026-03-13T15:49:16Z</time>
      </trkpt>
      <trkpt lat="45.16212" lon="6.69354">
        <ele>2427</ele>
        <time>2026-03-13T15:49:18Z</time>
      </trkpt>
      <trkpt lat="45.16218" lon="6.69349">
        <ele>2423</ele>
        <time>2026-03-13T15:49:20Z</time>
      </trkpt>
      <trkpt lat="45.16222" lon="6.69347">
        <ele>2419</ele>
        <time>2026-03-13T15:49:22Z</time>
      </trkpt>
      <trkpt lat="45.16231" lon="6.69341">
        <ele>2410</ele>
        <time>2026-03-13T15:49:26Z</time>
      </trkpt>
      <trkpt lat="45.16239" lon="6.6934">
        <ele>2407</ele>
        <time>2026-03-13T15:49:28Z</time>
      </trkpt>
      <trkpt lat="45.16244" lon="6.69341">
        <ele>2405</ele>
        <time>2026-03-13T15:49:30Z</time>
      </trkpt>
      <trkpt lat="45.1625" lon="6.69338">
        <ele>2403</ele>
        <time>2026-03-13T15:49:32Z</time>
      </trkpt>
      <trkpt lat="45.16277" lon="6.69307">
        <ele>2378</ele>
        <time>2026-03-13T15:49:42Z</time>
      </trkpt>
      <trkpt lat="45.16286" lon="6.69305">
        <ele>2374</ele>
        <time>2026-03-13T15:49:44Z</time>
      </trkpt>
      <trkpt lat="45.16286" lon="6.69303">
        <ele>2370</ele>
        <time>2026-03-13T15:50:46Z</time>
      </trkpt>
      <trkpt lat="45.16287" lon="6.69299">
        <ele>2367</ele>
        <time>2026-03-13T15:51:20Z</time>
      </trkpt>
      <trkpt lat="45.16281" lon="6.69283">
        <ele>2364</ele>
        <time>2026-03-13T15:51:22Z</time>
      </trkpt>
      <trkpt lat="45.16279" lon="6.69274">
        <ele>2362</ele>
        <time>2026-03-13T15:51:24Z</time>
      </trkpt>
      <trkpt lat="45.16286" lon="6.69257">
        <ele>2359</ele>
        <time>2026-03-13T15:51:28Z</time>
      </trkpt>
      <trkpt lat="45.1629" lon="6.69251">
        <ele>2357</ele>
        <time>2026-03-13T15:51:30Z</time>
      </trkpt>
      <trkpt lat="45.16295" lon="6.69242">
        <ele>2352</ele>
        <time>2026-03-13T15:51:32Z</time>
      </trkpt>
      <trkpt lat="45.16295" lon="6.69232">
        <ele>2347</ele>
        <time>2026-03-13T15:51:34Z</time>
      </trkpt>
      <trkpt lat="45.16291" lon="6.69222">
        <ele>2344</ele>
        <time>2026-03-13T15:51:36Z</time>
      </trkpt>
      <trkpt lat="45.16287" lon="6.69215">
        <ele>2342</ele>
        <time>2026-03-13T15:51:38Z</time>
      </trkpt>
      <trkpt lat="45.16291" lon="6.69209">
        <ele>2341</ele>
        <time>2026-03-13T15:51:40Z</time>
      </trkpt>
      <trkpt lat="45.16297" lon="6.69207">
        <ele>2338</ele>
        <time>2026-03-13T15:51:42Z</time>
      </trkpt>
      <trkpt lat="45.16295" lon="6.69199">
        <ele>2337</ele>
        <time>2026-03-13T15:51:44Z</time>
      </trkpt>
      <trkpt lat="45.16294" lon="6.69192">
        <ele>2335</ele>
        <time>2026-03-13T15:51:46Z</time>
      </trkpt>
      <trkpt lat="45.16297" lon="6.69187">
        <ele>2333</ele>
        <time>2026-03-13T15:51:48Z</time>
      </trkpt>
      <trkpt lat="45.16306" lon="6.69187">
        <ele>2330</ele>
        <time>2026-03-13T15:51:50Z</time>
      </trkpt>
      <trkpt lat="45.16317" lon="6.69189">
        <ele>2328</ele>
        <time>2026-03-13T15:51:52Z</time>
      </trkpt>
      <trkpt lat="45.16323" lon="6.69186">
        <ele>2327</ele>
        <time>2026-03-13T15:51:54Z</time>
      </trkpt>
      <trkpt lat="45.16317" lon="6.69173">
        <ele>2319</ele>
        <time>2026-03-13T15:51:58Z</time>
      </trkpt>
      <trkpt lat="45.16316" lon="6.69164">
        <ele>2315</ele>
        <time>2026-03-13T15:52:00Z</time>
      </trkpt>
      <trkpt lat="45.16318" lon="6.69154">
        <ele>2313</ele>
        <time>2026-03-13T15:52:02Z</time>
      </trkpt>
      <trkpt lat="45.16322" lon="6.69148">
        <ele>2311</ele>
        <time>2026-03-13T15:52:04Z</time>
      </trkpt>
      <trkpt lat="45.16314" lon="6.69117">
        <ele>2300</ele>
        <time>2026-03-13T15:52:12Z</time>
      </trkpt>
      <trkpt lat="45.16315" lon="6.69108">
        <ele>2298</ele>
        <time>2026-03-13T15:52:14Z</time>
      </trkpt>
      <trkpt lat="45.16319" lon="6.691">
        <ele>2295</ele>
        <time>2026-03-13T15:52:16Z</time>
      </trkpt>
      <trkpt lat="45.16331" lon="6.69086">
        <ele>2285</ele>
        <time>2026-03-13T15:52:20Z</time>
      </trkpt>
      <trkpt lat="45.1633" lon="6.69077">
        <ele>2281</ele>
        <time>2026-03-13T15:52:22Z</time>
      </trkpt>
      <trkpt lat="45.16327" lon="6.6907">
        <ele>2279</ele>
        <time>2026-03-13T15:52:24Z</time>
      </trkpt>
      <trkpt lat="45.16294" lon="6.69045">
        <ele>2274</ele>
        <time>2026-03-13T15:52:34Z</time>
      </trkpt>
      <trkpt lat="45.16291" lon="6.69045">
        <ele>2273</ele>
        <time>2026-03-13T15:52:36Z</time>
      </trkpt>
      <trkpt lat="45.16288" lon="6.69043">
        <ele>2272</ele>
        <time>2026-03-13T15:53:40Z</time>
      </trkpt>
      <trkpt lat="45.16288" lon="6.69029">
        <ele>2269</ele>
        <time>2026-03-13T15:53:42Z</time>
      </trkpt>
      <trkpt lat="45.16287" lon="6.6902">
        <ele>2267</ele>
        <time>2026-03-13T15:53:44Z</time>
      </trkpt>
      <trkpt lat="45.16288" lon="6.69011">
        <ele>2265</ele>
        <time>2026-03-13T15:53:46Z</time>
      </trkpt>
      <trkpt lat="45.16287" lon="6.69002">
        <ele>2262</ele>
        <time>2026-03-13T15:53:48Z</time>
      </trkpt>
      <trkpt lat="45.16287" lon="6.68995">
        <ele>2259</ele>
        <time>2026-03-13T15:53:50Z</time>
      </trkpt>
      <trkpt lat="45.16287" lon="6.68986">
        <ele>2255</ele>
        <time>2026-03-13T15:53:52Z</time>
      </trkpt>
      <trkpt lat="45.16288" lon="6.68977">
        <ele>2252</ele>
        <time>2026-03-13T15:53:54Z</time>
      </trkpt>
      <trkpt lat="45.16287" lon="6.68966">
        <ele>2247</ele>
        <time>2026-03-13T15:53:56Z</time>
      </trkpt>
      <trkpt lat="45.16282" lon="6.68956">
        <ele>2243</ele>
        <time>2026-03-13T15:53:58Z</time>
      </trkpt>
      <trkpt lat="45.16287" lon="6.68946">
        <ele>2240</ele>
        <time>2026-03-13T15:54:00Z</time>
      </trkpt>
      <trkpt lat="45.1628" lon="6.68938">
        <ele>2237</ele>
        <time>2026-03-13T15:54:02Z</time>
      </trkpt>
      <trkpt lat="45.1627" lon="6.68933">
        <ele>2233</ele>
        <time>2026-03-13T15:54:06Z</time>
      </trkpt>
      <trkpt lat="45.16264" lon="6.68931">
        <ele>2232</ele>
        <time>2026-03-13T15:54:10Z</time>
      </trkpt>
      <trkpt lat="45.16254" lon="6.68931">
        <ele>2229</ele>
        <time>2026-03-13T15:54:16Z</time>
      </trkpt>
      <trkpt lat="45.1625" lon="6.68924">
        <ele>2227</ele>
        <time>2026-03-13T15:54:46Z</time>
      </trkpt>
      <trkpt lat="45.1625" lon="6.68916">
        <ele>2225</ele>
        <time>2026-03-13T15:54:48Z</time>
      </trkpt>
      <trkpt lat="45.16247" lon="6.68898">
        <ele>2221</ele>
        <time>2026-03-13T15:54:52Z</time>
      </trkpt>
      <trkpt lat="45.16244" lon="6.6889">
        <ele>2218</ele>
        <time>2026-03-13T15:54:54Z</time>
      </trkpt>
      <trkpt lat="45.16238" lon="6.68884">
        <ele>2216</ele>
        <time>2026-03-13T15:54:56Z</time>
      </trkpt>
      <trkpt lat="45.16237" lon="6.68873">
        <ele>2210</ele>
        <time>2026-03-13T15:54:58Z</time>
      </trkpt>
      <trkpt lat="45.16233" lon="6.68865">
        <ele>2205</ele>
        <time>2026-03-13T15:55:00Z</time>
      </trkpt>
      <trkpt lat="45.16226" lon="6.68852">
        <ele>2197</ele>
        <time>2026-03-13T15:55:04Z</time>
      </trkpt>
      <trkpt lat="45.16225" lon="6.68843">
        <ele>2193</ele>
        <time>2026-03-13T15:55:06Z</time>
      </trkpt>
      <trkpt lat="45.16223" lon="6.68835">
        <ele>2188</ele>
        <time>2026-03-13T15:55:08Z</time>
      </trkpt>
      <trkpt lat="45.16219" lon="6.68819">
        <ele>2180</ele>
        <time>2026-03-13T15:55:12Z</time>
      </trkpt>
      <trkpt lat="45.16224" lon="6.68808">
        <ele>2174</ele>
        <time>2026-03-13T15:55:16Z</time>
      </trkpt>
      <trkpt lat="45.16225" lon="6.68796">
        <ele>2169</ele>
        <time>2026-03-13T15:55:18Z</time>
      </trkpt>
      <trkpt lat="45.16224" lon="6.68784">
        <ele>2162</ele>
        <time>2026-03-13T15:55:20Z</time>
      </trkpt>
      <trkpt lat="45.16221" lon="6.68772">
        <ele>2154</ele>
        <time>2026-03-13T15:55:22Z</time>
      </trkpt>
      <trkpt lat="45.1622" lon="6.6876">
        <ele>2148</ele>
        <time>2026-03-13T15:55:24Z</time>
      </trkpt>
      <trkpt lat="45.1622" lon="6.68749">
        <ele>2142</ele>
        <time>2026-03-13T15:55:26Z</time>
      </trkpt>
      <trkpt lat="45.16222" lon="6.6874">
        <ele>2140</ele>
        <time>2026-03-13T15:55:28Z</time>
      </trkpt>
      <trkpt lat="45.16223" lon="6.68743">
        <ele>2137</ele>
        <time>2026-03-13T15:55:46Z</time>
      </trkpt>
      <trkpt lat="45.16234" lon="6.68734">
        <ele>2133</ele>
        <time>2026-03-13T15:56:56Z</time>
      </trkpt>
      <trkpt lat="45.16266" lon="6.68713">
        <ele>2130</ele>
        <time>2026-03-13T15:57:02Z</time>
      </trkpt>
      <trkpt lat="45.16268" lon="6.68702">
        <ele>2129</ele>
        <time>2026-03-13T15:57:04Z</time>
      </trkpt>
      <trkpt lat="45.16267" lon="6.6869">
        <ele>2128</ele>
        <time>2026-03-13T15:57:06Z</time>
      </trkpt>
      <trkpt lat="45.16265" lon="6.68676">
        <ele>2126</ele>
        <time>2026-03-13T15:57:08Z</time>
      </trkpt>
      <trkpt lat="45.16262" lon="6.6867">
        <ele>2124</ele>
        <time>2026-03-13T15:57:10Z</time>
      </trkpt>
      <trkpt lat="45.16258" lon="6.68663">
        <ele>2121</ele>
        <time>2026-03-13T15:57:12Z</time>
      </trkpt>
      <trkpt lat="45.1626" lon="6.68652">
        <ele>2117</ele>
        <time>2026-03-13T15:57:14Z</time>
      </trkpt>
      <trkpt lat="45.16259" lon="6.68645">
        <ele>2116</ele>
        <time>2026-03-13T15:57:16Z</time>
      </trkpt>
      <trkpt lat="45.16256" lon="6.68639">
        <ele>2113</ele>
        <time>2026-03-13T15:57:18Z</time>
      </trkpt>
      <trkpt lat="45.16247" lon="6.68635">
        <ele>2111</ele>
        <time>2026-03-13T15:57:20Z</time>
      </trkpt>
      <trkpt lat="45.16235" lon="6.68623">
        <ele>2107</ele>
        <time>2026-03-13T15:57:24Z</time>
      </trkpt>
      <trkpt lat="45.16226" lon="6.68622">
        <ele>2104</ele>
        <time>2026-03-13T15:57:26Z</time>
      </trkpt>
      <trkpt lat="45.16217" lon="6.68617">
        <ele>2101</ele>
        <time>2026-03-13T15:57:28Z</time>
      </trkpt>
      <trkpt lat="45.16208" lon="6.6861">
        <ele>2098</ele>
        <time>2026-03-13T15:57:30Z</time>
      </trkpt>
      <trkpt lat="45.16209" lon="6.68597">
        <ele>2095</ele>
        <time>2026-03-13T15:57:32Z</time>
      </trkpt>
      <trkpt lat="45.16214" lon="6.68591">
        <ele>2094</ele>
        <time>2026-03-13T15:57:34Z</time>
      </trkpt>
      <trkpt lat="45.16212" lon="6.68585">
        <ele>2091</ele>
        <time>2026-03-13T15:57:36Z</time>
      </trkpt>
      <trkpt lat="45.16216" lon="6.68575">
        <ele>2089</ele>
        <time>2026-03-13T15:57:38Z</time>
      </trkpt>
      <trkpt lat="45.1622" lon="6.68558">
        <ele>2081</ele>
        <time>2026-03-13T15:57:46Z</time>
      </trkpt>
      <trkpt lat="45.16234" lon="6.68563">
        <ele>2078</ele>
        <time>2026-03-13T15:57:50Z</time>
      </trkpt>
      <trkpt lat="45.16232" lon="6.6855">
        <ele>2073</ele>
        <time>2026-03-13T15:57:53Z</time>
      </trkpt>
      <trkpt lat="45.16232" lon="6.6854">
        <ele>2070</ele>
        <time>2026-03-13T15:57:55Z</time>
      </trkpt>
      <trkpt lat="45.1624" lon="6.68531">
        <ele>2068</ele>
        <time>2026-03-13T15:57:57Z</time>
      </trkpt>
      <trkpt lat="45.16243" lon="6.68517">
        <ele>2062</ele>
        <time>2026-03-13T15:58:01Z</time>
      </trkpt>
      <trkpt lat="45.16245" lon="6.68507">
        <ele>2060</ele>
        <time>2026-03-13T15:58:03Z</time>
      </trkpt>
      <trkpt lat="45.16242" lon="6.68495">
        <ele>2058</ele>
        <time>2026-03-13T15:58:05Z</time>
      </trkpt>
      <trkpt lat="45.16241" lon="6.68485">
        <ele>2056</ele>
        <time>2026-03-13T15:58:07Z</time>
      </trkpt>
      <trkpt lat="45.16246" lon="6.6848">
        <ele>2054</ele>
        <time>2026-03-13T15:58:09Z</time>
      </trkpt>
      <trkpt lat="45.16251" lon="6.68473">
        <ele>2051</ele>
        <time>2026-03-13T15:58:11Z</time>
      </trkpt>
      <trkpt lat="45.16254" lon="6.68464">
        <ele>2050</ele>
        <time>2026-03-13T15:58:13Z</time>
      </trkpt>
      <trkpt lat="45.1626" lon="6.68457">
        <ele>2047</ele>
        <time>2026-03-13T15:58:15Z</time>
      </trkpt>
      <trkpt lat="45.1627" lon="6.68459">
        <ele>2044</ele>
        <time>2026-03-13T15:58:17Z</time>
      </trkpt>
      <trkpt lat="45.16273" lon="6.68453">
        <ele>2042</ele>
        <time>2026-03-13T15:58:19Z</time>
      </trkpt>
      <trkpt lat="45.16281" lon="6.68434">
        <ele>2033</ele>
        <time>2026-03-13T15:58:23Z</time>
      </trkpt>
      <trkpt lat="45.16283" lon="6.68423">
        <ele>2031</ele>
        <time>2026-03-13T15:58:25Z</time>
      </trkpt>
      <trkpt lat="45.16302" lon="6.6838">
        <ele>2024</ele>
        <time>2026-03-13T15:58:35Z</time>
      </trkpt>
      <trkpt lat="45.16306" lon="6.68377">
        <ele>2020</ele>
        <time>2026-03-13T15:58:37Z</time>
      </trkpt>
      <trkpt lat="45.16311" lon="6.68382">
        <ele>2016</ele>
        <time>2026-03-13T15:58:39Z</time>
      </trkpt>
      <trkpt lat="45.16318" lon="6.68379">
        <ele>2013</ele>
        <time>2026-03-13T15:58:43Z</time>
      </trkpt>
      <trkpt lat="45.16323" lon="6.68381">
        <ele>2011</ele>
        <time>2026-03-13T15:58:45Z</time>
      </trkpt>
      <trkpt lat="45.16327" lon="6.68389">
        <ele>2008</ele>
        <time>2026-03-13T15:58:47Z</time>
      </trkpt>
      <trkpt lat="45.16331" lon="6.68394">
        <ele>2006</ele>
        <time>2026-03-13T15:58:49Z</time>
      </trkpt>
      <trkpt lat="45.16354" lon="6.68383">
        <ele>2002</ele>
        <time>2026-03-13T15:58:55Z</time>
      </trkpt>
      <trkpt lat="45.16363" lon="6.68379">
        <ele>1997</ele>
        <time>2026-03-13T16:00:49Z</time>
      </trkpt>
      <trkpt lat="45.1636" lon="6.68383">
        <ele>1998</ele>
        <time>2026-03-13T16:01:39Z</time>
      </trkpt>
      <trkpt lat="45.16358" lon="6.68367">
        <ele>1996</ele>
        <time>2026-03-13T16:02:23Z</time>
      </trkpt>
      <trkpt lat="45.16365" lon="6.68361">
        <ele>1996</ele>
        <time>2026-03-13T16:02:25Z</time>
      </trkpt>
      <trkpt lat="45.16369" lon="6.68348">
        <ele>1994</ele>
        <time>2026-03-13T16:02:27Z</time>
      </trkpt>
      <trkpt lat="45.1637" lon="6.68338">
        <ele>1992</ele>
        <time>2026-03-13T16:02:29Z</time>
      </trkpt>
      <trkpt lat="45.16373" lon="6.68331">
        <ele>1988</ele>
        <time>2026-03-13T16:02:31Z</time>
      </trkpt>
      <trkpt lat="45.16375" lon="6.68321">
        <ele>1985</ele>
        <time>2026-03-13T16:02:33Z</time>
      </trkpt>
      <trkpt lat="45.16381" lon="6.68307">
        <ele>1983</ele>
        <time>2026-03-13T16:02:35Z</time>
      </trkpt>
      <trkpt lat="45.16388" lon="6.68294">
        <ele>1980</ele>
        <time>2026-03-13T16:02:37Z</time>
      </trkpt>
      <trkpt lat="45.16393" lon="6.68281">
        <ele>1980</ele>
        <time>2026-03-13T16:02:39Z</time>
      </trkpt>
      <trkpt lat="45.16403" lon="6.68278">
        <ele>1979</ele>
        <time>2026-03-13T16:02:41Z</time>
      </trkpt>
      <trkpt lat="45.16413" lon="6.6827">
        <ele>1976</ele>
        <time>2026-03-13T16:02:43Z</time>
      </trkpt>
      <trkpt lat="45.1642" lon="6.68258">
        <ele>1973</ele>
        <time>2026-03-13T16:02:45Z</time>
      </trkpt>
      <trkpt lat="45.1643" lon="6.68251">
        <ele>1970</ele>
        <time>2026-03-13T16:02:47Z</time>
      </trkpt>
      <trkpt lat="45.16447" lon="6.68242">
        <ele>1965</ele>
        <time>2026-03-13T16:02:51Z</time>
      </trkpt>
      <trkpt lat="45.16451" lon="6.68237">
        <ele>1965</ele>
        <time>2026-03-13T16:02:53Z</time>
      </trkpt>
      <trkpt lat="45.16454" lon="6.68231">
        <ele>1962</ele>
        <time>2026-03-13T16:02:55Z</time>
      </trkpt>
      <trkpt lat="45.16458" lon="6.68226">
        <ele>1961</ele>
        <time>2026-03-13T16:02:57Z</time>
      </trkpt>
      <trkpt lat="45.16539" lon="6.68179">
        <ele>1948</ele>
        <time>2026-03-13T16:03:11Z</time>
      </trkpt>
      <trkpt lat="45.16595" lon="6.6811">
        <ele>1942</ele>
        <time>2026-03-13T16:03:21Z</time>
      </trkpt>
      <trkpt lat="45.16608" lon="6.68079">
        <ele>1940</ele>
        <time>2026-03-13T16:03:27Z</time>
      </trkpt>
      <trkpt lat="45.16607" lon="6.68022">
        <ele>1937</ele>
        <time>2026-03-13T16:03:35Z</time>
      </trkpt>
      <trkpt lat="45.16605" lon="6.68004">
        <ele>1936</ele>
        <time>2026-03-13T16:03:37Z</time>
      </trkpt>
      <trkpt lat="45.16607" lon="6.67973">
        <ele>1934</ele>
        <time>2026-03-13T16:03:41Z</time>
      </trkpt>
      <trkpt lat="45.16619" lon="6.67945">
        <ele>1932</ele>
        <time>2026-03-13T16:03:45Z</time>
      </trkpt>
      <trkpt lat="45.16625" lon="6.67885">
        <ele>1929</ele>
        <time>2026-03-13T16:03:53Z</time>
      </trkpt>
      <trkpt lat="45.16643" lon="6.67827">
        <ele>1925</ele>
        <time>2026-03-13T16:04:01Z</time>
      </trkpt>
      <trkpt lat="45.16663" lon="6.67786">
        <ele>1922</ele>
        <time>2026-03-13T16:04:07Z</time>
      </trkpt>
      <trkpt lat="45.16687" lon="6.67765">
        <ele>1919</ele>
        <time>2026-03-13T16:04:13Z</time>
      </trkpt>
      <trkpt lat="45.16716" lon="6.67724">
        <ele>1916</ele>
        <time>2026-03-13T16:04:19Z</time>
      </trkpt>
      <trkpt lat="45.16736" lon="6.67706">
        <ele>1912</ele>
        <time>2026-03-13T16:04:23Z</time>
      </trkpt>
      <trkpt lat="45.16809" lon="6.67668">
        <ele>1905</ele>
        <time>2026-03-13T16:04:35Z</time>
      </trkpt>
      <trkpt lat="45.16885" lon="6.67579">
        <ele>1897</ele>
        <time>2026-03-13T16:04:49Z</time>
      </trkpt>
      <trkpt lat="45.16912" lon="6.67557">
        <ele>1895</ele>
        <time>2026-03-13T16:04:53Z</time>
      </trkpt>
      <trkpt lat="45.16996" lon="6.67525">
        <ele>1891</ele>
        <time>2026-03-13T16:05:09Z</time>
      </trkpt>
      <trkpt lat="45.17002" lon="6.67524">
        <ele>1889</ele>
        <time>2026-03-13T16:05:15Z</time>
      </trkpt>
      <trkpt lat="45.17004" lon="6.67513">
        <ele>1878</ele>
        <time>2026-03-13T16:07:27Z</time>
      </trkpt>
      <trkpt lat="45.17005" lon="6.67506">
        <ele>1875</ele>
        <time>2026-03-13T16:07:29Z</time>
      </trkpt>
      <trkpt lat="45.17006" lon="6.675">
        <ele>1871</ele>
        <time>2026-03-13T16:07:31Z</time>
      </trkpt>
      <trkpt lat="45.17012" lon="6.67492">
        <ele>1869</ele>
        <time>2026-03-13T16:07:33Z</time>
      </trkpt>
      <trkpt lat="45.17021" lon="6.67485">
        <ele>1866</ele>
        <time>2026-03-13T16:07:35Z</time>
      </trkpt>
      <trkpt lat="45.17025" lon="6.67476">
        <ele>1864</ele>
        <time>2026-03-13T16:07:37Z</time>
      </trkpt>
      <trkpt lat="45.17022" lon="6.67475">
        <ele>1863</ele>
        <time>2026-03-13T16:07:51Z</time>
      </trkpt>
      <trkpt lat="45.17023" lon="6.67462">
        <ele>1861</ele>
        <time>2026-03-13T16:07:53Z</time>
      </trkpt>
      <trkpt lat="45.17024" lon="6.67446">
        <ele>1859</ele>
        <time>2026-03-13T16:07:55Z</time>
      </trkpt>
      <trkpt lat="45.17021" lon="6.67427">
        <ele>1857</ele>
        <time>2026-03-13T16:07:57Z</time>
      </trkpt>
      <trkpt lat="45.17014" lon="6.67413">
        <ele>1855</ele>
        <time>2026-03-13T16:07:59Z</time>
      </trkpt>
      <trkpt lat="45.17009" lon="6.67407">
        <ele>1853</ele>
        <time>2026-03-13T16:08:01Z</time>
      </trkpt>
      <trkpt lat="45.17008" lon="6.67398">
        <ele>1852</ele>
        <time>2026-03-13T16:08:03Z</time>
      </trkpt>
      <trkpt lat="45.17009" lon="6.6739">
        <ele>1850</ele>
        <time>2026-03-13T16:08:05Z</time>
      </trkpt>
      <trkpt lat="45.17006" lon="6.67384">
        <ele>1848</ele>
        <time>2026-03-13T16:08:07Z</time>
      </trkpt>
      <trkpt lat="45.16996" lon="6.67372">
        <ele>1844</ele>
        <time>2026-03-13T16:08:11Z</time>
      </trkpt>
      <trkpt lat="45.1699" lon="6.67368">
        <ele>1842</ele>
        <time>2026-03-13T16:08:13Z</time>
      </trkpt>
      <trkpt lat="45.1698" lon="6.67364">
        <ele>1840</ele>
        <time>2026-03-13T16:08:15Z</time>
      </trkpt>
      <trkpt lat="45.16971" lon="6.67357">
        <ele>1838</ele>
        <time>2026-03-13T16:08:17Z</time>
      </trkpt>
      <trkpt lat="45.16966" lon="6.67335">
        <ele>1835</ele>
        <time>2026-03-13T16:08:21Z</time>
      </trkpt>
      <trkpt lat="45.16964" lon="6.67323">
        <ele>1834</ele>
        <time>2026-03-13T16:08:23Z</time>
      </trkpt>
      <trkpt lat="45.16966" lon="6.67311">
        <ele>1833</ele>
        <time>2026-03-13T16:08:25Z</time>
      </trkpt>
      <trkpt lat="45.16977" lon="6.6729">
        <ele>1829</ele>
        <time>2026-03-13T16:08:29Z</time>
      </trkpt>
      <trkpt lat="45.16985" lon="6.67263">
        <ele>1826</ele>
        <time>2026-03-13T16:08:33Z</time>
      </trkpt>
      <trkpt lat="45.16998" lon="6.67239">
        <ele>1824</ele>
        <time>2026-03-13T16:08:37Z</time>
      </trkpt>
      <trkpt lat="45.17031" lon="6.67215">
        <ele>1820</ele>
        <time>2026-03-13T16:08:45Z</time>
      </trkpt>
      <trkpt lat="45.1705" lon="6.67204">
        <ele>1820</ele>
        <time>2026-03-13T16:08:49Z</time>
      </trkpt>
      <trkpt lat="45.17105" lon="6.67158">
        <ele>1811</ele>
        <time>2026-03-13T16:09:01Z</time>
      </trkpt>
      <trkpt lat="45.17114" lon="6.67146">
        <ele>1809</ele>
        <time>2026-03-13T16:09:03Z</time>
      </trkpt>
      <trkpt lat="45.17138" lon="6.67106">
        <ele>1804</ele>
        <time>2026-03-13T16:09:09Z</time>
      </trkpt>
      <trkpt lat="45.17143" lon="6.67092">
        <ele>1802</ele>
        <time>2026-03-13T16:09:11Z</time>
      </trkpt>
      <trkpt lat="45.1715" lon="6.67082">
        <ele>1800</ele>
        <time>2026-03-13T16:09:13Z</time>
      </trkpt>
      <trkpt lat="45.17165" lon="6.67062">
        <ele>1797</ele>
        <time>2026-03-13T16:09:17Z</time>
      </trkpt>
      <trkpt lat="45.17171" lon="6.67049">
        <ele>1794</ele>
        <time>2026-03-13T16:09:19Z</time>
      </trkpt>
      <trkpt lat="45.172" lon="6.66994">
        <ele>1791</ele>
        <time>2026-03-13T16:09:29Z</time>
      </trkpt>
      <trkpt lat="45.17202" lon="6.66989">
        <ele>1791</ele>
        <time>2026-03-13T16:11:07Z</time>
      </trkpt>
      <trkpt lat="45.17207" lon="6.6698">
        <ele>1789</ele>
        <time>2026-03-13T16:11:09Z</time>
      </trkpt>
      <trkpt lat="45.17224" lon="6.66937">
        <ele>1785</ele>
        <time>2026-03-13T16:11:17Z</time>
      </trkpt>
      <trkpt lat="45.17254" lon="6.66828">
        <ele>1778</ele>
        <time>2026-03-13T16:11:31Z</time>
      </trkpt>
      <trkpt lat="45.17258" lon="6.66799">
        <ele>1777</ele>
        <time>2026-03-13T16:11:35Z</time>
      </trkpt>
      <trkpt lat="45.17264" lon="6.66789">
        <ele>1776</ele>
        <time>2026-03-13T16:11:37Z</time>
      </trkpt>
      <trkpt lat="45.17265" lon="6.66778">
        <ele>1775</ele>
        <time>2026-03-13T16:11:39Z</time>
      </trkpt>
      <trkpt lat="45.17263" lon="6.66772">
        <ele>1774</ele>
        <time>2026-03-13T16:11:49Z</time>
      </trkpt>
      <trkpt lat="45.17266" lon="6.66762">
        <ele>1772</ele>
        <time>2026-03-13T16:11:51Z</time>
      </trkpt>
      <trkpt lat="45.17278" lon="6.66722">
        <ele>1766</ele>
        <time>2026-03-13T16:11:57Z</time>
      </trkpt>
      <trkpt lat="45.17291" lon="6.66699">
        <ele>1763</ele>
        <time>2026-03-13T16:12:01Z</time>
      </trkpt>
      <trkpt lat="45.17301" lon="6.66695">
        <ele>1761</ele>
        <time>2026-03-13T16:12:03Z</time>
      </trkpt>
      <trkpt lat="45.17325" lon="6.66697">
        <ele>1758</ele>
        <time>2026-03-13T16:12:07Z</time>
      </trkpt>
      <trkpt lat="45.17328" lon="6.66694">
        <ele>1757</ele>
        <time>2026-03-13T16:12:09Z</time>
      </trkpt>
      <trkpt lat="45.17326" lon="6.66686">
        <ele>1756</ele>
        <time>2026-03-13T16:12:11Z</time>
      </trkpt>
      <trkpt lat="45.17313" lon="6.66677">
        <ele>1755</ele>
        <time>2026-03-13T16:12:13Z</time>
      </trkpt>
      <trkpt lat="45.17302" lon="6.66674">
        <ele>1755</ele>
        <time>2026-03-13T16:12:15Z</time>
      </trkpt>
      <trkpt lat="45.17288" lon="6.66678">
        <ele>1754</ele>
        <time>2026-03-13T16:12:17Z</time>
      </trkpt>
      <trkpt lat="45.17275" lon="6.66686">
        <ele>1752</ele>
        <time>2026-03-13T16:12:19Z</time>
      </trkpt>
      <trkpt lat="45.17235" lon="6.66747">
        <ele>1749</ele>
        <time>2026-03-13T16:12:27Z</time>
      </trkpt>
      <trkpt lat="45.17225" lon="6.66761">
        <ele>1748</ele>
        <time>2026-03-13T16:12:29Z</time>
      </trkpt>
      <trkpt lat="45.17213" lon="6.66767">
        <ele>1748</ele>
        <time>2026-03-13T16:12:31Z</time>
      </trkpt>
      <trkpt lat="45.17202" lon="6.6676">
        <ele>1748</ele>
        <time>2026-03-13T16:12:33Z</time>
      </trkpt>
      <trkpt lat="45.17193" lon="6.66739">
        <ele>1746</ele>
        <time>2026-03-13T16:12:37Z</time>
      </trkpt>
      <trkpt lat="45.17195" lon="6.66731">
        <ele>1746</ele>
        <time>2026-03-13T16:12:39Z</time>
      </trkpt>
      <trkpt lat="45.17198" lon="6.66725">
        <ele>1745</ele>
        <time>2026-03-13T16:12:41Z</time>
      </trkpt>
      <trkpt lat="45.17204" lon="6.66716">
        <ele>1744</ele>
        <time>2026-03-13T16:12:45Z</time>
      </trkpt>
      <trkpt lat="45.17208" lon="6.66704">
        <ele>1743</ele>
        <time>2026-03-13T16:13:18Z</time>
      </trkpt>
      <trkpt lat="45.17209" lon="6.66695">
        <ele>1742</ele>
        <time>2026-03-13T16:13:36Z</time>
      </trkpt>
      <trkpt lat="45.17217" lon="6.66664">
        <ele>1740</ele>
        <time>2026-03-13T16:13:46Z</time>
      </trkpt>
      <trkpt lat="45.1723" lon="6.66595">
        <ele>1737</ele>
        <time>2026-03-13T16:13:58Z</time>
      </trkpt>
      <trkpt lat="45.17257" lon="6.66535">
        <ele>1733</ele>
        <time>2026-03-13T16:14:08Z</time>
      </trkpt>
      <trkpt lat="45.17263" lon="6.66526">
        <ele>1732</ele>
        <time>2026-03-13T16:14:10Z</time>
      </trkpt>
      <trkpt lat="45.17321" lon="6.66491">
        <ele>1729</ele>
        <time>2026-03-13T16:14:22Z</time>
      </trkpt>
      <trkpt lat="45.17333" lon="6.66491">
        <ele>1726</ele>
        <time>2026-03-13T16:14:24Z</time>
      </trkpt>
      <trkpt lat="45.17344" lon="6.66493">
        <ele>1724</ele>
        <time>2026-03-13T16:14:26Z</time>
      </trkpt>
      <trkpt lat="45.17354" lon="6.6649">
        <ele>1722</ele>
        <time>2026-03-13T16:14:28Z</time>
      </trkpt>
      <trkpt lat="45.1736" lon="6.66479">
        <ele>1720</ele>
        <time>2026-03-13T16:14:30Z</time>
      </trkpt>
      <trkpt lat="45.17387" lon="6.66425">
        <ele>1716</ele>
        <time>2026-03-13T16:14:38Z</time>
      </trkpt>
      <trkpt lat="45.17391" lon="6.66417">
        <ele>1715</ele>
        <time>2026-03-13T16:14:40Z</time>
      </trkpt>
      <trkpt lat="45.17393" lon="6.66399">
        <ele>1715</ele>
        <time>2026-03-13T16:14:44Z</time>
      </trkpt>
      <trkpt lat="45.17396" lon="6.66387">
        <ele>1715</ele>
        <time>2026-03-13T16:14:48Z</time>
      </trkpt>
      <trkpt lat="45.17392" lon="6.66318">
        <ele>1716</ele>
        <time>2026-03-13T16:15:26Z</time>
      </trkpt>
      <trkpt lat="45.17391" lon="6.66243">
        <ele>1712</ele>
        <time>2026-03-13T16:15:38Z</time>
      </trkpt>
      <trkpt lat="45.17394" lon="6.66229">
        <ele>1711</ele>
        <time>2026-03-13T16:15:40Z</time>
      </trkpt>
      <trkpt lat="45.17398" lon="6.66181">
        <ele>1709</ele>
        <time>2026-03-13T16:15:46Z</time>
      </trkpt>
      <trkpt lat="45.17398" lon="6.66164">
        <ele>1709</ele>
        <time>2026-03-13T16:15:48Z</time>
      </trkpt>
      <trkpt lat="45.174" lon="6.66149">
        <ele>1708</ele>
        <time>2026-03-13T16:15:50Z</time>
      </trkpt>
      <trkpt lat="45.17408" lon="6.66102">
        <ele>1705</ele>
        <time>2026-03-13T16:15:56Z</time>
      </trkpt>
      <trkpt lat="45.17405" lon="6.66084">
        <ele>1704</ele>
        <time>2026-03-13T16:15:58Z</time>
      </trkpt>
      <trkpt lat="45.17408" lon="6.66068">
        <ele>1703</ele>
        <time>2026-03-13T16:16:00Z</time>
      </trkpt>
      <trkpt lat="45.17406" lon="6.66051">
        <ele>1703</ele>
        <time>2026-03-13T16:16:02Z</time>
      </trkpt>
      <trkpt lat="45.17406" lon="6.66035">
        <ele>1702</ele>
        <time>2026-03-13T16:16:04Z</time>
      </trkpt>
      <trkpt lat="45.17404" lon="6.66017">
        <ele>1701</ele>
        <time>2026-03-13T16:16:06Z</time>
      </trkpt>
      <trkpt lat="45.174" lon="6.66">
        <ele>1699</ele>
        <time>2026-03-13T16:16:08Z</time>
      </trkpt>
      <trkpt lat="45.17399" lon="6.65982">
        <ele>1698</ele>
        <time>2026-03-13T16:16:10Z</time>
      </trkpt>
      <trkpt lat="45.17384" lon="6.65948">
        <ele>1697</ele>
        <time>2026-03-13T16:16:14Z</time>
      </trkpt>
      <trkpt lat="45.17355" lon="6.65904">
        <ele>1694</ele>
        <time>2026-03-13T16:16:20Z</time>
      </trkpt>
      <trkpt lat="45.17326" lon="6.65893">
        <ele>1694</ele>
        <time>2026-03-13T16:16:26Z</time>
      </trkpt>
      <trkpt lat="45.17293" lon="6.65865">
        <ele>1692</ele>
        <time>2026-03-13T16:16:34Z</time>
      </trkpt>
      <trkpt lat="45.172" lon="6.65688">
        <ele>1681</ele>
        <time>2026-03-13T16:17:04Z</time>
      </trkpt>
      <trkpt lat="45.17177" lon="6.65644">
        <ele>1678</ele>
        <time>2026-03-13T16:17:12Z</time>
      </trkpt>
      <trkpt lat="45.17166" lon="6.65615">
        <ele>1677</ele>
        <time>2026-03-13T16:17:18Z</time>
      </trkpt>
      <trkpt lat="45.17146" lon="6.65586">
        <ele>1675</ele>
        <time>2026-03-13T16:17:26Z</time>
      </trkpt>
      <trkpt lat="45.17133" lon="6.65557">
        <ele>1674</ele>
        <time>2026-03-13T16:17:32Z</time>
      </trkpt>
      <trkpt lat="45.17111" lon="6.65516">
        <ele>1676</ele>
        <time>2026-03-13T16:17:44Z</time>
      </trkpt>
      <trkpt lat="45.17076" lon="6.6549">
        <ele>1675</ele>
        <time>2026-03-13T16:17:56Z</time>
      </trkpt>
      <trkpt lat="45.1707" lon="6.65486">
        <ele>1675</ele>
        <time>2026-03-13T16:17:58Z</time>
      </trkpt>
      <trkpt lat="45.1706" lon="6.65472">
        <ele>1675</ele>
        <time>2026-03-13T16:18:02Z</time>
      </trkpt>
      <trkpt lat="45.1704" lon="6.65418">
        <ele>1676</ele>
        <time>2026-03-13T16:18:16Z</time>
      </trkpt>
      <trkpt lat="45.17046" lon="6.65414">
        <ele>1674</ele>
        <time>2026-03-13T16:19:56Z</time>
      </trkpt>
      <trkpt lat="45.17055" lon="6.65403">
        <ele>1672</ele>
        <time>2026-03-13T16:20:00Z</time>
      </trkpt>
      <trkpt lat="45.17058" lon="6.65398">
        <ele>1671</ele>
        <time>2026-03-13T16:20:02Z</time>
      </trkpt>
      <trkpt lat="45.17067" lon="6.65387">
        <ele>1668</ele>
        <time>2026-03-13T16:20:06Z</time>
      </trkpt>
      <trkpt lat="45.17077" lon="6.65385">
        <ele>1666</ele>
        <time>2026-03-13T16:20:08Z</time>
      </trkpt>
      <trkpt lat="45.17085" lon="6.65385">
        <ele>1664</ele>
        <time>2026-03-13T16:20:10Z</time>
      </trkpt>
      <trkpt lat="45.17089" lon="6.65382">
        <ele>1663</ele>
        <time>2026-03-13T16:20:12Z</time>
      </trkpt>
      <trkpt lat="45.17091" lon="6.65375">
        <ele>1658</ele>
        <time>2026-03-13T16:20:18Z</time>
      </trkpt>
      <trkpt lat="45.17094" lon="6.65365">
        <ele>1655</ele>
        <time>2026-03-13T16:20:22Z</time>
      </trkpt>
      <trkpt lat="45.17099" lon="6.65358">
        <ele>1649</ele>
        <time>2026-03-13T16:20:32Z</time>
      </trkpt>
      <trkpt lat="45.1711" lon="6.65361">
        <ele>1644</ele>
        <time>2026-03-13T16:20:36Z</time>
      </trkpt>
      <trkpt lat="45.17116" lon="6.65354">
        <ele>1638</ele>
        <time>2026-03-13T16:20:40Z</time>
      </trkpt>
      <trkpt lat="45.17123" lon="6.65353">
        <ele>1637</ele>
        <time>2026-03-13T16:20:42Z</time>
      </trkpt>
      <trkpt lat="45.17122" lon="6.65346">
        <ele>1633</ele>
        <time>2026-03-13T16:20:46Z</time>
      </trkpt>
      <trkpt lat="45.17128" lon="6.65338">
        <ele>1630</ele>
        <time>2026-03-13T16:20:50Z</time>
      </trkpt>
      <trkpt lat="45.17129" lon="6.65327">
        <ele>1624</ele>
        <time>2026-03-13T16:21:22Z</time>
      </trkpt>
      <trkpt lat="45.17139" lon="6.65328">
        <ele>1617</ele>
        <time>2026-03-13T16:21:26Z</time>
      </trkpt>
      <trkpt lat="45.17146" lon="6.65328">
        <ele>1614</ele>
        <time>2026-03-13T16:21:30Z</time>
      </trkpt>
      <trkpt lat="45.17143" lon="6.65327">
        <ele>1605</ele>
        <time>2026-03-13T16:21:40Z</time>
      </trkpt>
      <trkpt lat="45.1714" lon="6.65323">
        <ele>1604</ele>
        <time>2026-03-13T16:21:42Z</time>
      </trkpt>
      <trkpt lat="45.17141" lon="6.65315">
        <ele>1601</ele>
        <time>2026-03-13T16:23:06Z</time>
      </trkpt>
      <trkpt lat="45.17145" lon="6.65311">
        <ele>1600</ele>
        <time>2026-03-13T16:23:14Z</time>
      </trkpt>
      <trkpt lat="45.17149" lon="6.65311">
        <ele>1598</ele>
        <time>2026-03-13T16:23:28Z</time>
      </trkpt>
      <trkpt lat="45.17147" lon="6.65307">
        <ele>1596</ele>
        <time>2026-03-13T16:24:30Z</time>
      </trkpt>
      <trkpt lat="45.17161" lon="6.65282">
        <ele>1593</ele>
        <time>2026-03-13T16:24:48Z</time>
      </trkpt>
      <trkpt lat="45.17182" lon="6.65269">
        <ele>1588</ele>
        <time>2026-03-13T16:25:18Z</time>
      </trkpt>
      <trkpt lat="45.17204" lon="6.65247">
        <ele>1583</ele>
        <time>2026-03-13T16:25:48Z</time>
      </trkpt>
      <trkpt lat="45.17219" lon="6.65234">
        <ele>1580</ele>
        <time>2026-03-13T16:26:04Z</time>
      </trkpt>
      <trkpt lat="45.17218" lon="6.65228">
        <ele>1580</ele>
        <time>2026-03-13T16:26:22Z</time>
      </trkpt>
      <trkpt lat="45.17203" lon="6.65198">
        <ele>1575</ele>
        <time>2026-03-13T16:26:34Z</time>
      </trkpt>
      <trkpt lat="45.172" lon="6.65187">
        <ele>1574</ele>
        <time>2026-03-13T16:26:36Z</time>
      </trkpt>
      <trkpt lat="45.17202" lon="6.65179">
        <ele>1574</ele>
        <time>2026-03-13T16:26:38Z</time>
      </trkpt>
      <trkpt lat="45.17207" lon="6.65175">
        <ele>1574</ele>
        <time>2026-03-13T16:26:40Z</time>
      </trkpt>
      <trkpt lat="45.17214" lon="6.65179">
        <ele>1573</ele>
        <time>2026-03-13T16:26:42Z</time>
      </trkpt>
      <trkpt lat="45.17221" lon="6.65181">
        <ele>1571</ele>
        <time>2026-03-13T16:26:44Z</time>
      </trkpt>
      <trkpt lat="45.17231" lon="6.65184">
        <ele>1570</ele>
        <time>2026-03-13T16:26:46Z</time>
      </trkpt>
      <trkpt lat="45.17246" lon="6.65202">
        <ele>1567</ele>
        <time>2026-03-13T16:26:50Z</time>
      </trkpt>
      <trkpt lat="45.17255" lon="6.652">
        <ele>1567</ele>
        <time>2026-03-13T16:26:52Z</time>
      </trkpt>
      <trkpt lat="45.17263" lon="6.65198">
        <ele>1566</ele>
        <time>2026-03-13T16:26:54Z</time>
      </trkpt>
      <trkpt lat="45.17278" lon="6.65214">
        <ele>1564</ele>
        <time>2026-03-13T16:27:00Z</time>
      </trkpt>
      <trkpt lat="45.17283" lon="6.6522">
        <ele>1564</ele>
        <time>2026-03-13T16:27:04Z</time>
      </trkpt>
    </trkseg>
  </trk>
</gpx>